Date StartTime U_cm/s V_cm/s W_cm/s Ustd_cm/s Vstd_cm/s Wstd_cm/s Uvar_(cm/s)^2 Vvar_(cm/s)^2 Wvar_(cm/s)^2 KE_(m/s)^2 TurbulentKE_(m/s)^2 HorizWindSpeed_cm/s FrictionSpeec_cm/s DragCoef SpeedOfSound_m/s SonicTemperature_C Pressure_mb 
01/13/2015  00:00:00     -100.524       68.249      -19.319       31.826       41.113       22.125     1012.915     1690.296      489.521        0.916        0.160      121.503       11.020        0.008      334.102        3.852      867.630
01/13/2015  00:01:00      -71.841       -7.657       -9.095       29.604       35.134       16.024      876.424     1234.380      256.760        0.383        0.118       72.248       13.516        0.035      333.945        3.593      867.614
01/13/2015  00:02:00      -63.250       29.382      -10.872       33.539       29.122       18.854     1124.851      848.073      355.471        0.365        0.116       69.742       16.874        0.059      334.010        3.700      867.613
01/13/2015  00:03:00     -101.559        6.077       -9.526       34.525       29.771       16.403     1191.955      886.331      269.048        0.639        0.117      101.740       15.645        0.024      334.079        3.815      867.615
01/13/2015  00:04:00      -90.252      -15.399       -7.400       34.148       27.284       17.849     1166.081      744.400      318.571        0.533        0.111       91.556       17.737        0.038      334.031        3.736      867.621
01/13/2015  00:05:00     -104.942      -11.850      -15.124       23.769       27.792       20.138      564.945      772.405      405.527        0.656        0.087      105.609        6.769        0.004      334.113        3.871      867.633
01/13/2015  00:06:00      -81.950      -36.681       -5.995       16.738       20.168       13.348      280.161      406.764      178.175        0.448        0.043       89.785        7.283        0.007      334.106        3.860      867.643
01/13/2015  00:07:00      -88.234      -27.516       -4.376       26.315       23.463       14.612      692.473      550.533      213.509        0.501        0.073       92.425       15.732        0.029      334.121        3.885      867.650
01/13/2015  00:08:00      -73.995      -27.023       -8.006       25.894       19.396       17.592      670.475      376.211      309.461        0.381        0.068       78.775        4.018        0.003      333.972        3.639      867.661
01/13/2015  00:09:00     -106.138      -23.363       -3.508       36.693       21.938       15.194     1346.405      481.281      230.847        0.694        0.103      108.679       10.387        0.009      333.929        3.567      867.675
01/13/2015  00:10:00      -90.477      -41.227      -10.043       31.197       18.562       14.631      973.268      344.530      214.074        0.576        0.077       99.427       10.851        0.012      333.946        3.594      867.690
01/13/2015  00:11:00      -87.590      -21.008       -7.415       24.489       28.915       14.064      599.703      836.063      197.788        0.490        0.082       90.074       11.076        0.015      333.893        3.507      867.706
01/13/2015  00:12:00      -79.262      -30.383      -13.662       30.150       19.997       18.721      909.021      399.890      350.471        0.453        0.083       84.886        9.738        0.013      333.975        3.643      867.713
01/13/2015  00:13:00     -109.214       16.207       -8.027       45.908       30.495       30.189     2107.549      929.937      911.367        0.810        0.197      110.410       27.651        0.063      333.890        3.502      867.728
01/13/2015  00:14:00     -109.193        0.158      -17.694       19.304       20.421       14.039      372.636      417.024      197.084        0.661        0.049      109.193        6.487        0.004      333.805        3.361      867.725
01/13/2015  00:15:00     -106.192       10.374      -19.893       27.626       38.791       20.180      763.215     1504.761      407.235        0.723        0.134      106.698       19.629        0.034      333.800        3.354      867.735
01/13/2015  00:16:00     -105.941       11.972      -12.005       46.317       37.201       23.469     2145.271     1383.920      550.785        0.779        0.204      106.616       26.104        0.060      333.803        3.357      867.736
01/13/2015  00:17:00     -115.375       11.018      -13.940       40.535       20.063       19.850     1643.100      402.519      394.023        0.803        0.122      115.900        8.556        0.005      333.772        3.305      867.745
01/13/2015  00:18:00      -87.834      -21.333      -11.257       40.850       22.072       15.038     1668.756      487.161      226.152        0.534        0.119       90.387       16.918        0.035      333.683        3.159      867.749
01/13/2015  00:19:00     -130.332      -23.479      -16.279       38.499       26.991       20.026     1482.195      728.527      401.037        1.021        0.131      132.430       20.759        0.025      333.651        3.104      867.747
01/13/2015  00:20:00      -50.441      -12.958       10.042       36.450       30.070       21.733     1328.607      904.179      472.302        0.276        0.135       52.079       23.744        0.208      333.666        3.129      867.747
01/13/2015  00:21:00     -111.670      -17.452       -9.185       33.356       27.600       21.120     1112.653      761.782      446.073        0.759        0.116      113.026       18.182        0.026      333.621        3.055      867.746
01/13/2015  00:22:00      -82.588       -7.086       -7.000       39.501       25.260       19.180     1560.300      638.045      367.873        0.474        0.128       82.891       21.864        0.070      333.594        3.009      867.757
01/13/2015  00:23:00      -94.199       29.100      -13.724       45.926       22.126       17.094     2109.216      489.539      292.212        0.640        0.145       98.592       18.373        0.035      333.668        3.134      867.772
01/13/2015  00:24:00     -114.887       28.866      -17.975       21.006       24.235       16.944      441.239      587.326      287.102        0.784        0.066      118.458        9.872        0.007      333.687        3.165      867.785
01/13/2015  00:25:00      -87.271        7.033      -13.510       25.968       24.185       13.374      674.360      584.914      178.874        0.464        0.072       87.554        6.493        0.005      333.715        3.211      867.792
01/13/2015  00:26:00     -113.187       24.132      -12.718       29.020       21.074       22.238      842.182      444.134      494.542        0.767        0.089      115.731       20.336        0.031      333.890        3.502      867.799
01/13/2015  00:27:00     -109.184        2.056      -10.072       26.955       28.001       17.033      726.583      784.077      290.114        0.691        0.090      109.204       14.404        0.017      333.789        3.335      867.801
01/13/2015  00:28:00     -111.654       17.621      -16.491       24.609       48.905       24.442      605.601     2391.710      597.413        0.832        0.180      113.036       14.097        0.016      333.929        3.567      867.808
01/13/2015  00:29:00      -82.770        7.000       -4.626       24.533       24.017       16.329      601.889      576.793      266.645        0.418        0.072       83.066        6.906        0.007      333.840        3.418      867.805
01/13/2015  00:30:00      -64.012       -8.143       -2.778       18.945       35.420       11.332      358.909     1254.611      128.412        0.296        0.087       64.528        6.200        0.009      333.738        3.249      867.812
01/13/2015  00:31:00     -106.093      -14.400      -14.553       39.437       43.476       28.597     1555.247     1890.141      817.782        0.797        0.213      107.066       28.966        0.073      333.847        3.430      867.817
01/13/2015  00:32:00     -103.132       23.914      -10.029       45.789       48.976       37.078     2096.653     2398.634     1374.802        0.859        0.294      105.868       34.397        0.106      333.930        3.568      867.819
01/13/2015  00:33:00      -93.978        9.883      -10.413       31.606       49.349       25.062      998.950     2435.366      628.121        0.655        0.203       94.496       26.445        0.078      333.989        3.666      867.837
01/13/2015  00:34:00      -98.970       -4.092      -14.531       27.108       31.205       20.904      734.834      973.736      436.976        0.608        0.107       99.055       17.128        0.030      333.822        3.389      867.844
01/13/2015  00:35:00      -83.185      -14.882      -16.785       22.003       26.683       14.647      484.147      711.961      214.541        0.442        0.071       84.506       15.659        0.034      333.821        3.388      867.851
01/13/2015  00:36:00      -90.631      -22.648      -14.370       19.218       20.368       19.173      369.334      414.851      367.602        0.504        0.058       93.418       14.880        0.025      333.801        3.355      867.861
01/13/2015  00:37:00      -79.065      -36.927       -5.459       16.232       27.583       11.605      263.469      760.831      134.684        0.440        0.058       87.263        4.812        0.003      333.796        3.345      867.872
01/13/2015  00:38:00      -97.481      -26.507       -8.105       39.987       17.124       16.932     1598.942      293.221      286.704        0.622        0.109      101.021       21.253        0.044      333.799        3.351      867.877
01/13/2015  00:39:00      -61.738      -47.020        3.793       27.446       26.020       17.622      753.264      677.042      310.535        0.389        0.087       77.604       13.207        0.029      333.833        3.408      867.876
01/13/2015  00:40:00      -67.530      -46.147        0.004       36.243       22.598       16.127     1313.561      510.690      260.067        0.439        0.104       81.792       10.901        0.018      333.871        3.470      867.859
01/13/2015  00:41:00      -60.102      -23.943        0.708       32.279       23.260       15.960     1041.932      541.026      254.731        0.301        0.092       64.695       16.814        0.068      333.890        3.501      867.851
01/13/2015  00:42:00     -103.363      -23.244       -6.925       30.803       20.393       16.854      948.831      415.891      284.053        0.646        0.082      105.944       10.550        0.010      333.898        3.515      867.845
01/13/2015  00:43:00     -116.953      -18.957      -17.165       40.095       23.693       16.973     1607.645      561.358      288.091        0.839        0.123      118.479        9.630        0.007      333.915        3.543      867.836
01/13/2015  00:44:00      -76.021      -39.578       -2.246       33.699       24.364       18.834     1135.644      593.596      354.716        0.472        0.104       85.707       13.547        0.025      333.947        3.597      867.834
01/13/2015  00:45:00      -39.725      -44.723        1.629       44.878       19.696       24.219     2014.019      387.951      586.563        0.328        0.149       59.818       15.790        0.070      333.878        3.482      867.838
01/13/2015  00:46:00      -51.026      -20.559        3.383       34.672       24.991       18.010     1202.160      624.543      324.360        0.259        0.108       55.012       14.850        0.073      333.863        3.459      867.835
01/13/2015  00:47:00      -56.321      -40.122       -9.086       43.209       31.503       17.490     1867.007      992.426      305.896        0.401        0.158       69.151       16.820        0.059      333.758        3.281      867.825
01/13/2015  00:48:00      -49.454      -33.528       10.492       35.571       30.618       18.254     1265.263      937.488      333.195        0.311        0.127       59.747       22.279        0.139      333.752        3.273      867.821
01/13/2015  00:49:00      -39.796      -34.718        6.712       26.220       19.340       17.274      687.500      374.018      298.389        0.210        0.068       52.812       15.906        0.091      333.791        3.336      867.820
01/13/2015  00:50:00      -42.038      -30.076        1.389       23.083       16.186       11.952      532.832      261.972      142.851        0.181        0.047       51.689       11.055        0.046      333.785        3.328      867.819
01/13/2015  00:51:00      -15.923      -20.727        4.355       17.409       15.536       11.060      303.056      241.358      122.323        0.068        0.033       26.137        7.694        0.087      333.775        3.312      867.830
01/13/2015  00:52:00      -27.594      -17.173        0.778       14.002        9.711       12.211      196.059       94.296      149.109        0.075        0.022       32.501        8.669        0.071      333.730        3.236      867.845
01/13/2015  00:53:00      -18.097      -22.648       -3.297       14.384       11.531        7.144      206.893      132.959       51.031        0.062        0.020       28.990        6.478        0.050      333.742        3.257      867.871
01/13/2015  00:54:00        2.141      -17.981        0.610        8.867       10.548        7.960       78.620      111.266       63.358        0.029        0.013       18.108        3.879        0.046      333.757        3.282      867.890
01/13/2015  00:55:00       -4.554      -10.518        5.368       16.156       11.675        9.590      261.019      136.311       91.967        0.032        0.024       11.462        8.654        0.570      333.689        3.167      867.905
01/13/2015  00:56:00      -37.909      -20.842        1.190       21.610       12.663       14.145      466.995      160.342      200.092        0.135        0.041       43.261       14.960        0.120      333.684        3.159      867.934
01/13/2015  00:57:00      -24.672      -20.455        4.274       26.045       20.676       12.554      678.351      427.481      157.611        0.115        0.063       32.048       10.572        0.109      333.550        2.937      867.950
01/13/2015  00:58:00      -82.179      -36.257       -8.566       20.041       17.538        8.799      401.623      307.587       77.431        0.446        0.039       89.822        2.794        0.001      333.438        2.751      867.954
01/13/2015  00:59:00      -85.020      -40.183      -11.638       15.760       11.468       11.181      248.364      131.510      125.022        0.474        0.025       94.038        7.429        0.006      333.419        2.720      867.940
01/13/2015  01:00:00      -57.189      -43.396       -2.337       23.186       23.601       12.493      537.574      557.003      156.079        0.320        0.063       71.790       12.291        0.029      333.376        2.650      867.931
01/13/2015  01:01:00     -105.482      -61.948       -5.030       32.538       28.709       16.984     1058.696      824.218      288.445        0.858        0.109      122.327       15.451        0.016      333.295        2.517      867.923
01/13/2015  01:02:00      -55.473      -17.538       -0.145       38.163       26.980       19.944     1456.439      727.903      397.772        0.298        0.129       58.180       22.098        0.144      333.357        2.619      867.917
01/13/2015  01:03:00      -72.240      -35.734       -0.716       41.600       33.241       18.049     1730.575     1104.989      325.749        0.483        0.158       80.595       15.119        0.035      333.513        2.877      867.918
01/13/2015  01:04:00      -43.597      -24.306        4.844       24.851       18.429       14.652      617.556      339.631      214.679        0.184        0.059       49.914       10.993        0.049      333.323        2.563      867.921
01/13/2015  01:05:00      -57.326      -27.538       -5.681       18.305       15.806       13.836      335.077      249.826      191.421        0.243        0.039       63.597        9.529        0.022      333.351        2.608      867.932
01/13/2015  01:06:00      -30.791      -16.296       -2.195       20.674       14.898       13.437      427.419      221.952      180.550        0.102        0.041       34.837       11.512        0.109      333.354        2.614      867.938
01/13/2015  01:07:00       -9.041      -23.454       -8.181        9.073       16.508        9.298       82.327      272.505       86.452        0.057        0.022       25.136        8.511        0.115      333.357        2.618      867.956
01/13/2015  01:08:00      -15.082      -33.812      -18.380       18.431       24.269       11.471      339.709      588.985      131.595        0.138        0.053       37.023        6.643        0.032      333.313        2.546      867.983
01/13/2015  01:09:00       -8.142      -17.900       -6.027        8.109        8.605        7.982       65.756       74.051       63.705        0.031        0.010       19.665        3.895        0.039      333.294        2.513      868.005
01/13/2015  01:10:00      -40.283      -19.593       -1.782       21.500       10.511        8.984      462.248      110.475       80.715        0.133        0.033       44.795        1.960        0.002      333.288        2.503      868.023
01/13/2015  01:11:00      -42.403      -15.168       -0.014       14.155       10.882       11.001      200.364      118.411      121.026        0.123        0.022       45.034        4.372        0.009      333.276        2.484      868.030
01/13/2015  01:12:00      -40.078      -24.352        1.096       21.107       15.769       11.063      445.522      248.658      122.392        0.151        0.041       46.896        6.712        0.020      333.375        2.648      868.032
01/13/2015  01:13:00      -52.584      -39.543       -0.685       19.069       19.709       15.396      363.638      388.441      237.045        0.266        0.049       65.793       11.690        0.032      333.414        2.712      868.023
01/13/2015  01:14:00      -56.552      -46.575       -3.573       17.904       15.466       11.663      320.548      239.184      136.018        0.304        0.035       73.262        5.060        0.005      333.393        2.678      868.016
01/13/2015  01:15:00      -78.528      -59.183       -8.852       15.822       15.985       13.721      250.351      255.521      188.275        0.522        0.035       98.333        6.329        0.004      333.467        2.799      868.015
01/13/2015  01:16:00      -66.409      -63.441       -0.726       17.576       19.963       12.671      308.912      398.537      160.549        0.465        0.043       91.842       11.457        0.016      333.474        2.811      868.015
01/13/2015  01:17:00      -61.381      -68.325        4.653       27.218       22.636       19.728      740.840      512.379      389.185        0.505        0.082       91.847       18.189        0.039      333.500        2.856      868.015
01/13/2015  01:18:00      -59.026      -30.771        5.391       38.600       24.096       17.352     1489.967      580.613      301.078        0.342        0.119       66.565       13.733        0.043      333.382        2.661      868.025
01/13/2015  01:19:00      -59.048      -21.130        8.683       26.402       20.589       15.904      697.065      423.921      252.950        0.269        0.069       62.715       14.782        0.056      333.322        2.560      868.037
01/13/2015  01:20:00      -22.136      -24.356        3.093       11.473        8.889        8.921      131.640       79.009       79.576        0.069        0.015       32.912        4.543        0.019      333.299        2.523      868.040
01/13/2015  01:21:00       -8.508        2.611        9.442       11.473       10.846       13.160      131.636      117.627      173.174        0.030        0.021        8.899        9.540        1.149      333.334        2.581      868.043
01/13/2015  01:22:00       17.669       40.686       15.677       22.690       17.025       29.374      514.843      289.859      862.815        0.194        0.083       44.357       17.312        0.152      333.077        2.156      868.046
01/13/2015  01:23:00       11.259       64.360      -16.835       19.650       23.280       10.751      386.121      541.972      115.581        0.280        0.052       65.337       12.262        0.035      332.838        1.764      868.058
01/13/2015  01:24:00       -8.805      -10.269       -4.829        8.508       17.393        8.325       72.387      302.512       69.301        0.033        0.022       13.527       10.539        0.607      333.103        2.200      868.066
01/13/2015  01:25:00      -15.318      -20.073       10.746       11.194        9.684       10.252      125.310       93.773      105.094        0.054        0.016       25.250        2.122        0.007      333.255        2.450      868.065
01/13/2015  01:26:00      -22.851      -17.174        4.225        9.803       10.721        6.044       96.089      114.937       36.534        0.054        0.012       28.585        3.951        0.019      333.308        2.538      868.065
01/13/2015  01:27:00        2.793       -5.719        5.823       15.517        8.091        8.224      240.765       65.471       67.638        0.022        0.019        6.364        8.110        1.624      333.264        2.465      868.076
01/13/2015  01:28:00       -0.616       -0.679        0.268       12.759        6.789        5.744      162.792       46.087       32.993        0.012        0.012        0.917        7.473       66.364      333.228        2.403      868.081
01/13/2015  01:29:00      -15.733      -17.574        2.314       23.361       10.096        6.485      545.756      101.921       42.051        0.063        0.034       23.587        7.801        0.109      333.187        2.337      868.085
01/13/2015  01:30:00      -26.952      -21.030       12.105       36.054       11.159       12.052     1299.898      124.532      145.240        0.144        0.078       34.186       17.146        0.252      333.126        2.237      868.064
01/13/2015  01:31:00      -90.174      -24.563       -2.631       25.734       16.557       13.855      662.239      274.123      191.957        0.493        0.056       93.459       13.162        0.020      333.004        2.034      868.043
01/13/2015  01:32:00     -106.614      -13.028       -3.809       36.718       17.867       16.139     1348.197      319.234      260.467        0.674        0.096      107.407       18.584        0.030      333.077        2.157      868.021
01/13/2015  01:33:00      -52.024      -31.121        0.541       32.553       23.298       14.432     1059.690      542.807      208.291        0.274        0.091       60.622       10.799        0.032      333.086        2.170      868.017
01/13/2015  01:34:00      -85.837      -19.060       -7.446       21.393       13.414       16.425      457.665      179.930      269.783        0.435        0.045       87.928       13.375        0.023      333.068        2.142      868.032
01/13/2015  01:35:00      -94.580      -11.337      -13.787       14.455       18.854        9.959      208.935      355.490       99.191        0.496        0.033       95.257        5.635        0.003      333.243        2.431      868.055
01/13/2015  01:36:00      -92.147      -32.410       -7.997       15.443       13.742        6.484      238.483      188.838       42.044        0.504        0.023       97.680        4.334        0.002      333.270        2.473      868.071
01/13/2015  01:37:00      -91.531      -14.030      -10.269       12.682       15.893       10.188      160.833      252.578      103.794        0.460        0.026       92.600        5.482        0.004      333.136        2.253      868.085
01/13/2015  01:38:00     -115.553      -46.518       -9.909       14.064       20.226       11.549      197.791      409.108      133.388        0.818        0.037      124.565        7.066        0.003      333.147        2.270      868.088
01/13/2015  01:39:00     -110.471      -51.053       -4.336       26.483       19.139       16.816      701.345      366.287      282.785        0.809        0.068      121.698       15.696        0.017      333.048        2.107      868.073
01/13/2015  01:40:00      -95.793      -17.242      -14.095       12.464       10.049        8.220      155.358      100.986       67.564        0.500        0.016       97.333        4.519        0.002      333.037        2.090      868.077
01/13/2015  01:41:00      -90.719      -20.818      -14.069       22.488       16.635       13.151      505.713      276.735      172.940        0.491        0.048       93.077       10.368        0.012      333.063        2.133      868.085
01/13/2015  01:42:00     -123.094      -40.810       -7.856       27.027       15.733       11.066      730.470      247.536      122.452        0.899        0.055      129.682        7.502        0.003      333.142        2.264      868.094
01/13/2015  01:43:00      -79.050      -43.960       -0.617       27.866       17.111       12.987      776.507      292.778      168.650        0.471        0.062       90.451       11.942        0.017      333.146        2.270      868.113
01/13/2015  01:44:00      -69.428      -42.609       -5.571       13.030        9.312        6.058      169.777       86.706       36.695        0.348        0.015       81.460        2.131        0.001      333.177        2.319      868.144
01/13/2015  01:45:00      -51.017      -32.860       -3.156       10.878        7.831        6.921      118.333       61.327       47.903        0.196        0.011       60.684        4.763        0.006      333.271        2.477      868.168
01/13/2015  01:46:00       -6.113      -29.914        6.813       12.510       18.212        9.795      156.501      331.684       95.942        0.078        0.029       30.533        9.012        0.087      333.387        2.669      868.189
01/13/2015  01:47:00      -19.511      -24.875       -1.630       19.004       15.032        7.880      361.141      225.947       62.101        0.083        0.032       31.614        7.011        0.049      333.453        2.778      868.210
01/13/2015  01:48:00      -15.019      -18.009       -3.767       14.556        9.605       12.891      211.879       92.249      166.168        0.052        0.024       23.450        8.124        0.120      333.175        2.317      868.217
01/13/2015  01:49:00       -6.292       -7.412       13.546        6.561       11.647        9.433       43.040      135.659       88.980        0.027        0.013        9.722        6.355        0.427      333.110        2.211      868.226
01/13/2015  01:50:00      -12.676       12.844       15.328        8.516        8.697        6.709       72.514       75.636       45.009        0.038        0.010       18.046        5.845        0.105      333.037        2.088      868.238
01/13/2015  01:51:00      -12.584       -1.253        5.057       14.455       10.850        8.937      208.958      117.732       79.876        0.030        0.020       12.646        8.194        0.420      333.081        2.164      868.250
01/13/2015  01:52:00       15.129       -5.438        0.996       14.979        8.944        8.733      224.384       80.002       76.257        0.032        0.019       16.076        7.104        0.195      333.083        2.166      868.260
01/13/2015  01:53:00       19.707       -8.282        0.449       11.019       11.977       13.941      121.418      143.456      194.355        0.046        0.023       21.376        6.991        0.107      333.172        2.314      868.254
01/13/2015  01:54:00        9.810      -42.522      -13.693        9.942       14.688        9.130       98.837      215.738       83.365        0.124        0.020       43.639        7.941        0.033      333.290        2.509      868.256
01/13/2015  01:55:00       30.127       29.100       18.502       31.079       37.052       18.505      965.920     1372.831      342.442        0.239        0.134       41.886       14.838        0.125      333.099        2.193      868.260
01/13/2015  01:56:00        9.979       34.675        0.353       13.226       12.231        6.322      174.922      149.595       39.974        0.083        0.018       36.083        6.280        0.030      332.837        1.761      868.273
01/13/2015  01:57:00        9.970       19.714        7.743       10.801       27.042       16.139      116.660      731.244      260.476        0.083        0.055       22.092       11.448        0.269      333.115        2.220      868.296
01/13/2015  01:58:00       13.294       -5.529       26.478       17.279       37.744       19.242      298.549     1424.613      370.268        0.150        0.105       14.398       22.393        2.419      332.900        1.865      868.319
01/13/2015  01:59:00       18.120       37.146       37.828       24.919       27.037       20.721      620.936      731.010      429.344        0.246        0.089       41.330       14.612        0.125      332.703        1.538      868.322
01/13/2015  02:00:00       41.307      -42.369       -3.788       13.137       23.382       15.713      172.582      546.697      246.886        0.224        0.048       59.173       14.414        0.059      332.865        1.806      868.317
01/13/2015  02:01:00       -1.168      -44.501      -22.166       29.721       22.009       13.185      883.354      484.375      173.833        0.201        0.077       44.516        7.537        0.029      332.994        2.019      868.304
01/13/2015  02:02:00       -0.681      -24.892        7.503       11.986       27.291       23.445      143.654      744.772      549.669        0.106        0.072       24.901       20.374        0.669      332.939        1.928      868.302
01/13/2015  02:03:00      -12.257       32.987        5.054       10.263       20.805       15.013      105.336      432.867      225.395        0.101        0.038       35.191       13.685        0.151      332.890        1.849      868.316
01/13/2015  02:04:00        3.238        7.225        8.603        8.012       10.710        7.867       64.195      114.707       61.889        0.019        0.012        7.917        2.529        0.102      332.906        1.873      868.337
01/13/2015  02:05:00      -12.620       -4.371        0.684       10.215        8.381        4.452      104.336       70.236       19.823        0.019        0.010       13.356        3.823        0.082      332.865        1.807      868.351
01/13/2015  02:06:00      -20.934      -23.210       -1.298       19.910       10.586        8.893      396.399      112.060       79.088        0.078        0.029       31.257        7.434        0.057      332.921        1.897      868.364
01/13/2015  02:07:00      -48.012      -29.154        2.010       19.386       15.802       11.480      375.826      249.712      131.789        0.196        0.038       56.170        7.642        0.019      332.843        1.770      868.387
01/13/2015  02:08:00      -58.367      -28.564       -1.458       21.363       17.168       10.444      456.378      294.751      109.073        0.254        0.043       64.982        4.566        0.005      332.834        1.755      868.406
01/13/2015  02:09:00      -66.752      -27.609        1.672       18.724       14.469       11.874      350.579      209.350      140.982        0.296        0.035       72.236        3.965        0.003      332.852        1.786      868.426
01/13/2015  02:10:00      -56.245      -13.559        0.551       19.436       13.687       12.369      377.770      187.322      153.002        0.203        0.036       57.856       11.484        0.039      332.893        1.853      868.420
01/13/2015  02:11:00      -55.321      -15.483       -2.563       21.396       14.653       12.621      457.778      214.698      159.293        0.207        0.042       57.447        7.946        0.019      332.947        1.943      868.402
01/13/2015  02:12:00      -74.958      -23.407       -5.607       11.242       14.009        7.470      126.391      196.254       55.802        0.329        0.019       78.528        5.337        0.005      333.038        2.090      868.377
01/13/2015  02:13:00      -84.900      -18.474      -10.451       15.779       15.806        9.987      248.984      249.816       99.733        0.413        0.030       86.886        6.300        0.005      332.973        1.984      868.359
01/13/2015  02:14:00      -89.852       -3.575      -10.458       18.020       18.127       16.769      324.731      328.606      281.202        0.456        0.047       89.923        8.562        0.009      332.765        1.640      868.357
01/13/2015  02:15:00      -49.170      -17.354       -9.741       15.228        9.615        8.243      231.884       92.439       67.945        0.160        0.020       52.143        4.190        0.006      332.824        1.741      868.372
01/13/2015  02:16:00      -26.414      -13.260       -7.340        8.172        9.311        9.333       66.782       86.686       87.106        0.058        0.012       29.556        5.351        0.033      332.939        1.931      868.396
01/13/2015  02:17:00      -15.115       -5.273       -1.074        6.876        9.549        9.902       47.275       91.188       98.043        0.025        0.012       16.008        6.676        0.174      332.993        2.018      868.412
01/13/2015  02:18:00      -33.519        5.250       -5.115        6.999        8.505        6.663       48.983       72.330       44.391        0.067        0.008       33.928        4.443        0.017      333.071        2.147      868.418
01/13/2015  02:19:00       -8.101      -11.747       -2.828       14.813        5.998        5.387      219.429       35.972       29.025        0.025        0.014       14.269        4.536        0.101      333.057        2.123      868.421
01/13/2015  02:20:00      -16.870      -20.856       -3.133       15.200        7.862        4.800      231.034       61.807       23.041        0.052        0.016       26.824        3.342        0.016      332.972        1.983      868.418
01/13/2015  02:21:00      -23.130       -9.955       -0.975       12.197        7.233        6.634      148.766       52.314       44.005        0.044        0.012       25.181        5.752        0.052      332.969        1.978      868.425
01/13/2015  02:22:00      -31.507      -10.949       -4.964        7.536        9.053        6.191       56.795       81.965       38.323        0.066        0.009       33.355        2.606        0.006      332.988        2.009      868.446
01/13/2015  02:23:00      -34.902      -12.852       -3.356        6.981        6.628        6.340       48.738       43.925       40.192        0.076        0.007       37.193        3.360        0.008      332.952        1.950      868.461
01/13/2015  02:24:00      -36.827      -15.617       -3.977        7.815        6.947        7.867       61.070       48.255       61.890        0.089        0.009       40.002        4.742        0.014      332.935        1.923      868.478
01/13/2015  02:25:00      -28.035      -13.351       -6.174        9.302        6.688        5.773       86.533       44.728       33.330        0.058        0.008       31.052        4.012        0.017      332.855        1.790      868.496
01/13/2015  02:26:00      -48.013       -1.717      -11.203        7.780        5.552        7.362       60.523       30.828       54.205        0.129        0.007       48.044        3.753        0.006      332.856        1.792      868.510
01/13/2015  02:27:00      -66.368       -2.576       -8.076       12.746       15.771       10.332      162.468      248.739      106.741        0.250        0.026       66.418        8.387        0.016      332.850        1.782      868.520
01/13/2015  02:28:00      -92.780      -13.482       -5.708       24.016       16.621       14.745      576.755      276.256      217.416        0.495        0.054       93.754       12.123        0.017      332.781        1.668      868.511
01/13/2015  02:29:00     -101.239      -49.767       -2.374       15.897       15.820       10.698      252.706      250.276      114.450        0.667        0.031      112.810        8.773        0.006      332.810        1.717      868.497
01/13/2015  02:30:00      -98.260      -10.860       -7.198       14.519       17.215       10.081      210.796      296.346      101.635        0.522        0.030       98.858        7.394        0.006      332.792        1.686      868.486
01/13/2015  02:31:00      -54.303        3.948        0.299       24.100       19.372       11.655      580.798      375.276      135.835        0.203        0.055       54.446        8.635        0.025      332.799        1.697      868.489
01/13/2015  02:32:00      -46.408       16.856      -10.259        9.163       12.023        9.087       83.953      144.558       82.570        0.143        0.016       49.374        3.429        0.005      332.818        1.729      868.493
01/13/2015  02:33:00      -86.611      -23.235       -7.322       16.775       27.091        8.391      281.400      733.933       70.416        0.459        0.054       89.673        4.879        0.003      332.892        1.851      868.487
01/13/2015  02:34:00     -103.445      -58.599       -4.091       16.220       14.413        9.509      263.090      207.743       90.422        0.736        0.028      118.890        6.730        0.003      332.775        1.658      868.461
01/13/2015  02:35:00     -121.664      -46.619       -8.909       18.269       23.291       14.128      333.739      542.453      199.599        0.907        0.054      130.290        7.172        0.003      332.763        1.638      868.442
01/13/2015  02:36:00     -106.856      -45.965       -6.907       27.098       25.208       16.926      734.326      635.466      286.494        0.762        0.083      116.323       15.353        0.017      332.743        1.604      868.420
01/13/2015  02:37:00      -62.714      -52.173        3.107       37.344       19.987       20.004     1394.580      399.461      400.149        0.443        0.110       81.578       18.653        0.052      332.751        1.618      868.409
01/13/2015  02:38:00      -97.727      -43.332       -2.282       36.790       26.417       15.141     1353.510      697.843      229.252        0.686        0.114      106.903       16.018        0.022      332.899        1.863      868.419
01/13/2015  02:39:00      -88.065      -38.655       -5.087       14.209       14.218        9.487      201.890      202.162       89.994        0.488        0.025       96.175        6.366        0.004      332.858        1.795      868.432
01/13/2015  02:40:00      -81.223      -14.329       -8.925       19.875       16.312       13.484      395.022      266.069      181.816        0.386        0.042       82.478       10.030        0.015      332.899        1.863      868.447
01/13/2015  02:41:00      -68.226      -43.049        1.586       25.180       17.245       17.203      634.027      297.395      295.927        0.387        0.061       80.672       14.907        0.034      332.898        1.861      868.452
01/13/2015  02:42:00      -58.191      -33.704        6.356       25.994       17.527       18.687      675.700      307.189      349.193        0.295        0.067       67.248       16.542        0.061      332.804        1.706      868.451
01/13/2015  02:43:00     -114.068      -59.658       -4.265       28.419       26.808       12.652      807.667      718.695      160.085        0.914        0.084      128.727       10.590        0.007      332.808        1.713      868.448
01/13/2015  02:44:00     -113.417      -46.137        0.495       20.766       20.372       14.392      431.242      415.004      207.133        0.802        0.053      122.442        9.950        0.007      332.778        1.662      868.451
01/13/2015  02:45:00      -62.466      -43.708        4.090       33.165       18.702       15.380     1099.912      349.756      236.555        0.376        0.084       76.239       15.222        0.040      332.724        1.573      868.449
01/13/2015  02:46:00      -93.505      -51.396       -6.513       30.192       18.967       15.886      911.582      359.738      252.374        0.648        0.076      106.699       16.576        0.024      332.790        1.684      868.447
01/13/2015  02:47:00      -86.319      -47.065       -3.394       13.399       12.868        8.769      179.530      165.587       76.899        0.505        0.021       98.316        5.114        0.003      332.832        1.753      868.449
01/13/2015  02:48:00      -68.882      -39.673       -3.425       21.968       16.652       14.058      482.606      277.281      197.625        0.364        0.048       79.490       11.822        0.022      332.841        1.767      868.457
01/13/2015  02:49:00      -94.161      -20.050       -8.616       13.982       16.581        9.634      195.491      274.924       92.805        0.495        0.028       96.272        4.871        0.003      332.803        1.706      868.452
01/13/2015  02:50:00     -123.278      -29.696       -9.920       21.061       19.959        9.678      443.566      398.358       93.660        0.856        0.047      126.804        7.046        0.003      332.752        1.620      868.438
01/13/2015  02:51:00     -117.386      -39.150      -12.510       18.150       15.116       13.348      329.434      228.481      178.157        0.810        0.037      123.742        7.369        0.004      332.702        1.536      868.420
01/13/2015  02:52:00      -91.199      -15.217       -5.983       24.074       23.119       17.135      579.581      534.474      293.605        0.500        0.070       92.460       13.533        0.021      332.584        1.341      868.411
01/13/2015  02:53:00     -109.196       10.290       -8.496       31.658       23.271       17.875     1002.220      541.541      319.509        0.698        0.093      109.680       12.824        0.014      332.728        1.579      868.412
01/13/2015  02:54:00      -93.618      -15.890       -4.790       22.293       17.729       15.195      496.958      314.323      230.877        0.504        0.052       94.957       10.096        0.011      332.665        1.475      868.402
01/13/2015  02:55:00      -83.284      -23.851      -11.811       12.505        9.651        7.687      156.372       93.140       59.091        0.398        0.015       86.632        3.538        0.002      332.650        1.452      868.399
01/13/2015  02:56:00      -97.220      -21.618      -11.575       11.805       12.264        8.981      139.350      150.410       80.662        0.521        0.019       99.594        4.905        0.002      332.738        1.597      868.397
01/13/2015  02:57:00     -106.741      -26.557      -12.352       15.403       13.505       10.563      237.253      182.373      111.569        0.639        0.027      109.995        7.423        0.005      332.730        1.584      868.397
01/13/2015  02:58:00      -92.576      -14.286      -10.940       22.791       20.582       16.012      519.424      423.626      256.397        0.505        0.060       93.672       11.720        0.016      332.723        1.571      868.391
01/13/2015  02:59:00      -92.375      -28.431       -5.484       17.850       14.427       13.030      318.627      208.150      169.794        0.503        0.035       96.651       12.012        0.015      332.688        1.513      868.395
01/13/2015  03:00:00      -68.160      -26.123       -5.149       15.600       11.580       12.188      243.372      134.106      148.538        0.294        0.026       72.994        9.444        0.017      332.630        1.418      868.390
01/13/2015  03:01:00      -39.884      -19.041       -3.807       28.293       18.763       10.297      800.516      352.049      106.033        0.161        0.063       44.196       15.383        0.121      332.576        1.328      868.393
01/13/2015  03:02:00      -27.343      -16.542        3.247       16.325       18.178       10.402      266.501      330.448      108.207        0.087        0.035       31.957        9.852        0.095      332.613        1.390      868.400
01/13/2015  03:03:00      -56.739      -19.871        2.055       41.955       24.288       16.247     1760.204      589.899      263.975        0.312        0.131       60.118       18.994        0.100      332.577        1.329      868.412
01/13/2015  03:04:00      -89.686       -8.166       -4.123       53.235       30.859       22.919     2834.015      952.249      525.267        0.622        0.216       90.057       27.187        0.091      332.618        1.397      868.416
01/13/2015  03:05:00     -101.832      -42.697       -9.279       24.253       15.183       12.324      588.205      230.528      151.871        0.662        0.049      110.421        4.722        0.002      332.612        1.388      868.419
01/13/2015  03:06:00      -91.374       -5.718       -6.038       46.869       24.946       16.216     2196.679      622.313      262.950        0.575        0.154       91.553       18.784        0.042      332.765        1.641      868.415
01/13/2015  03:07:00      -83.935      -10.860       -4.355       36.961       36.472       21.339     1366.083     1330.226      455.359        0.517        0.158       84.634       16.296        0.037      332.715        1.557      868.409
01/13/2015  03:08:00     -100.667      -16.656       -8.209       37.659       34.611       19.587     1418.207     1197.950      383.670        0.674        0.150      102.035       18.881        0.034      332.589        1.350      868.406
01/13/2015  03:09:00     -108.046      -45.127       -4.435       23.076       27.454       17.139      532.489      753.726      293.750        0.765        0.079      117.091       12.808        0.012      332.501        1.206      868.412
01/13/2015  03:10:00     -125.806      -43.089       -3.100       36.732       38.932       21.617     1349.218     1515.663      467.309        1.051        0.167      132.981       15.890        0.014      332.506        1.211      868.420
01/13/2015  03:11:00     -157.497       -3.519      -16.235       49.242       30.041       24.518     2424.738      902.446      601.146        1.450        0.196      157.536       28.173        0.032      332.543        1.273      868.428
01/13/2015  03:12:00     -158.033      -14.252      -13.452       54.805       39.620       24.592     3003.566     1569.736      604.763        1.527        0.259      158.675       26.938        0.029      332.577        1.329      868.431
01/13/2015  03:13:00     -137.096        0.552       -6.920       42.043       51.172       24.639     1767.609     2618.559      607.062        1.192        0.250      137.097       23.541        0.029      332.512        1.222      868.430
01/13/2015  03:14:00     -151.406      -24.039      -13.479       41.084       36.461       26.815     1687.903     1329.378      719.040        1.371        0.187      153.303       25.514        0.028      332.563        1.306      868.426
01/13/2015  03:15:00      -96.470      -15.076       -3.095       36.370       41.094       25.473     1322.804     1688.700      648.879        0.660        0.183       97.641       22.197        0.052      332.443        1.109      868.423
01/13/2015  03:16:00     -124.830        7.497      -13.589       24.492       36.780       17.989      599.869     1352.762      323.621        0.905        0.114      125.055       10.183        0.007      332.611        1.387      868.435
01/13/2015  03:17:00      -79.725       21.109      -16.742       29.007       32.646       17.762      841.426     1065.751      315.491        0.465        0.111       82.473       14.704        0.032      332.641        1.436      868.443
01/13/2015  03:18:00      -85.115       -2.123       -7.089       32.760       29.151       20.388     1073.226      849.804      415.662        0.482        0.117       85.141       19.943        0.055      332.715        1.559      868.449
01/13/2015  03:19:00      -74.156      -37.690        5.090       26.336       36.712       17.854      693.570     1347.789      318.767        0.465        0.118       83.184       15.359        0.034      332.737        1.596      868.435
01/13/2015  03:20:00      -94.026      -37.332       -1.709       25.985       26.610       17.090      675.196      708.085      292.078        0.596        0.084      101.166       13.868        0.019      332.669        1.482      868.417
01/13/2015  03:21:00     -119.856      -11.949      -10.968       39.719       29.237       18.369     1577.569      854.778      337.431        0.870        0.138      120.450       22.527        0.035      332.635        1.426      868.395
01/13/2015  03:22:00     -165.507        6.951      -16.795       36.606       19.861       16.014     1340.035      394.465      256.434        1.486        0.100      165.653       17.426        0.011      332.654        1.458      868.390
01/13/2015  03:23:00     -182.470       10.211      -19.213       26.447       29.753       17.809      699.454      885.252      317.163        1.784        0.095      182.756       16.889        0.009      332.668        1.480      868.394
01/13/2015  03:24:00     -166.241       -1.271      -15.433       30.348       26.652       18.624      921.020      710.333      346.846        1.493        0.099      166.246       14.695        0.008      332.733        1.588      868.387
01/13/2015  03:25:00     -144.501       18.709      -18.631       27.403       23.505       16.108      750.918      552.488      259.459        1.157        0.078      145.707       11.799        0.007      332.695        1.525      868.382
01/13/2015  03:26:00     -139.962       21.881      -11.621       32.210       33.735       18.517     1037.495     1138.060      342.883        1.136        0.126      141.662       13.650        0.009      332.760        1.632      868.380
01/13/2015  03:27:00     -161.471       36.865      -18.878       42.619       31.404       20.940     1816.360      986.213      438.495        1.551        0.162      165.625       19.150        0.013      332.763        1.637      868.373
01/13/2015  03:28:00     -161.919       11.785      -23.933       32.697       28.555       17.412     1069.075      815.360      303.186        1.456        0.109      162.347       15.572        0.009      332.679        1.499      868.364
01/13/2015  03:29:00     -163.099       -8.948      -22.286       36.463       31.687       20.424     1329.573     1004.064      417.151        1.496        0.138      163.344       17.617        0.012      332.532        1.254      868.355
01/13/2015  03:30:00     -131.357       -7.465      -15.776       31.988       27.672       17.835     1023.261      765.758      318.073        0.983        0.105      131.569       14.731        0.013      332.492        1.188      868.336
01/13/2015  03:31:00     -116.702      -19.468      -14.558       38.862       27.573       17.587     1510.244      760.270      309.306        0.839        0.129      118.315       18.271        0.024      332.427        1.081      868.329
01/13/2015  03:32:00      -84.238       22.712       -9.847       35.856       40.012       20.232     1285.624     1600.959      409.319        0.550        0.165       87.246       16.016        0.034      332.447        1.115      868.333
01/13/2015  03:33:00      -77.864       27.070      -17.426       27.007       28.520       17.002      729.380      813.405      289.076        0.447        0.092       82.436        9.129        0.012      332.577        1.330      868.335
01/13/2015  03:34:00      -68.692        1.635      -13.486       18.429       19.485       15.164      339.627      379.661      229.950        0.293        0.047       68.711       13.161        0.037      332.715        1.558      868.327
01/13/2015  03:35:00      -72.735        0.578      -13.624       17.471       17.650       14.267      305.233      311.506      203.551        0.315        0.041       72.737        9.038        0.015      332.759        1.631      868.323
01/13/2015  03:36:00      -44.628       -0.044       -2.178       19.145       17.619       14.736      366.521      310.446      217.160        0.145        0.045       44.628        9.402        0.044      332.706        1.543      868.308
01/13/2015  03:37:00      -70.760       19.099      -10.185       34.292       26.609       15.918     1175.940      708.053      253.383        0.381        0.107       73.293       12.455        0.029      332.874        1.822      868.315
01/13/2015  03:38:00      -92.362       27.622      -16.397       31.880       32.250       16.207     1016.327     1040.045      262.679        0.594        0.116       96.404       12.749        0.017      333.146        2.269      868.331
01/13/2015  03:39:00      -78.431       20.085      -14.393       36.836       28.597       15.670     1356.867      817.777      245.546        0.459        0.121       80.962       18.041        0.050      333.189        2.341      868.339
01/13/2015  03:40:00      -58.356        0.629       -8.806       22.047       23.414       12.447      486.072      548.222      154.933        0.234        0.059       58.359        8.620        0.022      333.101        2.194      868.349
01/13/2015  03:41:00      -77.251      -29.244       -6.087       14.453       21.493       10.986      208.881      461.936      120.698        0.383        0.040       82.601        7.351        0.008      332.781        1.668      868.358
01/13/2015  03:42:00      -98.225      -19.082      -16.713       17.440       14.008       11.229      304.144      196.231      126.097        0.546        0.031      100.061        8.121        0.007      332.553        1.290      868.379
01/13/2015  03:43:00     -137.482      -48.404      -10.516       14.234       13.942        7.909      202.601      194.385       62.557        1.091        0.023      145.754        5.185        0.001      332.562        1.305      868.391
01/13/2015  03:44:00     -104.074      -45.740       -9.792       17.348       13.662       11.096      300.946      186.649      123.123        0.681        0.031      113.682        9.961        0.008      332.703        1.537      868.406
01/13/2015  03:45:00     -113.413      -41.648       -7.696       14.806       18.716       12.909      219.207      350.281      166.647        0.770        0.037      120.818        5.990        0.002      332.761        1.636      868.422
01/13/2015  03:46:00      -93.918      -18.491       -6.098       22.186       24.072       12.587      492.209      579.456      158.442        0.521        0.062       95.721       11.344        0.014      332.804        1.706      868.442
01/13/2015  03:47:00      -31.669      -28.014        3.593       29.261       16.706       13.765      856.218      279.081      189.463        0.156        0.066       42.281       15.342        0.132      332.866        1.808      868.464
01/13/2015  03:48:00       -8.104      -18.474      -11.029       22.652       20.942       13.262      513.112      438.550      175.893        0.083        0.056       20.173        5.142        0.065      332.973        1.985      868.480
01/13/2015  03:49:00      -13.841      -51.453      -13.945       25.408       17.290       18.397      645.588      298.942      338.455        0.216        0.064       53.282        9.399        0.031      333.051        2.113      868.480
01/13/2015  03:50:00      -27.588      -32.375       10.696       33.614       22.837       20.886     1129.903      521.543      436.245        0.201        0.104       42.535       14.355        0.114      332.945        1.939      868.480
01/13/2015  03:51:00       32.181      -35.451       11.730       32.529       41.937       31.645     1058.136     1758.707     1001.405        0.312        0.191       47.879       22.518        0.221      332.665        1.474      868.470
01/13/2015  03:52:00       25.513      -17.137        3.502       32.677       37.761       21.437     1067.792     1425.867      459.543        0.195        0.148       30.734       19.435        0.400      332.577        1.329      868.452
01/13/2015  03:53:00       -1.677       11.193       20.594       13.943       14.719       16.956      194.402      216.643      287.496        0.063        0.035       11.318       10.857        0.920      332.586        1.345      868.440
01/13/2015  03:54:00       -1.620       33.638       50.299       19.800       20.097       11.876      392.052      403.895      141.049        0.230        0.047       33.677       12.454        0.137      332.598        1.365      868.436
01/13/2015  03:55:00        6.141       15.928       34.495       14.796       23.973       14.135      218.926      574.716      199.790        0.124        0.050       17.071       15.181        0.791      332.528        1.250      868.428
01/13/2015  03:56:00        4.195       28.046       44.406       17.307       23.256       23.370      299.516      540.841      546.156        0.208        0.069       28.358       21.127        0.555      332.475        1.162      868.412
01/13/2015  03:57:00       22.269        0.639       30.913       28.479       48.554       28.570      811.079     2357.530      816.251        0.272        0.199       22.278       30.486        1.873      332.367        0.983      868.402
01/13/2015  03:58:00       11.416       15.271       60.614       25.200       31.492       16.475      635.052      991.773      271.421        0.297        0.095       19.066       12.983        0.464      332.406        1.048      868.392
01/13/2015  03:59:00       15.759       49.921       59.034       29.490       43.938       25.962      869.648     1930.543      674.020        0.485        0.174       52.350       17.640        0.114      332.352        0.958      868.393
01/13/2015  04:00:00       10.154      -40.947       27.107       23.819       46.538       21.109      567.346     2165.802      445.579        0.285        0.159       42.187       15.822        0.141      332.332        0.925      868.390
01/13/2015  04:01:00       12.025      -23.536       18.112       23.422       37.285       22.605      548.568     1390.148      511.006        0.174        0.122       26.430       24.466        0.857      332.282        0.843      868.384
01/13/2015  04:02:00       16.169      -25.263       16.077       31.351       44.433       34.282      982.903     1974.310     1175.243        0.264        0.207       29.994       25.868        0.744      332.243        0.780      868.376
01/13/2015  04:03:00       17.251      -10.099       29.137       25.899       45.280       28.731      670.736     2050.243      825.452        0.240        0.177       19.989       26.525        1.761      332.236        0.768      868.377
01/13/2015  04:04:00       39.614      -57.273        5.163       25.005       30.465       23.528      625.263      928.086      553.559        0.349        0.105       69.638       16.220        0.054      332.255        0.800      868.374
01/13/2015  04:05:00       44.354      -59.145       -0.803       28.462       34.845       21.368      810.074     1214.150      456.597        0.397        0.124       73.928       15.594        0.044      332.239        0.775      868.390
01/13/2015  04:06:00       48.168      -29.418        5.557       29.167       26.702       23.598      850.741      712.994      556.866        0.267        0.106       56.441       19.862        0.124      332.199        0.708      868.419
01/13/2015  04:07:00       10.420      -19.146       12.182       16.248       23.326       17.186      264.005      544.121      295.372        0.086        0.055       21.798       14.178        0.423      332.220        0.743      868.428
01/13/2015  04:08:00       26.497      -29.723        4.232       22.947       19.551       19.576      526.583      382.253      383.229        0.145        0.065       39.819       17.599        0.195      332.240        0.776      868.424
01/13/2015  04:09:00       14.097       -8.284       13.599       15.622       14.094       14.266      244.040      198.634      203.516        0.055        0.032       16.351        9.983        0.373      332.292        0.859      868.416
01/13/2015  04:10:00       -2.617        1.601       10.986        9.605        9.310       11.143       92.262       86.682      124.161        0.022        0.015        3.067        8.686        8.019      332.259        0.805      868.419
01/13/2015  04:11:00      -27.338       -3.142       -2.627       19.496       13.520        7.995      380.076      182.782       63.922        0.070        0.031       27.518        2.621        0.009      332.269        0.820      868.419
01/13/2015  04:12:00      -26.341       10.347       -0.546       10.900       16.470       11.121      118.800      271.257      123.683        0.066        0.026       28.301        7.435        0.069      332.242        0.779      868.413
01/13/2015  04:13:00      -36.970       -5.462       -0.181        8.492        9.234        6.037       72.121       85.272       36.448        0.080        0.010       37.372        2.687        0.005      332.266        0.817      868.412
01/13/2015  04:14:00      -33.969      -23.159       -8.194       18.186        7.837        5.761      330.731       61.413       33.190        0.109        0.021       41.113        4.030        0.010      332.312        0.893      868.418
01/13/2015  04:15:00      -10.525      -19.952       -4.995       22.182       12.942        7.349      492.057      167.499       54.009        0.062        0.036       22.558        5.648        0.063      332.347        0.948      868.404
01/13/2015  04:16:00      -37.410       -2.710       -1.441       15.006       12.048        7.899      225.170      145.151       62.397        0.092        0.022       37.508        3.172        0.007      332.324        0.913      868.381
01/13/2015  04:17:00       -1.837        9.416       14.862       21.802       13.670       16.001      475.319      186.867      256.046        0.062        0.046        9.594       16.386        2.917      332.304        0.880      868.366
01/13/2015  04:18:00       20.628       23.632       14.369       11.015       13.331       16.208      121.324      177.711      262.690        0.088        0.028       31.369       13.806        0.194      332.326        0.914      868.362
01/13/2015  04:19:00       25.011       42.592       15.597       21.279       13.441       16.668      452.801      180.665      277.832        0.180        0.046       49.392       14.829        0.090      332.368        0.983      868.358
01/13/2015  04:20:00       31.972       11.737       19.468       15.500       16.750       11.912      240.257      280.560      141.903        0.110        0.033       34.059        7.052        0.043      332.313        0.893      868.367
01/13/2015  04:21:00       43.416      -12.773        8.777       23.797       24.060       19.213      566.313      578.884      369.129        0.182        0.076       45.256       17.591        0.151      332.453        1.125      868.375
01/13/2015  04:22:00       19.003      -31.334       -2.947       25.218       26.086       21.700      635.934      680.463      470.875        0.157        0.089       36.646       22.237        0.368      332.455        1.129      868.389
01/13/2015  04:23:00      -33.217      -28.149        1.680       24.121       17.225       14.629      581.804      296.705      214.018        0.150        0.055       43.541       14.512        0.111      332.315        0.897      868.397
01/13/2015  04:24:00      -18.313      -17.336        9.019       28.837       15.093       15.125      831.551      227.789      228.762        0.100        0.064       25.217       15.644        0.385      332.348        0.952      868.393
01/13/2015  04:25:00      -48.828      -46.775        0.659       27.371       24.276       18.407      749.193      589.333      338.801        0.312        0.084       67.617       11.346        0.028      332.285        0.850      868.385
01/13/2015  04:26:00      -67.908      -54.453       -1.289       35.799       24.942       18.247     1281.601      622.121      332.961        0.491        0.112       87.044       16.421        0.036      332.262        0.810      868.372
01/13/2015  04:27:00      -83.146      -35.412       -4.862       20.999       17.070       16.700      440.974      291.379      278.886        0.460        0.051       90.373       11.752        0.017      332.190        0.692      868.365
01/13/2015  04:28:00      -63.647      -28.536        2.793       26.073       22.594       14.552      679.813      510.475      211.755        0.314        0.070       69.752       13.572        0.038      332.160        0.642      868.367
01/13/2015  04:29:00      -95.862      -19.584       -2.803       24.225       16.915       14.778      586.832      286.128      218.393        0.534        0.055       97.842        9.422        0.009      332.087        0.522      868.368
01/13/2015  04:30:00     -122.960      -24.850      -13.545       13.168       11.419       12.589      173.409      130.398      158.474        0.819        0.023      125.446        7.876        0.004      332.113        0.566      868.354
01/13/2015  04:31:00     -117.538      -26.144      -17.001       13.574       19.659        9.968      184.247      386.474       99.356        0.773        0.034      120.411        7.272        0.004      332.183        0.681      868.335
01/13/2015  04:32:00     -127.601      -38.466      -12.085       20.671       27.768       13.243      427.309      771.045      175.377        0.964        0.069      133.273        3.718        0.001      332.200        0.707      868.320
01/13/2015  04:33:00     -144.353      -49.638      -11.307       47.454       34.567       19.980     2251.869     1194.876      399.217        1.364        0.192      152.650       18.576        0.015      332.164        0.649      868.297
01/13/2015  04:34:00     -133.046      -16.902       -6.221       37.607       35.419       26.749     1414.276     1254.509      715.505        1.070        0.169      134.116       23.450        0.031      332.090        0.527      868.279
01/13/2015  04:35:00     -121.899        7.463        0.056       51.940       38.207       27.794     2697.726     1459.761      772.481        0.992        0.246      122.127       23.016        0.036      332.051        0.462      868.272
01/13/2015  04:36:00     -154.517       20.075      -10.904       34.447       41.940       19.843     1186.610     1759.001      393.732        1.387        0.167      155.816       13.803        0.008      332.041        0.445      868.270
01/13/2015  04:37:00     -177.320       37.171      -11.616       35.784       25.480       18.114     1280.504      649.238      328.101        1.761        0.113      181.175       12.978        0.005      332.082        0.514      868.274
01/13/2015  04:38:00     -145.157        3.710      -12.389       44.796       29.042       21.606     2006.643      843.409      466.821        1.228        0.166      145.205       22.281        0.024      332.100        0.543      868.280
01/13/2015  04:39:00      -69.253      -23.667       -0.420       36.309       28.373       21.309     1318.340      805.004      454.070        0.397        0.129       73.185       21.032        0.083      332.132        0.595      868.297
01/13/2015  04:40:00     -110.506      -24.408       -2.528       27.365       32.377       23.109      748.832     1048.297      534.048        0.757        0.117      113.169       16.482        0.021      332.078        0.508      868.308
01/13/2015  04:41:00     -133.037      -10.997      -19.325       19.864       22.053       15.443      394.596      486.315      238.495        0.966        0.056      133.491        8.635        0.004      332.123        0.580      868.315
01/13/2015  04:42:00     -106.498      -33.129      -11.678       34.753       32.755       19.791     1207.803     1072.898      391.690        0.762        0.134      111.532       15.737        0.020      332.152        0.629      868.328
01/13/2015  04:43:00     -103.504      -22.885       -5.773       19.056       28.490       13.175      363.138      811.684      173.575        0.631        0.067      106.004       11.113        0.011      332.145        0.619      868.340
01/13/2015  04:44:00      -64.804      -45.258       -0.064       30.323       17.865       18.716      919.503      319.146      350.293        0.392        0.079       79.043       15.588        0.039      332.185        0.683      868.337
01/13/2015  04:45:00      -53.077      -20.747       -0.635       24.753       16.993        8.643      612.693      288.752       74.707        0.211        0.049       56.988        6.046        0.011      332.150        0.625      868.339
01/13/2015  04:46:00      -60.275      -10.970       -8.849       13.282       12.623        9.178      176.404      159.331       84.238        0.213        0.021       61.265        5.649        0.009      332.162        0.644      868.342
01/13/2015  04:47:00      -53.902      -16.986       -3.510       10.367       11.044        8.858      107.471      121.976       78.462        0.176        0.015       56.515        1.937        0.001      332.232        0.761      868.345
01/13/2015  04:48:00      -76.645       -5.425       -5.946       17.487       14.709       11.459      305.789      216.346      131.314        0.330        0.033       76.836        2.248        0.001      332.276        0.833      868.335
01/13/2015  04:49:00      -99.543      -19.912       -6.633       21.764       15.118       12.975      473.666      228.551      168.349        0.561        0.044      101.515       12.558        0.015      332.227        0.754      868.326
01/13/2015  04:50:00     -109.615      -12.019       -4.116       25.434       12.844       14.094      646.891      164.974      198.647        0.659        0.051      110.272       13.332        0.015      332.166        0.652      868.327
01/13/2015  04:51:00     -112.631      -12.869       -6.924       22.030       15.956       16.084      485.309      254.600      258.694        0.695        0.050      113.364       11.248        0.010      332.150        0.625      868.320
01/13/2015  04:52:00     -123.055       -6.740      -10.770       13.042       11.243        8.324      170.097      126.398       69.281        0.783        0.018      123.239        6.055        0.002      332.123        0.581      868.328
01/13/2015  04:53:00     -108.946      -10.222      -12.921       21.736       16.979       11.455      472.441      288.301      131.213        0.652        0.045      109.424        7.361        0.005      332.179        0.673      868.336
01/13/2015  04:54:00      -41.778       -8.380        4.197       21.627       21.236       15.735      467.748      450.987      247.587        0.150        0.058       42.610       11.706        0.075      332.266        0.817      868.344
01/13/2015  04:55:00      -82.456      -21.367       -5.255       18.441       21.058       17.087      340.054      443.441      291.959        0.418        0.054       85.180       14.522        0.029      332.194        0.698      868.351
01/13/2015  04:56:00      -70.132      -34.370       -9.323       18.679       21.447       12.891      348.910      459.988      166.173        0.358        0.049       78.101        8.998        0.013      332.206        0.718      868.355
01/13/2015  04:57:00      -85.132      -27.607       -5.491       29.021       22.083       11.899      842.230      487.660      141.590        0.476        0.074       89.497       14.591        0.027      332.278        0.837      868.360
01/13/2015  04:58:00      -75.266      -35.886       -8.802       14.515       15.615       10.711      210.698      243.822      114.720        0.380        0.028       83.383        8.012        0.009      332.188        0.690      868.366
01/13/2015  04:59:00      -69.439      -42.134       -5.288       18.387       18.886       12.080      338.096      356.692      145.922        0.373        0.042       81.223        6.573        0.007      332.268        0.821      868.368
01/13/2015  05:00:00      -77.950      -26.616      -10.704       17.944       15.742       19.770      321.973      247.804      390.869        0.393        0.048       82.369       13.917        0.029      332.264        0.812      868.382
01/13/2015  05:01:00      -66.195        2.655       -7.543       26.969       24.828       15.015      727.317      616.431      225.457        0.301        0.078       66.248       11.798        0.032      332.279        0.837      868.388
01/13/2015  05:02:00      -59.931       28.865      -15.975       15.981       20.539        8.940      255.377      421.848       79.922        0.272        0.038       66.520        6.512        0.010      332.365        0.979      868.393
01/13/2015  05:03:00      -38.938       13.504       -6.322       16.065       23.222       14.545      258.069      539.255      211.547        0.137        0.050       41.213        9.342        0.051      332.388        1.019      868.397
01/13/2015  05:04:00      -57.987       23.681      -13.200       15.061       22.453       12.214      226.824      504.133      149.190        0.249        0.044       62.636        8.007        0.016      332.391        1.022      868.390
01/13/2015  05:05:00      -54.594        9.096       -6.524       19.836       25.337       10.129      393.474      641.970      102.607        0.212        0.057       55.347       11.356        0.042      332.364        0.979      868.374
01/13/2015  05:06:00      -56.761      -11.940       -6.882       20.419       18.737       11.660      416.944      351.074      135.945        0.216        0.045       58.003       10.293        0.031      332.311        0.890      868.352
01/13/2015  05:07:00      -40.424       -5.677       -2.332       18.097       18.642       11.941      327.485      347.507      142.581        0.124        0.041       40.820       11.315        0.077      332.325        0.913      868.328
01/13/2015  05:08:00      -26.531       -8.070        0.791       24.635       21.546       10.290      606.870      464.248      105.889        0.097        0.059       27.731       11.156        0.162      332.435        1.094      868.302
01/13/2015  05:09:00      -58.492      -29.456        2.632       24.035       24.518       18.309      577.670      601.120      335.236        0.290        0.076       65.490        6.705        0.010      332.334        0.929      868.278
01/13/2015  05:10:00      -57.569       -8.919       -4.147       20.130       21.889       12.139      405.198      479.136      147.355        0.222        0.052       58.255       11.934        0.042      332.295        0.865      868.266
01/13/2015  05:11:00      -50.994      -17.907       -3.121       20.913       12.464       10.483      437.337      155.344      109.884        0.182        0.035       54.047        4.642        0.007      332.291        0.858      868.266
01/13/2015  05:12:00      -33.311      -19.637       -6.872       10.248       11.744       11.205      105.013      137.915      125.557        0.096        0.018       38.669        6.855        0.031      332.423        1.075      868.267
01/13/2015  05:13:00      -42.085       -9.094       -5.205       17.032       14.123        9.212      290.099      199.461       84.861        0.123        0.029       43.056        3.700        0.007      332.456        1.131      868.273
01/13/2015  05:14:00      -53.734      -19.095       -1.682       13.120       14.011        9.952      172.137      196.295       99.043        0.186        0.023       57.025        6.560        0.013      332.472        1.157      868.271
01/13/2015  05:15:00      -39.137       -5.142       -5.251       11.071        8.330        7.845      122.576       69.393       61.537        0.092        0.013       39.474        4.744        0.014      332.459        1.137      868.272
01/13/2015  05:16:00      -15.994        4.524       -1.460        9.629        7.212        7.861       92.718       52.019       61.791        0.024        0.010       16.621        2.947        0.031      332.457        1.131      868.269
01/13/2015  05:17:00      -23.626        1.312        0.654        8.529        6.836        7.398       72.752       46.729       54.732        0.037        0.009       23.663        2.794        0.014      332.420        1.071      868.275
01/13/2015  05:18:00      -23.800       -2.170       -4.946        5.409        4.995        6.049       29.252       24.954       36.594        0.034        0.005       23.899        1.613        0.005      332.499        1.200      868.275
01/13/2015  05:19:00      -27.571       -3.874       -4.342        8.392        7.835        7.109       70.419       61.389       50.541        0.049        0.009       27.842        5.463        0.038      332.496        1.195      868.270
01/13/2015  05:20:00      -22.246       -0.642        1.411        7.921        4.596        7.046       62.738       21.124       49.648        0.032        0.007       22.255        2.682        0.015      332.543        1.274      868.266
01/13/2015  05:21:00      -13.210       -1.698        5.693        7.837        3.851        5.311       61.416       14.828       28.207        0.016        0.005       13.319        4.791        0.129      332.582        1.340      868.271
01/13/2015  05:22:00       -2.039       -6.532        4.314        7.115        6.438        5.186       50.629       41.441       26.890        0.009        0.006        6.843        3.548        0.269      332.633        1.421      868.266
01/13/2015  05:23:00      -37.850       -0.691        3.307       16.531        8.733        7.713      273.262       76.257       59.496        0.093        0.020       37.856        3.120        0.007      332.583        1.341      868.266
01/13/2015  05:24:00      -45.429      -17.662       -1.066       21.024       15.911       15.789      442.018      253.165      249.304        0.166        0.047       48.742       10.596        0.047      332.661        1.468      868.266
01/13/2015  05:25:00      -59.927      -13.154       -2.554       23.653       15.855        9.919      559.454      251.373       98.383        0.234        0.045       61.354       10.499        0.029      332.546        1.278      868.277
01/13/2015  05:26:00      -53.003       -2.830        1.594       23.635       12.086       13.224      558.632      146.079      174.887        0.185        0.044       53.078       13.996        0.070      332.538        1.265      868.291
01/13/2015  05:27:00      -55.128       -1.337       -3.864       20.874       13.251       11.757      435.723      175.594      138.228        0.190        0.037       55.144        8.164        0.022      332.544        1.276      868.307
01/13/2015  05:28:00      -37.881       -6.237        1.957       28.589       14.642       12.884      817.334      214.378      166.000        0.134        0.060       38.391       13.875        0.131      332.582        1.337      868.314
01/13/2015  05:29:00      -70.941       -4.162       -4.553       32.238       20.402       14.185     1039.291      416.247      201.206        0.336        0.083       71.063       11.237        0.025      332.546        1.279      868.319
01/13/2015  05:30:00      -40.102       -3.395       -3.886       22.671       17.797        9.209      513.966      316.739       84.803        0.127        0.046       40.245        9.138        0.052      332.529        1.251      868.317
01/13/2015  05:31:00      -11.270       -4.714       11.880       19.486       12.917       10.536      379.693      166.843      111.010        0.047        0.033       12.216       10.499        0.739      332.612        1.388      868.326
01/13/2015  05:32:00        6.163        2.527       10.707       10.469        8.829        8.777      109.597       77.950       77.032        0.021        0.013        6.661        6.806        1.044      332.644        1.442      868.348
01/13/2015  05:33:00        1.305       -2.682        9.939        4.806        4.051        4.239       23.096       16.409       17.967        0.008        0.003        2.982        1.078        0.131      332.748        1.614      868.355
01/13/2015  05:34:00      -20.856       -0.766        1.952        6.857        5.399        9.190       47.019       29.145       84.461        0.030        0.008       20.870        5.001        0.057      332.634        1.425      868.345
01/13/2015  05:35:00      -19.417        7.021       -5.263        8.210        7.019        5.327       67.409       49.272       28.374        0.030        0.007       20.647        4.289        0.043      332.637        1.429      868.341
01/13/2015  05:36:00       -7.587        9.371        3.885        6.491        6.285        7.175       42.137       39.497       51.478        0.015        0.007       12.057        6.007        0.248      332.696        1.526      868.343
01/13/2015  05:37:00        7.727       23.951        2.061        6.461        5.230        5.864       41.751       27.350       34.388        0.037        0.005       25.166        1.775        0.005      332.683        1.507      868.346
01/13/2015  05:38:00       12.676       18.725       -3.012        3.417        4.673        2.630       11.673       21.833        6.918        0.028        0.002       22.612        1.573        0.005      332.683        1.504      868.343
01/13/2015  05:39:00        9.815       12.365       -2.443        3.365        4.007        2.424       11.323       16.059        5.877        0.014        0.002       15.787        1.930        0.015      332.675        1.489      868.344
01/13/2015  05:40:00        1.585        8.584        2.406        2.815        3.496        2.827        7.924       12.224        7.990        0.006        0.001        8.729        1.921        0.048      332.729        1.576      868.349
01/13/2015  05:41:00       -0.698       14.750        5.804        4.352        4.374        2.939       18.938       19.131        8.637        0.015        0.002       14.766        2.996        0.041      332.743        1.604      868.356
01/13/2015  05:42:00      -23.576       26.153       -5.872        9.496        8.495        7.635       90.174       72.159       58.289        0.075        0.011       35.211        6.239        0.031      332.678        1.496      868.366
01/13/2015  05:43:00      -24.799       27.689       -3.455       15.446       12.273        7.580      238.589      150.623       57.462        0.092        0.022       37.171        5.680        0.023      332.750        1.617      868.367
01/13/2015  05:44:00      -46.886       41.617      -11.162       14.366       11.520        9.044      206.370      132.707       81.793        0.224        0.021       62.692        7.131        0.013      332.778        1.664      868.363
01/13/2015  05:45:00      -42.637       16.508       -0.649       19.695       14.578       10.315      387.909      212.531      106.406        0.140        0.035       45.721       10.663        0.054      332.769        1.648      868.353
01/13/2015  05:46:00      -56.282        6.564       -2.148       15.479       12.702       12.105      239.588      161.333      146.540        0.188        0.027       56.664       10.233        0.033      332.748        1.612      868.348
01/13/2015  05:47:00      -59.649      -17.621      -13.552       17.932       15.155        9.925      321.571      229.673       98.497        0.235        0.032       62.197       10.233        0.027      332.691        1.518      868.345
01/13/2015  05:48:00      -34.007       -5.789       -4.285       22.222       22.075       11.310      493.801      487.304      127.915        0.116        0.055       34.496       10.865        0.099      332.718        1.563      868.351
01/13/2015  05:49:00      -40.448       -1.018       -8.641       24.974       21.755       11.609      623.691      473.287      134.772        0.147        0.062       40.461       10.390        0.066      332.766        1.644      868.368
01/13/2015  05:50:00      -28.522        1.433       -4.982       19.598       21.292       14.045      384.073      453.354      197.272        0.094        0.052       28.558        9.806        0.118      332.790        1.684      868.380
01/13/2015  05:51:00      -25.295       -2.829       -8.687       15.179       18.903        9.842      230.402      357.327       96.872        0.070        0.034       25.453        6.758        0.070      332.813        1.723      868.395
01/13/2015  05:52:00      -11.501      -25.940       -8.261       18.658       10.473       10.172      348.135      109.679      103.473        0.072        0.028       28.376        9.043        0.102      332.887        1.843      868.409
01/13/2015  05:53:00      -21.765      -30.076      -12.558       15.888       16.373       13.844      252.416      268.071      191.651        0.112        0.036       37.125       10.054        0.073      332.907        1.876      868.418
01/13/2015  05:54:00      -29.384       -5.354       -4.862        9.274       10.900        9.764       86.006      118.806       95.329        0.061        0.015       29.868        6.417        0.046      332.861        1.801      868.422
01/13/2015  05:55:00      -24.927        4.313        3.448       10.417        8.024       10.549      108.521       64.389      111.271        0.047        0.014       25.297        9.052        0.128      332.862        1.803      868.418
01/13/2015  05:56:00      -22.550        8.834       -2.059        8.563        6.194        4.947       73.330       38.366       24.468        0.036        0.007       24.218        3.227        0.018      332.861        1.800      868.410
01/13/2015  05:57:00      -17.082       14.078       -4.694       10.687        9.157        5.723      114.216       83.853       32.756        0.037        0.012       22.136        3.735        0.028      332.880        1.835      868.397
01/13/2015  05:58:00      -24.934       26.297       -1.227       10.323        9.411        7.337      106.556       88.565       53.836        0.078        0.012       36.239        6.568        0.033      332.918        1.894      868.400
01/13/2015  05:59:00      -14.568       21.152        3.855       13.833       11.090       10.245      191.349      122.982      104.956        0.055        0.021       25.683        9.167        0.127      332.880        1.832      868.397
01/13/2015  06:00:00       17.486       30.075        3.550       21.040       12.465       11.019      442.673      155.375      121.429        0.097        0.036       34.789        8.011        0.053      332.801        1.701      868.401
01/13/2015  06:01:00       24.694       22.657       -2.057       14.782       10.206        7.180      218.520      104.163       51.558        0.075        0.019       33.513        4.942        0.022      332.767        1.644      868.396
01/13/2015  06:02:00       34.722       19.554        0.163        9.781       13.754       16.715       95.667      189.182      279.408        0.108        0.028       39.850       12.418        0.097      332.811        1.717      868.393
01/13/2015  06:03:00       10.146       21.979       30.053       17.350       17.904       12.877      301.033      320.542      165.808        0.114        0.039       24.208       11.052        0.208      332.725        1.575      868.396
01/13/2015  06:04:00       27.419       45.843       29.940       18.368       16.232       21.996      337.401      263.493      483.836        0.242        0.054       53.417       15.226        0.081      332.517        1.230      868.410
01/13/2015  06:05:00       35.712       47.164       30.111       19.238       20.947       26.951      370.082      438.788      726.370        0.297        0.077       59.159       10.186        0.030      332.463        1.143      868.418
01/13/2015  06:06:00       40.314       48.038       52.358       37.317       33.480       26.083     1392.549     1120.898      680.333        0.493        0.160       62.712       26.757        0.182      332.475        1.163      868.423
01/13/2015  06:07:00        6.226       33.380       45.005       26.392       41.651       25.369      696.539     1734.813      643.591        0.313        0.154       33.956       21.131        0.387      332.530        1.252      868.429
01/13/2015  06:08:00        5.280       15.998       51.436       20.743       26.064       18.094      430.277      679.358      327.383        0.218        0.072       16.846       10.438        0.384      332.584        1.341      868.444
01/13/2015  06:09:00       -0.555       31.343       51.013       20.182       31.821       22.305      407.311     1012.572      497.504        0.275        0.096       31.348       18.514        0.349      332.598        1.363      868.462
01/13/2015  06:10:00        4.831       22.358       55.081       17.153       26.051       13.900      294.215      678.654      193.214        0.236        0.058       22.874        8.972        0.154      332.641        1.436      868.490
01/13/2015  06:11:00       30.929      -35.399       32.049       37.718       53.783       38.858     1422.613     2892.626     1509.945        0.453        0.291       47.007       32.076        0.466      332.650        1.449      868.518
01/13/2015  06:12:00       53.076      -78.932        6.365       50.085       51.680       40.150     2508.502     2670.844     1611.991        0.794        0.340       95.118       31.328        0.108      332.561        1.303      868.548
01/13/2015  06:13:00       38.971      -34.280       28.469       45.720       48.257       37.067     2090.328     2328.752     1373.997        0.465        0.290       51.902       25.047        0.233      332.574        1.323      868.559
01/13/2015  06:14:00       73.852      -91.110      -21.562       47.343       53.142       31.828     2241.376     2824.112     1013.015        1.015        0.304      117.283       23.222        0.039      332.565        1.309      868.570
01/13/2015  06:15:00       65.826      -75.910        2.761       40.154       61.228       33.850     1612.378     3748.820     1145.826        0.830        0.325      100.475       38.958        0.150      332.585        1.343      868.575
01/13/2015  06:16:00       32.304      -46.254        9.587       46.831       58.916       36.456     2193.120     3471.087     1329.055        0.513        0.350       56.418       34.481        0.374      332.649        1.449      868.566
01/13/2015  06:17:00       25.920      -13.838       31.190       32.012       50.463       34.890     1024.743     2546.482     1217.282        0.331        0.239       29.383       31.417        1.143      332.674        1.491      868.558
01/13/2015  06:18:00       33.715      -14.973       42.231       28.662       55.833       27.726      821.534     3117.286      768.712        0.393        0.235       36.891       31.841        0.745      332.687        1.512      868.566
01/13/2015  06:19:00       17.087       -2.617       34.878       24.985       37.317       19.945      624.245     1392.550      397.797        0.196        0.121       17.286       11.138        0.415      332.682        1.502      868.576
01/13/2015  06:20:00       40.758      -69.752        1.272       33.727       48.199       31.050     1137.502     2323.096      964.077        0.548        0.221       80.787       28.683        0.126      332.737        1.593      868.581
01/13/2015  06:21:00       37.750      -42.641       11.370       29.356       48.694       40.352      861.752     2371.070     1628.304        0.412        0.243       56.950       29.983        0.277      332.725        1.574      868.573
01/13/2015  06:22:00       -0.109      -26.058       23.870       19.127       35.143       26.647      365.856     1235.019      710.040        0.178        0.116       26.058       21.352        0.671      332.782        1.668      868.571
01/13/2015  06:23:00       11.784      -52.737       -0.460       28.495       31.064       24.949      811.950      964.986      622.461        0.266        0.120       54.038       18.967        0.123      332.879        1.830      868.568
01/13/2015  06:24:00       26.475      -23.386       12.157       31.528       37.107       28.229      994.032     1376.935      796.879        0.228        0.158       35.325       26.396        0.558      332.866        1.808      868.567
01/13/2015  06:25:00        0.500       26.679       61.405       20.538       37.633       25.664      421.818     1416.248      658.622        0.349        0.125       26.684       26.939        1.019      332.781        1.668      868.574
01/13/2015  06:26:00       10.993       51.522       58.057       35.179       43.156       23.533     1237.542     1862.450      553.783        0.490        0.183       52.681       21.012        0.159      332.719        1.565      868.590
01/13/2015  06:27:00       34.788       74.315       80.020       40.305       30.026       29.187     1624.511      901.539      851.896        0.826        0.169       82.055       27.221        0.110      332.623        1.406      868.589
01/13/2015  06:28:00      111.686       63.016       25.056       28.588       29.582       29.993      817.302      875.108      899.605        0.983        0.130      128.237        7.225        0.003      332.498        1.199      868.584
01/13/2015  06:29:00       91.863       56.518       38.121       31.476       21.994       27.275      990.734      483.727      743.911        0.765        0.111      107.857       11.840        0.012      332.457        1.133      868.589
01/13/2015  06:30:00       93.232       54.093       30.932       33.447       27.283       30.013     1118.722      744.365      900.760        0.767        0.138      107.788       13.218        0.015      332.419        1.070      868.613
01/13/2015  06:31:00       94.093       39.473       25.343       45.612       39.295       32.753     2080.436     1544.105     1072.749        0.787        0.235      102.037       19.159        0.035      332.471        1.156      868.629
01/13/2015  06:32:00       94.258       66.451       41.750       32.980       28.430       31.062     1087.652      808.284      964.860        0.895        0.143      115.327       17.275        0.022      332.491        1.188      868.635
01/13/2015  06:33:00       81.524       35.605       16.218       39.705       28.286       23.043     1576.479      800.083      530.981        0.554        0.145       88.960       21.253        0.057      332.406        1.048      868.645
01/13/2015  06:34:00       87.366       44.768        5.499       20.262       18.837       17.290      410.530      354.823      298.953        0.537        0.053       98.169       12.925        0.017      332.373        0.992      868.669
01/13/2015  06:35:00       71.205       34.481       -1.536       21.948       16.761       19.656      481.693      280.944      386.353        0.371        0.057       79.115       11.335        0.021      332.358        0.970      868.692
01/13/2015  06:36:00       58.022       41.302        1.212       30.464       14.132       14.585      928.051      199.718      212.710        0.321        0.067       71.221       11.016        0.024      332.348        0.951      868.711
01/13/2015  06:37:00       17.413       32.867        2.720       18.145       24.105       22.278      329.232      581.043      496.308        0.140        0.070       37.195       15.835        0.181      332.401        1.038      868.721
01/13/2015  06:38:00       27.253       66.620       -3.342       15.006       25.350       14.875      225.190      642.608      221.251        0.314        0.054       71.979       15.060        0.044      332.382        1.008      868.724
01/13/2015  06:39:00        5.160       74.278       -0.935       19.014       27.308       23.082      361.528      745.753      532.795        0.359        0.082       74.457       17.397        0.055      332.347        0.950      868.724
01/13/2015  06:40:00       -0.816      100.772      -11.071       11.744       12.317        9.450      137.929      151.700       89.308        0.533        0.019      100.775        6.259        0.004      332.296        0.865      868.729
01/13/2015  06:41:00       11.435       98.160      -14.305        8.894       11.084        7.647       79.103      122.859       58.479        0.512        0.013       98.824        4.149        0.002      332.312        0.892      868.733
01/13/2015  06:42:00        5.302      104.444      -18.347        7.794        9.722        5.650       60.753       94.524       31.927        0.573        0.009      104.579        4.126        0.002      332.329        0.920      868.743
01/13/2015  06:43:00        5.152       94.178      -15.426        7.394       12.883        6.863       54.664      165.969       47.097        0.470        0.013       94.318        3.758        0.002      332.360        0.969      868.742
01/13/2015  06:44:00       13.319       86.057      -12.542       11.547       15.517        7.596      133.338      240.774       57.694        0.409        0.022       87.081        6.630        0.006      332.371        0.990      868.739
01/13/2015  06:45:00       12.546       90.153      -17.018        7.054       13.975        7.866       49.758      195.303       61.871        0.444        0.015       91.022        5.695        0.004      332.374        0.995      868.741
01/13/2015  06:46:00       16.948       52.251       -4.962       18.764       23.618       14.599      352.083      557.786      213.135        0.208        0.056       54.931       14.343        0.068      332.396        1.031      868.754
01/13/2015  06:47:00       19.091       42.143       -1.760       19.664       26.937       14.440      386.655      725.609      208.519        0.173        0.066       46.266       15.484        0.112      332.410        1.055      868.752
01/13/2015  06:48:00       10.646       66.450       -4.650       11.003       21.094       15.203      121.058      444.965      231.141        0.267        0.040       67.298        9.725        0.021      332.420        1.073      868.751
01/13/2015  06:49:00       31.006       60.209       -0.418       23.629       33.428       20.111      558.350     1117.463      404.464        0.333        0.104       67.723       19.046        0.079      332.431        1.089      868.763
01/13/2015  06:50:00       61.287       36.504        3.022       18.061       15.132       15.789      326.207      228.989      249.305        0.295        0.040       71.335        9.939        0.019      332.448        1.117      868.779
01/13/2015  06:51:00       87.685       55.929        7.467       29.578       16.800       20.981      874.873      282.242      440.212        0.623        0.080      104.004        4.319        0.002      332.434        1.094      868.784
01/13/2015  06:52:00       85.155       50.872       20.723       24.778       19.041       23.967      613.962      362.550      574.419        0.591        0.078       99.194       15.364        0.024      332.468        1.148      868.798
01/13/2015  06:53:00       64.170       37.039        5.685       20.320       16.454       14.974      412.897      270.739      224.234        0.321        0.045       74.092        7.077        0.009      332.409        1.053      868.806
01/13/2015  06:54:00       38.472       34.184        4.070       10.217       14.929       15.686      104.395      222.866      246.049        0.162        0.029       51.465        6.401        0.015      332.426        1.081      868.798
01/13/2015  06:55:00       17.406        2.389        2.764       12.423       10.947        5.464      154.337      119.847       29.856        0.031        0.015       17.569        7.648        0.189      332.378        1.000      868.793
01/13/2015  06:56:00      -12.546       20.751       -3.733       16.122       14.528        9.563      259.904      211.061       91.443        0.058        0.028       24.248       11.851        0.239      332.405        1.045      868.789
01/13/2015  06:57:00      -28.782       16.639       13.785       20.018       12.597       17.665      400.711      158.675      312.054        0.108        0.044       33.246       11.982        0.130      332.452        1.122      868.797
01/13/2015  06:58:00      -61.550       35.259       -7.625       13.154       17.712       12.904      173.036      313.726      166.507        0.287        0.033       70.934        8.967        0.016      332.457        1.134      868.832
01/13/2015  06:59:00        3.259       36.343        3.036       17.549       26.624       13.805      307.975      708.850      190.583        0.127        0.060       36.489       13.095        0.129      332.508        1.215      868.868
01/13/2015  07:00:00        0.568       62.890      -11.153        3.578        9.125        6.600       12.802       83.273       43.558        0.211        0.007       62.893        1.693        0.001      332.484        1.171      868.893
01/13/2015  07:01:00       -1.317       60.977       -9.416        9.519       10.979        7.074       90.605      120.534       50.046        0.203        0.013       60.991        5.988        0.010      332.495        1.193      868.913
01/13/2015  07:02:00      -15.978       84.384      -13.467       12.511       22.806       11.908      156.514      520.091      141.798        0.419        0.041       85.883        7.242        0.007      332.572        1.321      868.920
01/13/2015  07:03:00      -29.784       95.961      -13.605       18.347       20.148       14.298      336.604      405.926      204.433        0.561        0.047      100.477       10.030        0.010      332.638        1.430      868.929
01/13/2015  07:04:00      -16.084      116.101      -10.948        9.378       19.248        9.329       87.947      370.486       87.029        0.720        0.027      117.210        8.318        0.005      332.615        1.392      868.939
01/13/2015  07:05:00      -11.617      118.567      -15.935        9.723       18.169        9.705       94.536      330.106       94.190        0.748        0.026      119.135        6.742        0.003      332.613        1.391      868.945
01/13/2015  07:06:00       24.008       75.137       -8.349       20.989       52.111       22.078      440.535     2715.514      487.433        0.497        0.182       78.880       27.881        0.125      332.605        1.377      868.949
01/13/2015  07:07:00       11.043       65.405      -10.746       17.206       35.767       16.328      296.063     1279.260      266.605        0.318        0.092       66.330       19.867        0.090      332.637        1.428      868.947
01/13/2015  07:08:00        4.826       89.751      -13.755       12.822       16.982        8.765      164.413      288.384       76.825        0.440        0.026       89.880        5.844        0.004      332.685        1.507      868.939
01/13/2015  07:09:00       -5.818       86.605       -9.104       10.792       14.889       10.494      116.461      221.674      110.129        0.403        0.022       86.800        4.808        0.003      332.746        1.609      868.932
01/13/2015  07:10:00       -9.934       72.924       -8.307       11.468       16.404       10.977      131.520      269.085      120.498        0.300        0.026       73.598        7.433        0.010      332.748        1.612      868.930
01/13/2015  07:11:00      -19.829       96.133       -4.331       14.671       23.138       13.202      215.253      535.352      174.298        0.529        0.046       98.156       12.355        0.016      332.905        1.872      868.930
01/13/2015  07:12:00      -12.736       77.385       -1.537       15.424       31.814       16.226      237.904     1012.140      263.288        0.383        0.076       78.426       18.380        0.055      332.887        1.843      868.946
01/13/2015  07:13:00      -18.693       82.319        4.736       20.156       36.932       17.681      406.263     1363.982      312.609        0.462        0.104       84.415       20.733        0.060      332.907        1.877      868.953
01/13/2015  07:14:00      -73.659       60.322       -9.447       28.401       16.994       17.480      806.643      288.794      305.548        0.528        0.070       95.207       17.378        0.033      332.940        1.929      868.952
01/13/2015  07:15:00      -82.013       51.176      -15.664       22.475       24.255       13.020      505.112      588.315      169.517        0.543        0.063       96.671        9.492        0.010      332.916        1.891      868.948
01/13/2015  07:16:00     -101.896       62.167      -22.529       17.207       17.132       10.136      296.094      293.491      102.744        0.772        0.035      119.362        8.678        0.005      332.960        1.961      868.952
01/13/2015  07:17:00      -77.306       19.183      -11.033       27.198       24.767       12.817      739.724      613.403      164.267        0.399        0.076       79.651       14.275        0.032      332.936        1.923      868.969
01/13/2015  07:18:00      -48.151      -36.913        5.416       40.017       38.989       20.890     1601.347     1520.170      436.409        0.363        0.178       60.672       12.702        0.044      332.900        1.865      868.989
01/13/2015  07:19:00      -11.538      -19.951       -4.675       28.767       25.722       20.406      827.567      661.613      416.385        0.123        0.095       23.047       14.418        0.391      332.974        1.984      869.010
01/13/2015  07:20:00      -22.420      -22.897       -2.214       32.154       20.083       15.605     1033.853      403.343      243.508        0.136        0.084       32.046       15.112        0.222      332.979        1.995      869.036
01/13/2015  07:21:00       -0.280       18.548        6.794       18.429       33.206       15.731      339.611     1102.606      247.466        0.104        0.084       18.550       12.995        0.491      332.934        1.920      869.060
01/13/2015  07:22:00       -0.127      -58.243       -6.747       15.774       21.781       10.896      248.806      474.428      118.713        0.214        0.042       58.244        7.553        0.017      332.892        1.851      869.069
01/13/2015  07:23:00      -32.195      -70.991      -13.700       25.060       20.956       12.529      628.006      439.164      156.964        0.374        0.061       77.950        9.261        0.014      332.916        1.891      869.071
01/13/2015  07:24:00      -36.102      -27.410       -4.821       13.872       12.251       13.355      192.430      150.075      178.366        0.130        0.026       45.328        6.052        0.018      332.900        1.866      869.066
01/13/2015  07:25:00      -56.020      -17.281       -7.646       25.239       15.126        9.823      637.014      228.789       96.500        0.223        0.048       58.625        5.050        0.007      332.871        1.816      869.048
01/13/2015  07:26:00      -82.835      -17.928       -4.696       24.227       20.305       19.617      586.972      412.309      384.838        0.429        0.069       84.753       15.518        0.034      332.920        1.896      869.031
01/13/2015  07:27:00      -55.090      -25.979        3.284       17.480       19.735       19.106      305.555      389.488      365.031        0.239        0.053       60.908       11.067        0.033      332.940        1.929      869.017
01/13/2015  07:28:00      -54.098      -24.421       -7.216       21.506       24.988       15.543      462.523      624.413      241.571        0.245        0.066       59.354        7.209        0.015      332.955        1.954      869.019
01/13/2015  07:29:00      -10.402      -16.936       -0.265       25.021       11.931       13.153      626.061      142.351      173.013        0.067        0.047       19.875       14.797        0.554      333.044        2.101      869.037
01/13/2015  07:30:00       -6.448        1.556        6.944        6.073        6.385        6.414       36.884       40.769       41.142        0.011        0.006        6.633        3.794        0.327      333.058        2.126      869.053
01/13/2015  07:31:00       -8.833       -7.033        7.636        5.979       14.032        7.153       35.743      196.900       51.162        0.023        0.014       11.291        7.844        0.483      333.089        2.176      869.064
01/13/2015  07:32:00       16.785      -16.095       10.935       27.820       41.635       24.477      773.945     1733.496      599.110        0.188        0.155       23.255       27.668        1.416      333.111        2.212      869.077
01/13/2015  07:33:00       -3.927       42.161       60.643       17.028       30.489       16.256      289.939      929.574      264.271        0.348        0.074       42.344       14.737        0.121      333.084        2.168      869.107
01/13/2015  07:34:00       -7.535       41.967       65.619       16.042       35.132       22.384      257.346     1234.223      501.047        0.406        0.100       42.638       16.510        0.150      333.120        2.227      869.149
01/13/2015  07:35:00       28.059      -42.604       32.189       39.304       70.097       32.314     1544.840     4913.612     1044.220        0.557        0.375       51.014       39.234        0.591      333.095        2.186      869.176
01/13/2015  07:36:00       78.354     -103.109      -23.609       41.744       37.767       24.872     1742.532     1426.384      618.613        1.056        0.189      129.502       26.489        0.042      333.036        2.090      869.190
01/13/2015  07:37:00       35.754      -42.951      -12.676       39.326       46.494       30.917     1546.505     2161.688      955.865        0.397        0.233       55.885       31.013        0.308      333.082        2.165      869.204
01/13/2015  07:38:00       -4.775       18.239       53.414       14.655       24.749       23.124      214.776      612.524      534.711        0.229        0.068       18.854       18.977        1.013      333.129        2.242      869.217
01/13/2015  07:39:00       -1.358       46.527       60.738       19.420       30.154       21.488      377.119      909.285      461.739        0.380        0.087       46.547       16.467        0.125      333.136        2.254      869.244
01/13/2015  07:40:00       26.859       50.562       59.189       27.747       28.119       16.127      769.887      790.657      260.077        0.430        0.091       57.253        9.655        0.028      333.081        2.164      869.271
01/13/2015  07:41:00       50.914       67.676       52.590       35.363       18.762       22.677     1250.567      352.027      514.269        0.603        0.106       84.690       23.071        0.074      333.002        2.032      869.290
01/13/2015  07:42:00       44.091       44.067       34.468       36.454       19.369       14.491     1328.928      375.148      209.985        0.349        0.096       62.337       18.674        0.090      332.991        2.015      869.307
01/13/2015  07:43:00       -2.084        8.585       34.880       18.255       20.157       17.518      333.250      406.314      306.889        0.117        0.052        8.835       15.427        3.049      333.091        2.178      869.324
01/13/2015  07:44:00       -0.045        3.025       20.785       18.745       18.305       11.509      351.364      335.088      132.451        0.063        0.041        3.025       10.008       10.945      333.103        2.199      869.334
01/13/2015  07:45:00        6.515       24.024       10.429       16.933       18.943       19.304      286.737      358.852      372.632        0.087        0.051       24.892       15.372        0.381      333.068        2.143      869.328
01/13/2015  07:46:00       -1.721       31.625        3.787       11.339       19.483       13.233      128.566      379.606      175.110        0.085        0.034       31.672        6.630        0.044      333.069        2.141      869.320
01/13/2015  07:47:00       -7.856        2.522        7.727        8.719       11.548       11.365       76.028      133.359      129.170        0.023        0.017        8.251        9.330        1.279      333.176        2.317      869.317
01/13/2015  07:48:00       -9.580       20.031       43.290        9.294       18.712       14.423       86.371      350.140      208.028        0.151        0.032       22.204       14.074        0.402      333.231        2.410      869.324
01/13/2015  07:49:00        3.519       22.478       41.444       22.262       21.626       12.059      495.617      467.670      145.417        0.167        0.055       22.752        7.118        0.098      333.213        2.381      869.333
01/13/2015  07:50:00       17.836      -49.868        2.937       29.063       29.863       23.021      844.666      891.816      529.986        0.254        0.113       52.962       23.018        0.189      333.247        2.436      869.342
01/13/2015  07:51:00       39.267      -46.040       -9.359       25.946       32.923       19.814      673.185     1083.934      392.604        0.295        0.107       60.512       18.130        0.090      333.224        2.397      869.351
01/13/2015  07:52:00        4.300       15.124       35.961       17.758       19.393       13.303      315.364      376.076      176.961        0.120        0.043       15.723        9.484        0.364      333.281        2.492      869.363
01/13/2015  07:53:00        9.665       63.226       63.690       32.208       27.267       18.954     1037.368      743.516      359.236        0.514        0.107       63.961       13.785        0.046      333.225        2.400      869.375
01/13/2015  07:54:00       56.154       84.396       68.588       50.739       35.811       36.618     2574.494     1282.433     1340.866        1.009        0.260      101.370       27.639        0.074      333.178        2.323      869.383
01/13/2015  07:55:00       65.605       43.343       22.466       29.271       28.830       20.981      856.812      831.158      440.195        0.441        0.106       78.630       16.685        0.045      333.070        2.145      869.389
01/13/2015  07:56:00       33.688       21.065        6.046        9.916        4.940        8.173       98.332       24.399       66.798        0.090        0.009       39.732        5.845        0.022      333.079        2.161      869.393
01/13/2015  07:57:00       30.755       29.380        9.598       27.724       20.079       13.140      768.636      403.164      172.654        0.162        0.067       42.533       13.267        0.097      333.130        2.244      869.412
01/13/2015  07:58:00       76.108       54.950       -7.113       34.481       20.366       19.939     1188.912      414.794      397.556        0.543        0.100       93.872       16.537        0.031      333.142        2.264      869.418
01/13/2015  07:59:00      102.706       69.012       15.111       25.214       19.168       19.820      635.757      367.412      392.840        0.847        0.070      123.738       15.154        0.015      333.114        2.217      869.426
01/13/2015  08:00:00       78.727       54.854       33.113       17.463       16.340       21.615      304.962      266.989      467.219        0.567        0.052       95.953        9.936        0.011      333.106        2.203      869.433
01/13/2015  08:01:00       74.721       45.409       13.054       26.226       16.751       22.247      687.812      280.581      494.925        0.464        0.073       87.437       18.523        0.045      333.088        2.173      869.447
01/13/2015  08:02:00       53.088       51.266       31.180       26.013       20.175       20.247      676.675      407.016      409.947        0.396        0.075       73.800       15.587        0.045      333.149        2.275      869.463
01/13/2015  08:03:00       17.714       28.726       41.809       18.434       16.049        9.360      339.823      257.586       87.613        0.179        0.034       33.749        3.898        0.013      333.230        2.407      869.480
01/13/2015  08:04:00       31.584       27.180       19.191       13.682       14.936       17.915      187.203      223.089      320.950        0.142        0.037       41.669        7.147        0.029      333.188        2.338      869.484
01/13/2015  08:05:00       24.930       22.900       20.733       15.427       31.695       22.051      237.984     1004.599      486.251        0.165        0.086       33.852       17.123        0.256      333.274        2.479      869.472
01/13/2015  08:06:00       22.357        0.047       21.231       23.655       29.584       23.019      559.546      875.224      529.887        0.146        0.098       22.357       22.384        1.002      333.326        2.568      869.469
01/13/2015  08:07:00        8.492       46.543       61.966       28.171       35.860       20.277      793.619     1285.928      411.166        0.428        0.125       47.311       15.506        0.107      333.295        2.516      869.479
01/13/2015  08:08:00        6.669       31.015       47.279       26.225       32.416       20.853      687.748     1050.807      434.828        0.271        0.109       31.724       20.387        0.413      333.302        2.528      869.492
01/13/2015  08:09:00       11.759       30.788       31.808       25.278       25.017       29.169      638.960      625.871      850.829        0.211        0.106       32.957       16.181        0.241      333.301        2.525      869.505
01/13/2015  08:10:00       -1.329       33.051       53.599       24.204       37.553       30.899      585.830     1410.228      954.778        0.346        0.148       33.077       28.140        0.724      333.333        2.580      869.525
01/13/2015  08:11:00       -0.716       46.280       72.111       21.362       41.759       23.204      456.321     1743.839      538.429        0.504        0.137       46.286       23.757        0.263      333.332        2.578      869.553
01/13/2015  08:12:00        5.563       55.269       78.641       24.117       34.686       23.153      581.632     1203.138      536.052        0.580        0.116       55.548       22.824        0.169      333.342        2.595      869.572
01/13/2015  08:13:00       99.306       75.003       44.974       28.593       25.782       28.678      817.537      664.696      822.403        0.991        0.115      124.447       17.108        0.019      333.203        2.363      869.592
01/13/2015  08:14:00      105.271       69.590       35.190       42.006       32.748       34.588     1764.482     1072.422     1196.353        1.060        0.202      126.193       29.679        0.055      333.172        2.313      869.595
01/13/2015  08:15:00       96.593       58.478       29.807       42.874       32.089       36.059     1838.184     1029.690     1300.276        0.890        0.208      112.916       30.548        0.073      333.118        2.223      869.595
01/13/2015  08:16:00       75.239       47.617       22.544       35.593       35.115       33.970     1266.886     1233.069     1153.963        0.604        0.183       89.041       24.039        0.073      333.152        2.278      869.592
01/13/2015  08:17:00       65.056       67.310       37.759       39.854       27.203       30.306     1588.355      740.020      918.431        0.672        0.162       93.610       28.871        0.095      333.138        2.258      869.605
01/13/2015  08:18:00       41.103       49.866       29.791       33.549       24.535       25.946     1125.558      601.964      673.187        0.373        0.120       64.622       16.423        0.065      333.220        2.392      869.615
01/13/2015  08:19:00       27.876       38.305       36.359       32.821       31.505       28.942     1077.232      992.543      837.613        0.324        0.145       47.374        6.988        0.022      333.392        2.676      869.622
01/13/2015  08:20:00       85.773       46.745        5.309       34.549       24.255       23.446     1193.612      588.300      549.734        0.595        0.117       97.683       18.079        0.034      333.203        2.364      869.640
01/13/2015  08:21:00       86.662       37.992        8.406       39.438       34.856       25.117     1555.339     1214.950      630.888        0.621        0.170       94.624       16.929        0.032      333.109        2.209      869.657
01/13/2015  08:22:00       86.127       36.132        6.396       29.549       23.331       22.863      873.135      544.348      522.727        0.535        0.097       93.399       15.485        0.027      333.129        2.242      869.668
01/13/2015  08:23:00       75.114       43.350       -4.545       17.966       17.607       18.838      322.764      309.994      354.865        0.426        0.049       86.726       12.390        0.020      333.126        2.237      869.681
01/13/2015  08:24:00       77.938       44.198        6.038       21.353       18.545       18.666      455.951      343.916      348.412        0.461        0.057       89.598        8.988        0.010      333.143        2.264      869.696
01/13/2015  08:25:00       75.762       60.430       18.942       38.146       22.686       32.679     1455.122      514.652     1067.909        0.639        0.152       96.910       27.141        0.078      333.244        2.431      869.716
01/13/2015  08:26:00       33.120       74.492       73.829       46.083       36.598       28.820     2123.630     1339.447      830.606        0.819        0.215       81.523       22.635        0.077      333.286        2.501      869.739
01/13/2015  08:27:00       29.339       46.568       60.041       47.311       40.647       32.507     2238.326     1652.169     1056.714        0.579        0.247       55.040       33.620        0.373      333.291        2.509      869.734
01/13/2015  08:28:00       28.074       59.587       60.860       34.223       33.491       24.187     1171.211     1121.617      585.002        0.546        0.144       65.869       19.061        0.084      333.294        2.514      869.734
01/13/2015  08:29:00       98.155       43.431       26.250       43.467       38.659       34.418     1889.387     1494.521     1184.595        0.839        0.228      107.334       20.461        0.036      333.188        2.338      869.733
01/13/2015  08:30:00       87.461       35.821       22.524       41.723       28.238       23.442     1740.834      797.389      549.519        0.626        0.154       94.513       13.439        0.020      333.128        2.239      869.725
01/13/2015  08:31:00      107.902       54.338       35.930       45.088       34.133       36.507     2032.922     1165.039     1332.778        1.021        0.227      120.811       21.963        0.033      333.163        2.298      869.722
01/13/2015  08:32:00       85.385       92.252       65.806       57.262       42.303       51.241     3278.991     1789.574     2625.678        1.391        0.385      125.702       37.892        0.091      333.101        2.194      869.732
01/13/2015  08:33:00      132.208       98.627       20.894       45.327       32.069       40.334     2054.527     1028.404     1626.866        1.618        0.235      164.943       17.932        0.012      333.018        2.058      869.740
01/13/2015  08:34:00       53.634       52.261       35.935       37.909       39.359       33.910     1437.057     1549.094     1149.865        0.552        0.207       74.885       20.292        0.073      333.149        2.274      869.743
01/13/2015  08:35:00       38.591       45.091       63.260       48.607       37.263       29.762     2362.619     1388.521      885.758        0.608        0.232       59.350       21.822        0.135      333.101        2.197      869.737
01/13/2015  08:36:00      102.561       90.155       54.564       20.645       19.685       28.554      426.201      387.511      815.330        1.163        0.081      136.553       16.781        0.015      332.930        1.913      869.728
01/13/2015  08:37:00       87.454      104.212       59.934       44.647       36.362       43.300     1993.371     1322.216     1874.909        1.364        0.260      136.045       35.097        0.067      333.103        2.198      869.727
01/13/2015  08:38:00      113.526      127.032       87.891       70.892       39.335       45.098     5025.677     1547.280     2033.867        2.268        0.430      170.368       41.154        0.058      333.111        2.210      869.745
01/13/2015  08:39:00      120.879       72.312       34.929       46.337       29.124       37.694     2147.121      848.191     1420.874        1.274        0.221      140.857       26.927        0.037      333.007        2.041      869.764
01/13/2015  08:40:00       62.978       57.773       23.310       46.210       25.624       27.528     2135.320      656.585      757.775        0.570        0.177       85.463       20.284        0.056      333.071        2.146      869.758
01/13/2015  08:41:00      -10.153       27.407       20.101       17.655       33.110       21.464      311.698     1096.285      460.689        0.156        0.093       29.227        8.649        0.088      333.137        2.255      869.740
01/13/2015  08:42:00       17.596       33.609       11.496       27.130       21.959       17.193      736.016      482.218      295.593        0.154        0.076       37.937       10.642        0.079      333.201        2.360      869.750
01/13/2015  08:43:00       90.641       67.810       20.638       38.702       30.418       31.736     1497.841      925.281     1007.199        0.833        0.172      113.199       24.065        0.045      333.139        2.257      869.769
01/13/2015  08:44:00      116.173       75.339       -0.210       33.437       26.033       25.997     1118.018      677.700      675.826        1.082        0.124      138.463       15.885        0.013      332.986        2.005      869.791
01/13/2015  08:45:00      109.019       67.053       29.199       37.638       25.825       30.194     1416.632      666.952      911.696        1.011        0.150      127.989       17.210        0.018      333.026        2.072      869.809
01/13/2015  08:46:00       98.414       61.709       43.751       44.033       39.008       35.707     1938.881     1521.596     1274.957        1.007        0.237      116.161       24.811        0.046      333.086        2.170      869.841
01/13/2015  08:47:00       46.139       66.246       47.506       50.123       29.861       29.113     2512.330      891.676      847.583        0.651        0.213       80.730       30.025        0.138      333.076        2.154      869.879
01/13/2015  08:48:00       33.627       69.986       41.556       34.933       33.322       30.752     1220.313     1110.374      945.702        0.552        0.164       77.645       15.518        0.040      333.278        2.487      869.904
01/13/2015  08:49:00       61.184       81.160       -7.589       40.384       49.192       32.287     1630.900     2419.877     1042.448        0.774        0.255      101.638       31.300        0.095      333.049        2.111      869.910
01/13/2015  08:50:00       18.191       52.347       -0.684       31.266       41.918       27.873      977.570     1757.157      776.904        0.329        0.176       55.418       26.521        0.229      333.031        2.080      869.924
01/13/2015  08:51:00       63.890       34.274       -2.912       34.169       25.048       15.487     1167.546      627.412      239.846        0.365        0.102       72.503       15.125        0.044      333.026        2.071      869.925
01/13/2015  08:52:00       88.236       69.010       32.357       36.514       36.169       30.860     1333.250     1308.194      952.354        0.859        0.180      112.018       17.632        0.025      333.090        2.177      869.935
01/13/2015  08:53:00       79.227       83.251       47.952       46.181       39.342       42.192     2132.671     1547.763     1780.143        1.048        0.273      114.924       39.476        0.118      333.129        2.242      869.957
01/13/2015  08:54:00       50.704       49.488       39.280       51.741       43.442       46.527     2677.127     1887.200     2164.805        0.664        0.336       70.851       41.718        0.347      333.229        2.406      869.960
01/13/2015  08:55:00       48.506       57.627       40.238       45.067       25.739       31.602     2030.997      662.498      998.706        0.549        0.185       75.324       30.802        0.167      333.216        2.384      869.957
01/13/2015  08:56:00       56.616       58.766        0.622       33.975       26.854       26.856     1154.313      721.131      721.228        0.463        0.130       81.601       19.865        0.059      333.120        2.227      869.969
01/13/2015  08:57:00       80.903       68.890       23.938       26.119       20.588       28.629      682.188      423.856      819.618        0.689        0.096      106.260        3.428        0.001      333.120        2.226      869.977
01/13/2015  08:58:00       99.269       95.740        8.787       35.550       28.198       34.639     1263.794      795.116     1199.857        1.118        0.163      137.915       20.639        0.022      333.164        2.300      869.989
01/13/2015  08:59:00      115.759       58.057       36.762       57.531       41.761       41.732     3309.802     1743.943     1741.566        1.246        0.340      129.502       27.237        0.044      333.193        2.345      870.014
01/13/2015  09:00:00       89.703       54.654       24.400       33.265       34.319       20.650     1106.531     1177.817      426.436        0.717        0.136      105.041       17.171        0.027      333.128        2.241      870.027
01/13/2015  09:01:00       45.442       41.997        6.328       27.288       14.811       21.630      744.631      219.352      467.864        0.265        0.072       61.876       22.105        0.128      333.036        2.091      869.995
01/13/2015  09:02:00       44.503       11.365        4.352       19.247       15.131       14.288      370.455      228.935      204.150        0.147        0.040       45.931       10.012        0.048      333.115        2.219      869.979
01/13/2015  09:03:00       70.546       50.669        2.280       20.903       26.066       22.910      436.920      679.441      524.861        0.459        0.082       86.857       13.562        0.024      333.208        2.372      869.991
01/13/2015  09:04:00       99.498       65.628        3.407       49.346       33.779       32.066     2435.022     1141.046     1028.231        0.941        0.230      119.193       21.730        0.033      333.254        2.447      870.007
01/13/2015  09:05:00       84.376       62.824       -4.109       37.126       32.613       28.592     1378.314     1063.606      817.478        0.717        0.163      105.196       21.686        0.042      333.251        2.444      870.037
01/13/2015  09:06:00       87.347       56.669       21.053       21.587       18.422       20.670      466.004      339.364      427.265        0.626        0.062      104.120        8.129        0.006      333.220        2.392      870.036
01/13/2015  09:07:00       84.995       35.790       11.540       30.469       22.984       20.876      928.383      528.274      435.821        0.527        0.095       92.223       11.340        0.015      333.174        2.316      870.048
01/13/2015  09:08:00       92.252       65.648        1.994       22.125       20.254       24.332      489.497      410.239      592.051        0.716        0.075      113.226       15.538        0.019      333.238        2.420      870.055
01/13/2015  09:09:00       65.429       39.634       -4.279       24.282       20.651       19.089      589.613      426.451      364.377        0.363        0.069       76.497       12.921        0.029      333.292        2.510      870.041
01/13/2015  09:10:00       42.317       80.408       -9.989       19.402       29.619       24.796      376.452      877.284      614.833        0.511        0.093       90.863       16.460        0.033      333.332        2.578      870.040
01/13/2015  09:11:00       -6.170       98.119       -8.084       22.425       24.781       17.449      502.883      614.094      304.481        0.558        0.071       98.312       14.214        0.021      333.400        2.689      870.040
01/13/2015  09:12:00       17.409       99.559      -18.472       13.768       21.702       11.647      189.557      470.991      135.656        0.568        0.040      101.069       10.380        0.011      333.277        2.488      870.046
01/13/2015  09:13:00       19.371       32.230        2.151       18.291       26.966       20.280      334.562      727.180      411.272        0.145        0.074       37.603       17.667        0.221      333.509        2.871      870.066
01/13/2015  09:14:00       10.344      106.647      -15.557       19.988       31.781       13.702      399.525     1010.024      187.740        0.666        0.080      107.148       14.251        0.018      333.448        2.769      870.068
01/13/2015  09:15:00       43.307       59.213       -6.728       44.268       37.574       23.594     1959.685     1411.788      556.666        0.468        0.196       73.359       22.133        0.091      333.553        2.942      870.093
01/13/2015  09:16:00       55.254       58.764        5.301       30.225       33.035       32.044      913.548     1091.317     1026.837        0.478        0.152       80.661       22.248        0.076      333.512        2.874      870.102
01/13/2015  09:17:00       69.512       60.559       -7.645       36.509       31.709       28.952     1332.916     1005.456      838.202        0.587        0.159       92.191       23.964        0.068      333.481        2.823      870.118
01/13/2015  09:18:00       89.161       73.744        8.155       48.583       38.535       32.874     2360.342     1484.950     1080.730        0.919        0.246      115.705       23.660        0.042      333.575        2.979      870.113
01/13/2015  09:19:00       55.064       59.081        5.580       53.513       23.071       21.564     2863.660      532.263      464.994        0.521        0.193       80.763       20.861        0.067      333.567        2.967      870.112
01/13/2015  09:20:00       95.942       52.434        6.447       40.277       32.198       27.239     1622.265     1036.723      741.971        0.770        0.170      109.335       27.725        0.064      333.676        3.147      870.107
01/13/2015  09:21:00       63.803       78.445       -0.419       41.558       44.201       31.551     1727.049     1953.770      995.496        0.745        0.234      101.116       25.839        0.065      333.731        3.239      870.121
01/13/2015  09:22:00       42.613       44.953        6.281       33.850       44.425       22.881     1145.824     1973.606      523.556        0.376        0.182       61.940       15.545        0.063      333.889        3.501      870.105
01/13/2015  09:23:00       64.135       58.130       -3.954       45.550       25.910       22.517     2074.770      671.329      507.036        0.538        0.163       86.559       10.757        0.015      333.999        3.683      870.108
01/13/2015  09:24:00       98.475       72.031       18.433       35.519       31.521       29.629     1261.600      993.600      877.895        0.918        0.157      122.008       16.267        0.018      333.997        3.679      870.101
01/13/2015  09:25:00       52.079       78.038        1.875       49.248       50.341       29.584     2425.392     2534.262      875.200        0.732        0.292       93.820       18.693        0.040      334.162        3.954      870.104
01/13/2015  09:26:00       44.245       93.249        2.596       46.342       48.508       39.296     2147.549     2353.021     1544.157        0.835        0.302      103.213       31.242        0.092      334.036        3.743      870.105
01/13/2015  09:27:00       55.849       53.106       -4.691       48.465       45.936       29.790     2348.838     2110.153      887.467        0.565        0.267       77.067       23.796        0.095      333.993        3.672      870.114
01/13/2015  09:28:00       51.190       63.356        8.054       36.760       34.855       33.694     1351.289     1214.885     1135.267        0.520        0.185       81.452       23.861        0.086      334.157        3.944      870.135
01/13/2015  09:29:00       36.767       71.928        3.217       37.945       35.341       35.010     1439.829     1249.001     1225.690        0.522        0.196       80.780       29.000        0.129      334.257        4.111      870.147
01/13/2015  09:30:00       81.008       78.716       -2.380       52.562       33.517       27.453     2762.727     1123.413      753.668        0.870        0.232      112.954       15.400        0.019      334.092        3.837      870.157
01/13/2015  09:31:00       95.787       78.477       10.007       42.789       31.909       32.375     1830.869     1018.187     1048.117        0.966        0.195      123.830       21.722        0.031      334.095        3.841      870.162
01/13/2015  09:32:00       75.890       45.789        4.454       43.260       34.070       28.777     1871.445     1160.779      828.103        0.587        0.193       88.633       17.347        0.038      334.144        3.923      870.166
01/13/2015  09:33:00       71.897       33.001        1.342       38.741       26.085       27.173     1500.843      680.416      738.387        0.459        0.146       79.109       14.041        0.032      334.313        4.204      870.162
01/13/2015  09:34:00       85.062       57.540        5.716       45.500       36.073       34.619     2070.241     1301.243     1198.483        0.757        0.228      102.696       20.934        0.042      334.283        4.153      870.174
01/13/2015  09:35:00        5.075       87.661       10.349       38.759       42.073       32.258     1502.236     1770.165     1040.554        0.606        0.216       87.808       25.383        0.084      334.464        4.453      870.189
01/13/2015  09:36:00       73.216       81.512       17.960       49.773       32.245       24.922     2477.307     1039.719      621.093        0.823        0.207      109.566       18.566        0.029      334.536        4.573      870.190
01/13/2015  09:37:00       52.316       63.112       -1.323       46.128       39.530       29.503     2127.768     1562.626      870.424        0.564        0.228       81.976       24.993        0.093      334.786        4.988      870.185
01/13/2015  09:38:00      147.089       85.901       -2.286       52.435       34.329       29.999     2749.441     1178.476      899.932        1.692        0.241      170.335       12.188        0.005      334.423        4.384      870.189
01/13/2015  09:39:00      145.733       87.059        0.319       32.552       36.781       27.222     1059.652     1352.817      741.016        1.598        0.158      169.757       22.748        0.018      334.021        3.719      870.197
01/13/2015  09:40:00       78.649       36.386       34.926       57.425       30.149       35.491     3297.601      908.937     1259.594        0.710        0.273       86.658       24.896        0.083      334.474        4.471      870.203
01/13/2015  09:41:00       62.958       76.222       19.361       52.092       45.618       34.027     2713.603     2081.040     1157.812        0.805        0.298       98.861       30.065        0.092      334.573        4.634      870.202
01/13/2015  09:42:00       48.691       41.209       12.835       48.818       47.118       38.666     2383.158     2220.102     1495.098        0.516        0.305       63.788       27.561        0.187      334.692        4.832      870.205
01/13/2015  09:43:00       57.700       66.416       64.014       64.267       55.077       40.583     4130.291     3033.496     1646.989        1.032        0.441       87.979       39.591        0.203      334.770        4.962      870.212
01/13/2015  09:44:00       41.422      100.902      106.397       58.407       64.153       36.499     3411.339     4115.557     1332.200        1.604        0.443      109.073       38.378        0.124      334.552        4.600      870.210
01/13/2015  09:45:00      122.474       30.621       13.096       58.847       45.342       50.031     3462.956     2055.863     2503.139        1.206        0.401      126.244       36.445        0.083      334.360        4.280      870.236
01/13/2015  09:46:00       92.018       59.684       -2.725       33.570       34.784       28.568     1126.932     1209.917      816.129        0.759        0.158      109.679       15.762        0.021      334.430        4.397      870.242
01/13/2015  09:47:00       72.176       62.940       22.581       54.385       31.740       37.725     2957.766     1007.406     1423.152        0.753        0.269       95.764       22.743        0.056      334.451        4.432      870.231
01/13/2015  09:48:00       57.070       73.734        1.725       50.405       48.965       42.805     2540.639     2397.572     1832.230        0.773        0.339       93.239       32.905        0.125      334.512        4.532      870.240
01/13/2015  09:49:00       84.816       71.274       11.383       61.245       48.735       42.781     3750.953     2375.119     1830.239        1.018        0.398      110.787       32.362        0.085      334.712        4.864      870.238
01/13/2015  09:50:00       70.208       30.362       19.389       53.842       71.749       52.720     2899.002     5147.951     2779.402        0.852        0.541       76.492       41.737        0.298      334.935        5.237      870.232
01/13/2015  09:51:00       37.670       56.486       73.336       51.985       40.867       28.098     2702.438     1670.106      789.511        0.757        0.258       67.894       18.476        0.074      335.054        5.434      870.247
01/13/2015  09:52:00       22.785       51.945       74.920       47.951       54.685       45.876     2299.293     2990.421     2104.641        0.811        0.370       56.722       36.766        0.420      335.213        5.698      870.256
01/13/2015  09:53:00      116.685      129.283       99.534       69.737       50.942       43.881     4863.247     2595.128     1925.563        2.481        0.469      174.154       40.231        0.053      334.670        4.794      870.262
01/13/2015  09:54:00       83.016      105.498       82.606       79.612       74.702       56.657     6338.038     5580.437     3210.012        1.998        0.756      134.244       49.040        0.133      334.665        4.785      870.270
01/13/2015  09:55:00      109.285       41.557       26.794       58.926       40.268       37.092     3472.304     1621.542     1375.807        1.043        0.323      116.919       24.588        0.044      334.715        4.871      870.275
01/13/2015  09:56:00      145.000      102.880        9.734       57.063       53.176       45.000     3256.136     2827.694     2024.972        1.991        0.405      177.790       16.244        0.008      334.478        4.476      870.286
01/13/2015  09:57:00      157.588      125.590       53.265       56.997       42.823       50.373     3248.603     1833.776     2537.472        2.553        0.381      201.512       17.997        0.008      334.594        4.666      870.303
01/13/2015  09:58:00       61.684      100.554       85.280       62.573       35.404       37.464     3915.384     1253.418     1403.518        1.388        0.329      117.967       27.773        0.055      334.723        4.883      870.311
01/13/2015  09:59:00       46.516      -88.780       20.273       54.078       76.952       50.405     2924.423     5921.665     2540.622        1.092        0.569      100.228       50.671        0.256      334.829        5.060      870.320
01/13/2015  10:00:00       54.334      -34.529       41.975       41.697      108.720       54.906     1738.659    11820.030     3014.657        1.124        0.829       64.377       68.158        1.121      334.861        5.115      870.324
01/13/2015  10:01:00      119.104      102.124       64.709       55.156       42.569       52.204     3042.223     1812.099     2725.296        1.819        0.379      156.892       41.105        0.069      334.722        4.881      870.341
01/13/2015  10:02:00      125.134      116.687       57.553       98.090       63.950       66.540     9621.686     4089.539     4427.515        2.536        0.907      171.098       64.407        0.142      334.613        4.698      870.341
01/13/2015  10:03:00       80.257       76.173       86.429       63.677       64.498       47.023     4054.754     4160.043     2211.181        1.507        0.521      110.651       51.510        0.217      334.647        4.756      870.348
01/13/2015  10:04:00       70.998       88.160      104.352       63.950       69.223       49.670     4089.659     4791.795     2467.083        1.752        0.567      113.194       48.571        0.184      334.781        4.979      870.330
01/13/2015  10:05:00       32.589       90.684      113.581       62.788       67.241       50.214     3942.319     4521.353     2521.482        1.658        0.549       96.362       44.269        0.211      335.139        5.574      870.302
01/13/2015  10:06:00       43.693      114.012      128.611       58.252       70.403       58.784     3393.246     4956.637     3455.585        2.163        0.590      122.097       54.138        0.197      334.749        4.926      870.319
01/13/2015  10:07:00       20.516      -15.164       35.775       48.619       86.721       41.240     2363.821     7520.572     1700.725        0.676        0.579       25.512       51.241        4.034      334.891        5.163      870.336
01/13/2015  10:08:00       74.654       63.163       72.531       78.168       60.920       52.737     6110.291     3711.231     2781.215        1.371        0.630       97.790       48.288        0.244      335.116        5.537      870.346
01/13/2015  10:09:00       86.451      146.293      150.288       81.757      100.857       67.150     6684.176    10172.077     4509.179        3.641        1.068      169.927       69.135        0.166      334.612        4.696      870.370
01/13/2015  10:10:00      116.168      100.787       87.284       74.707       72.357       58.070     5581.202     5235.472     3372.149        2.273        0.709      153.795       41.938        0.074      334.528        4.559      870.376
01/13/2015  10:11:00       81.972       80.117       93.226       62.315      112.325       69.659     3883.144    12616.931     4852.438        2.159        1.068      114.622       72.811        0.404      334.783        4.980      870.373
01/13/2015  10:12:00       74.036       35.995       76.241       73.353       76.069       54.334     5380.662     5786.424     2952.158        1.335        0.706       82.322       47.509        0.333      334.848        5.091      870.383
01/13/2015  10:13:00       65.000      104.519      111.244       79.980       76.235       69.900     6396.730     5811.771     4885.997        2.231        0.855      123.083       63.903        0.270      334.909        5.192      870.375
01/13/2015  10:14:00      108.582       66.924       76.127       63.331       68.913       55.436     4010.871     4749.015     3073.139        1.695        0.592      127.550       53.283        0.175      334.586        4.656      870.372
01/13/2015  10:15:00      105.492      101.604      100.482       84.066       57.558       54.750     7067.069     3312.912     2997.528        2.246        0.669      146.465       38.915        0.071      334.762        4.948      870.358
01/13/2015  10:16:00       89.234      156.260      135.260       79.209       66.217       50.059     6274.140     4384.705     2505.922        3.192        0.658      179.944       45.216        0.063      334.666        4.786      870.345
01/13/2015  10:17:00       94.057      123.888      119.171       67.663       49.231       47.292     4578.287     2423.667     2236.562        2.382        0.462      155.547       40.864        0.069      334.656        4.770      870.335
01/13/2015  10:18:00       59.637       35.818       60.517       49.501       79.602       57.277     2450.368     6336.433     3280.649        1.028        0.603       69.566       45.524        0.428      335.014        5.367      870.319
01/13/2015  10:19:00       93.877      102.344       84.325       71.495       53.591       53.619     5111.604     2871.990     2874.991        1.863        0.543      138.878       39.638        0.081      334.816        5.036      870.320
01/13/2015  10:20:00       13.579       42.038       74.231       40.387       61.885       45.719     1631.083     3829.780     2090.246        0.751        0.378       44.177       36.482        0.682      335.087        5.489      870.319
01/13/2015  10:21:00      104.835      117.623      111.861       88.182       62.807       64.161     7776.006     3944.679     4116.596        2.659        0.792      157.562       57.833        0.135      334.775        4.967      870.305
01/13/2015  10:22:00      106.838      124.657      117.923       56.530       57.096       41.392     3195.635     3259.902     1713.314        2.451        0.408      164.176       37.557        0.052      334.757        4.938      870.299
01/13/2015  10:23:00       64.760      -10.861       74.952       80.304      129.199       71.634     6448.675    16692.430     5131.437        1.910        1.414       65.664       90.220        1.888      335.097        5.504      870.287
01/13/2015  10:24:00      104.913      -21.330       55.163       95.338       98.400       58.688     9089.429     9682.566     3444.231        1.836        1.111      107.059       66.762        0.389      335.071        5.460      870.266
01/13/2015  10:25:00       40.516      -52.653       42.084       51.400       68.299       40.977     2641.964     4664.697     1679.147        0.758        0.449       66.437       42.383        0.407      335.377        5.971      870.244
01/13/2015  10:26:00       89.564      -34.648       42.561      102.002       69.356       48.427    10404.413     4810.193     2345.148        1.429        0.878       96.032       54.058        0.317      335.288        5.823      870.235
01/13/2015  10:27:00      105.473      -66.584       16.030       83.173       99.889       68.803     6917.762     9977.750     4733.847        1.872        1.081      124.731       75.060        0.362      335.062        5.446      870.213
01/13/2015  10:28:00       51.926      -29.538       58.699       59.314       58.180       54.105     3518.169     3384.883     2927.401        0.842        0.492       59.739       44.663        0.559      335.186        5.653      870.205
01/13/2015  10:29:00       70.534      -41.723        7.257       50.850       89.733       37.238     2585.707     8051.951     1386.666        0.939        0.601       81.950       34.044        0.173      335.181        5.643      870.213
01/13/2015  10:30:00        1.870       23.826       31.979       40.853       55.980       33.878     1668.994     3133.773     1147.734        0.377        0.298       23.900       23.222        0.944      335.414        6.032      870.208
01/13/2015  10:31:00      110.258       62.028       57.786       75.665       94.451       49.331     5725.180     8920.995     2433.566        1.821        0.854      126.508       40.147        0.101      335.086        5.485      870.211
01/13/2015  10:32:00      114.902       89.457       57.203       79.458       51.626       49.150     6313.562     2665.242     2415.713        1.793        0.570      145.619       41.432        0.081      335.189        5.657      870.201
01/13/2015  10:33:00       33.791       81.094      102.147       51.765       53.651       38.872     2679.575     2878.404     1511.062        1.261        0.353       87.853       30.426        0.120      335.483        6.147      870.182
01/13/2015  10:34:00       95.155      122.051      100.047       79.786       65.023       72.247     6365.865     4227.999     5219.657        2.488        0.791      154.761       52.233        0.114      335.191        5.658      870.163
01/13/2015  10:35:00       81.320       86.229       57.393       60.080       47.284       51.045     3609.599     2235.786     2605.558        1.290        0.423      118.526       31.919        0.073      335.196        5.669      870.145
01/13/2015  10:36:00      181.893      105.871       -3.108       77.640       62.190       52.063     6027.932     3867.658     2710.523        2.845        0.630      210.461       18.579        0.008      335.274        5.797      870.134
01/13/2015  10:37:00      150.380      135.486       78.213       77.935       61.449       71.620     6073.817     3775.976     5129.446        3.103        0.749      202.413       46.841        0.054      335.127        5.553      870.137
01/13/2015  10:38:00       62.664       92.087       81.489       58.822       43.732       40.008     3460.073     1912.512     1600.615        1.301        0.349      111.386       36.410        0.107      335.309        5.857      870.131
01/13/2015  10:39:00       78.502       79.022      112.744      102.530       85.513       50.576    10512.467     7312.505     2557.964        2.275        1.019      111.387       59.763        0.288      335.280        5.806      870.138
01/13/2015  10:40:00      117.467       70.375       43.954      101.598       97.309       70.619    10322.216     9469.055     4987.021        2.273        1.239      136.935       48.185        0.124      335.381        5.976      870.131
01/13/2015  10:41:00      182.873      101.226       20.560       97.465       69.174       64.141     9499.399     4785.072     4114.100        3.125        0.920      209.020       49.714        0.057      335.254        5.762      870.141
01/13/2015  10:42:00      213.071      115.942       51.387      116.967       63.220       64.042    13681.299     3996.766     4101.369        4.163        1.089      242.573       64.934        0.072      335.235        5.730      870.122
01/13/2015  10:43:00      144.733       75.562       70.047       94.836       95.013       59.971     8993.915     9027.417     3596.491        2.659        1.081      163.271       56.263        0.119      335.168        5.622      870.114
01/13/2015  10:44:00      213.957      112.236       47.426      129.012       98.369       82.943    16644.054     9676.403     6879.499        4.691        1.660      241.608       56.944        0.056      335.267        5.785      870.107
01/13/2015  10:45:00       66.464      104.549       80.321       68.705       61.507       62.398     4720.392     3783.148     3893.530        1.710        0.620      123.887       40.396        0.106      335.177        5.637      870.119
01/13/2015  10:46:00      196.267      164.437      150.722      140.574      111.526       98.848    19761.160    12437.960     9770.982        6.512        2.099      256.047       79.601        0.097      335.098        5.504      870.097
01/13/2015  10:47:00      204.095      185.025      157.848      149.723      118.499       91.713    22416.964    14041.928     8411.209        7.283        2.244      275.480       60.822        0.049      335.097        5.503      870.065
01/13/2015  10:48:00      218.193      139.534      113.892      127.664      118.698       90.341    16298.175    14089.157     8161.415        5.929        1.927      258.994       71.261        0.076      335.057        5.437      870.077
01/13/2015  10:49:00      104.346      144.841      177.726      113.729       96.211       79.347    12934.382     9256.627     6295.981        4.597        1.424      178.514       75.775        0.180      335.173        5.629      870.071
01/13/2015  10:50:00      107.641      106.148       64.798      100.440       65.726       71.106    10088.098     4319.860     5056.054        2.326        0.973      151.175       65.436        0.187      335.274        5.797      870.101
01/13/2015  10:51:00       84.658       93.020       47.212      110.328       70.797       66.865    12172.295     5012.248     4470.873        1.985        1.083      125.777       72.913        0.336      335.418        6.039      870.113
01/13/2015  10:52:00      108.798       43.886       45.568       84.865       57.480       47.567     7202.090     3303.913     2262.639        1.430        0.638      117.316       33.854        0.083      335.445        6.084      870.105
01/13/2015  10:53:00      186.238       98.165       52.772      157.495       90.544       67.122    24804.809     8198.179     4505.300        4.230        1.875      210.525       56.342        0.072      335.430        6.057      870.116
01/13/2015  10:54:00      232.411      125.499       44.505      139.958      108.538       80.651    19588.374    11780.455     6504.632        5.480        1.894      264.130       59.975        0.052      335.414        6.029      870.101
01/13/2015  10:55:00      193.055      105.417      134.874      124.238      146.000      106.396    15434.981    21315.970    11320.182        5.731        2.404      219.961      110.124        0.251      335.307        5.849      870.090
01/13/2015  10:56:00       22.873       82.497       97.114       57.886       76.123       64.192     3350.780     5794.639     4120.557        1.501        0.663       85.609       32.187        0.141      335.582        6.311      870.092
01/13/2015  10:57:00       59.154       98.065      121.738       79.529       80.759       66.073     6324.879     6522.063     4365.685        2.257        0.861      114.525       60.602        0.280      335.530        6.223      870.081
01/13/2015  10:58:00      110.917      107.539       89.885      103.061      105.404       94.796    10621.502    11109.991     8986.203        3.133        1.536      154.490       81.585        0.279      335.474        6.129      870.080
01/13/2015  10:59:00      216.437      123.852       34.044      113.033       80.902       69.394    12776.566     6545.202     4815.587        4.374        1.207      249.368       12.710        0.003      335.369        5.956      870.070
01/13/2015  11:00:00      253.280      146.985       56.126       96.835       82.935       66.983     9377.093     6878.176     4486.788        5.482        1.037      292.840       41.724        0.020      335.407        6.017      870.072
01/13/2015  11:01:00      298.343      174.241       18.823       81.563       88.628       65.619     6652.486     7854.924     4305.886        6.926        0.941      345.497       29.183        0.007      335.138        5.571      870.067
01/13/2015  11:02:00      153.494      104.653       70.969      127.480       68.984       63.004    16251.107     4758.808     3969.442        3.226        1.249      185.776       55.455        0.089      335.361        5.942      870.053
01/13/2015  11:03:00      159.168      152.893       68.303      102.165       73.465       75.723    10437.780     5397.110     5734.040        3.747        1.078      220.705       55.310        0.063      335.528        6.219      870.036
01/13/2015  11:04:00      295.895      155.784       22.297      114.554      104.836       73.138    13122.513    10990.562     5349.111        7.089        1.473      334.399       36.210        0.012      335.100        5.508      870.023
01/13/2015  11:05:00      270.947      128.379       56.289      138.925      101.136       93.860    19300.209    10228.524     8809.616        6.569        1.917      299.822       80.905        0.073      335.053        5.430      870.000
01/13/2015  11:06:00      234.427      129.218       58.625      115.361       90.129       73.247    13308.219     8123.158     5365.146        5.094        1.340      267.681       59.278        0.049      335.241        5.741      869.984
01/13/2015  11:07:00      140.960       70.306       61.833       97.125       72.074       69.969     9433.237     5194.667     4895.681        2.408        0.976      157.521       38.579        0.060      335.361        5.940      869.982
01/13/2015  11:08:00       64.667       73.899       47.109       95.815       56.974       45.209     9180.463     3246.081     2043.822        1.316        0.724       98.198       47.074        0.230      335.620        6.374      869.974
01/13/2015  11:09:00      215.476      105.758       15.367       84.250       87.072       69.862     7098.069     7581.506     4880.726        3.870        0.978      240.030       41.505        0.030      335.373        5.960      869.952
01/13/2015  11:10:00      235.927      121.168       46.122      134.707      100.268       77.755    18146.019    10053.748     6045.769        5.335        1.712      265.223       57.971        0.048      335.059        5.440      869.944
01/13/2015  11:11:00      189.262      133.480       64.667      110.611      103.213       91.576    12234.717    10652.969     8386.213        4.454        1.564      231.597       68.829        0.088      335.192        5.660      869.913
01/13/2015  11:12:00      220.213      163.711       69.182      148.777      117.469      105.693    22134.516    13799.016    11171.012        6.358        2.355      274.399       91.763        0.112      335.211        5.691      869.872
01/13/2015  11:13:00      213.926      161.601       58.845      164.457      104.786       84.530    27046.175    10980.179     7145.259        6.025        2.259      268.103       53.801        0.040      335.193        5.662      869.868
01/13/2015  11:14:00      291.021      174.835       52.381       98.153       88.486       77.550     9633.965     7829.691     6014.066        7.074        1.174      339.500       46.866        0.019      335.160        5.607      869.865
01/13/2015  11:15:00      230.060      164.040       19.421      119.804       78.519       90.571    14353.009     6165.248     8203.065        5.446        1.436      282.554       52.752        0.035      335.136        5.565      869.865
01/13/2015  11:16:00      292.365      173.511       36.575      137.109      108.451       81.691    18798.984    11761.549     6673.464        7.707        1.862      339.976       37.701        0.012      335.050        5.426      869.862
01/13/2015  11:17:00      195.877       96.042       42.047      113.420       92.349       66.095    12864.101     8528.382     4368.509        3.756        1.288      218.155       37.671        0.030      335.237        5.735      869.839
01/13/2015  11:18:00      174.131      120.816       15.166       94.015       67.104       62.242     8838.830     4502.929     3874.089        3.118        0.861      211.939       39.869        0.035      335.249        5.753      869.830
01/13/2015  11:19:00      175.544      126.488       35.778       94.347       81.943       66.695     8901.406     6714.583     4448.288        3.408        1.003      216.368       37.463        0.030      335.249        5.755      869.810
01/13/2015  11:20:00      227.022      142.748       24.556       89.070       78.471       62.302     7933.457     6157.774     3881.509        4.524        0.899      268.171       38.606        0.021      335.185        5.647      869.790
01/13/2015  11:21:00      268.617      182.525       31.232      111.835      106.090       90.938    12506.996    11255.093     8269.751        6.923        1.602      324.762       45.512        0.020      335.206        5.683      869.762
01/13/2015  11:22:00      309.029      209.282       33.333      109.921       80.263       68.228    12082.612     6442.177     4655.107        8.179        1.159      373.227       48.503        0.017      335.027        5.386      869.742
01/13/2015  11:23:00      152.265      108.811       11.044      101.967       78.299       60.774    10397.291     6130.722     3693.421        2.768        1.011      187.148       49.971        0.071      335.146        5.584      869.732
01/13/2015  11:24:00      146.355       84.538       23.212       96.189       49.267       47.432     9252.266     2427.276     2249.797        2.152        0.696      169.016       25.289        0.022      335.287        5.818      869.714
01/13/2015  11:25:00      140.410       70.388       27.295       93.455       63.316       57.476     8733.901     4008.903     3303.489        2.073        0.802      157.065       28.010        0.032      335.322        5.876      869.677
01/13/2015  11:26:00      121.926       89.784       69.760       85.323       66.881       57.736     7279.973     4473.002     3333.393        2.144        0.754      151.417       37.802        0.062      335.429        6.056      869.677
01/13/2015  11:27:00       75.742      101.900       71.982       49.630       58.244       45.903     2463.132     3392.354     2107.119        1.463        0.398      126.967       34.807        0.075      335.550        6.258      869.668
01/13/2015  11:28:00      132.321      160.247      156.647      106.565      109.654       86.469    11356.018    12023.937     7476.946        4.929        1.543      207.817       87.194        0.176      335.368        5.953      869.649
01/13/2015  11:29:00       82.653       -1.053       59.952       97.154      136.397       77.247     9438.885    18604.019     5967.173        2.221        1.701       82.660       83.287        1.015      335.318        5.870      869.603
01/13/2015  11:30:00      164.716      101.874       19.503       77.073       45.946       55.698     5940.294     2111.064     3102.229        2.452        0.558      193.674       27.631        0.020      335.287        5.818      869.610
01/13/2015  11:31:00      130.975       87.154       21.893      117.217       75.330       51.953    13739.847     5674.550     2699.107        2.367        1.106      157.322       24.347        0.024      335.312        5.860      869.576
01/13/2015  11:32:00      263.702      175.031       33.057       83.119       73.814       56.488     6908.729     5448.555     3190.903        5.841        0.777      316.504       32.063        0.010      335.224        5.711      869.563
01/13/2015  11:33:00      191.947      154.895       20.907       92.612       83.095       85.761     8576.976     6904.797     7355.024        4.205        1.142      246.649       57.219        0.054      335.195        5.666      869.548
01/13/2015  11:34:00      229.881      131.447       37.228       86.579       76.091       60.181     7495.959     5789.859     3621.798        4.421        0.845      264.809       37.430        0.020      335.265        5.781      869.541
01/13/2015  11:35:00       85.735       88.125       66.656       80.201       55.350       56.354     6432.140     3063.585     3175.775        1.611        0.634      122.949       49.948        0.165      335.509        6.188      869.533
01/13/2015  11:36:00      244.385      188.321       49.161      116.743       86.604       76.331    13628.917     7500.293     5826.402        6.228        1.348      308.527       35.709        0.013      335.256        5.765      869.517
01/13/2015  11:37:00      172.456       95.736       44.899      111.008       90.786       72.563    12322.775     8242.082     5265.366        3.337        1.292      197.247       35.307        0.032      335.377        5.968      869.506
01/13/2015  11:38:00      201.654      117.479       28.025       95.970       64.512       61.936     9210.247     4161.760     3836.016        3.623        0.860      233.379       29.882        0.016      335.218        5.703      869.497
01/13/2015  11:39:00      132.711      101.243       16.920       85.456       56.030       58.018     7302.781     3139.395     3366.086        2.098        0.690      166.921       39.896        0.057      335.260        5.773      869.488
01/13/2015  11:40:00      279.453      188.869       39.909      124.825       94.607       65.777    15581.201     8950.461     4326.558        7.210        1.443      337.291       37.623        0.012      335.226        5.716      869.468
01/13/2015  11:41:00      232.033      105.721       47.083      110.769      107.179       72.626    12269.784    11487.282     5274.561        4.813        1.452      254.983       50.548        0.039      335.368        5.951      869.454
01/13/2015  11:42:00      107.942       80.321       42.302       92.441       85.040       65.685     8545.253     7231.751     4314.541        1.999        1.005      134.547       44.521        0.109      335.703        6.512      869.469
01/13/2015  11:43:00      140.575       74.502       35.063       86.436       44.543       55.543     7471.115     1984.121     3084.994        1.954        0.627      159.097       23.628        0.022      335.659        6.439      869.454
01/13/2015  11:44:00      153.169      118.786       88.260      145.532      122.315      106.588    21179.508    14961.055    11361.058        4.642        2.375      193.832       94.952        0.240      335.540        6.240      869.429
01/13/2015  11:45:00      185.503      127.207       56.095      124.715      109.456       91.815    15553.882    11980.547     8430.001        4.485        1.798      224.928       52.975        0.055      335.449        6.088      869.431
01/13/2015  11:46:00      161.008      110.451       74.837      123.390       90.324       68.837    15225.201     8158.370     4738.587        3.592        1.406      195.251       52.605        0.073      335.508        6.186      869.431
01/13/2015  11:47:00      180.014      112.673       37.528      116.077       95.843       69.454    13473.902     9185.883     4823.877        3.699        1.374      212.368       56.881        0.072      335.377        5.968      869.429
01/13/2015  11:48:00      137.897      113.802       36.356      114.378       90.122       50.356    13082.437     8122.049     2535.701        2.851        1.187      178.792       48.009        0.072      335.526        6.217      869.413
01/13/2015  11:49:00      198.157       59.996        7.553      141.145       97.848       67.321    19921.960     9574.154     4532.143        3.847        1.701      207.040       59.746        0.083      335.363        5.944      869.386
01/13/2015  11:50:00      146.552      120.843       24.099      114.678       77.813       63.423    13151.089     6054.848     4022.486        2.994        1.161      189.949       44.051        0.054      335.349        5.921      869.358
01/13/2015  11:51:00      193.755      125.389       28.457       97.010       61.021       54.745     9410.988     3723.519     2997.044        3.510        0.807      230.789       38.565        0.028      335.349        5.921      869.331
01/13/2015  11:52:00      207.960      124.867       54.264      142.432      113.945       74.103    20286.889    12983.490     5491.250        5.027        1.938      242.568       29.445        0.015      335.451        6.091      869.307
01/13/2015  11:53:00      174.003      133.021       91.397      119.032       80.563       90.805    14168.562     6490.409     8245.564        4.261        1.445      219.024       74.445        0.116      335.624        6.377      869.285
01/13/2015  11:54:00      148.139      169.217      177.085      137.083      122.539      105.850    18791.754    15015.887    11204.181        6.347        2.251      224.899       95.797        0.181      335.463        6.111      869.274
01/13/2015  11:55:00      239.707      153.894       90.115      157.687       96.350      108.490    24865.250     9283.360    11770.106        6.758        2.296      284.856       80.378        0.080      335.586        6.316      869.302
01/13/2015  11:56:00      132.671       58.364       62.171       99.713       85.760       71.503     9942.652     7354.762     5112.615        2.364        1.121      144.941       52.182        0.130      335.672        6.459      869.315
01/13/2015  11:57:00       91.278       62.903       65.453       88.445       86.915       65.408     7822.433     7554.212     4278.222        1.811        0.983      110.853       54.947        0.246      335.717        6.536      869.298
01/13/2015  11:58:00      147.718      102.763       12.168       70.992       57.449       56.385     5039.847     3300.400     3179.318        2.202        0.576      179.947       30.055        0.028      335.687        6.485      869.290
01/13/2015  11:59:00      212.717      107.526       52.446      122.134       84.043       73.530    14916.835     7063.255     5406.662        4.347        1.369      238.350       53.900        0.051      335.485        6.147      869.272
01/13/2015  12:00:00      279.895      186.231       51.089      109.426       73.599       69.337    11973.985     5416.768     4807.613        6.891        1.110      336.189       48.925        0.021      335.359        5.937      869.237
01/13/2015  12:01:00      257.817      165.482       68.283      167.183      116.364       96.859    27950.283    13540.590     9381.600        7.469        2.544      306.356       83.192        0.074      335.457        6.102      869.229
01/13/2015  12:02:00      220.980      162.920      147.455      158.167      155.908      136.833    25016.734    24307.353    18723.159        8.257        3.402      274.545      126.697        0.213      335.412        6.026      869.248
01/13/2015  12:03:00      105.649      122.060      169.189      122.081      110.605       81.842    14903.874    12233.375     6698.185        4.425        1.692      161.432       81.864        0.257      335.338        5.903      869.267
01/13/2015  12:04:00      147.105      145.332       85.393      103.139       77.818       96.354    10637.574     6055.609     9284.022        3.801        1.299      206.788       81.727        0.156      335.498        6.168      869.265
01/13/2015  12:05:00       87.387       69.417       47.923       69.962       44.513       53.963     4894.742     1981.385     2911.986        1.227        0.489      111.603       41.925        0.141      335.810        6.691      869.266
01/13/2015  12:06:00      284.105      164.888       35.311      104.952       82.094       71.058    11014.949     6739.442     5049.210        6.597        1.140      328.487       49.153        0.022      335.314        5.862      869.259
01/13/2015  12:07:00      163.242      110.811       28.316       74.035       66.721       54.370     5481.238     4451.714     2956.109        2.631        0.644      197.300       36.137        0.034      335.292        5.827      869.258
01/13/2015  12:08:00      252.502      190.437       44.064      123.139       89.727       74.938    15163.093     8050.900     5615.635        6.539        1.441      316.265       58.969        0.035      335.347        5.917      869.260
01/13/2015  12:09:00      230.011      156.012       40.948       93.742       79.419       66.867     8787.574     6307.334     4471.160        4.924        0.978      277.930       32.629        0.014      335.286        5.814      869.256
01/13/2015  12:10:00      109.218      108.168       41.453       92.666       66.644       64.974     8587.061     4441.386     4221.667        2.130        0.863      153.717       41.098        0.071      335.544        6.247      869.254
01/13/2015  12:11:00       85.533      151.795       -8.724       58.034       77.697       51.998     3367.928     6036.777     2703.758        2.127        0.605      174.234       46.181        0.070      335.461        6.110      869.246
01/13/2015  12:12:00       65.160      171.688       -3.173       82.228       87.809       57.034     6761.477     7710.368     3252.906        2.573        0.886      183.637       54.129        0.087      335.359        5.938      869.241
01/13/2015  12:13:00       94.929       91.430       -5.600       65.888       56.046       42.102     4341.196     3141.125     1772.550        1.333        0.463      131.799       22.013        0.028      335.621        6.376      869.242
01/13/2015  12:14:00      129.830       80.243       23.673       78.399       54.780       45.267     6146.453     3000.796     2049.118        1.752        0.560      152.626       28.848        0.036      335.663        6.446      869.232
01/13/2015  12:15:00      184.240       96.196       22.459       81.172       75.368       69.700     6588.820     5680.340     4858.086        3.041        0.856      207.841       46.625        0.050      335.671        6.458      869.225
01/13/2015  12:16:00      157.727      138.965      101.750       99.525       65.706       61.838     9905.279     4317.252     3823.912        3.629        0.902      210.212       36.585        0.030      335.759        6.603      869.209
01/13/2015  12:17:00       93.221      120.708      126.294       94.518       90.778       70.570     8933.612     8240.677     4980.158        3.068        1.108      152.514       52.291        0.118      335.503        6.177      869.214
01/13/2015  12:18:00       69.895       74.111      103.330       88.971       91.079       73.781     7915.759     8295.362     5443.670        2.135        1.083      101.872       66.014        0.420      335.748        6.587      869.202
01/13/2015  12:19:00       67.332      128.658      118.693       77.282       86.067       60.003     5972.582     7407.529     3600.329        2.607        0.849      145.212       50.410        0.121      335.592        6.326      869.200
01/13/2015  12:20:00      146.093       67.167      110.390      133.253      126.298       97.633    17756.439    15951.173     9532.284        4.063        2.162      160.793       78.168        0.236      335.426        6.050      869.170
01/13/2015  12:21:00      183.105      136.600      100.465      106.802       84.288       78.455    11406.570     7104.509     6155.152        4.347        1.233      228.445       71.031        0.097      335.374        5.962      869.175
01/13/2015  12:22:00       41.544       50.774      102.193       69.945      112.250       59.627     4892.337    12600.160     3555.430        1.789        1.052       65.604       65.982        1.012      335.616        6.367      869.158
01/13/2015  12:23:00       80.218       76.214       52.065       97.512       60.780       44.853     9508.624     3694.219     2011.783        1.508        0.761      110.650       36.100        0.106      335.704        6.514      869.144
01/13/2015  12:24:00      157.894       96.786       76.937       72.112       59.018       57.681     5200.123     3483.120     3327.043        2.611        0.601      185.198       34.049        0.034      335.390        5.989      869.129
01/13/2015  12:25:00      116.124       92.861       39.417       79.966       52.263       60.482     6394.528     2731.413     3658.024        1.822        0.639      148.687       46.265        0.097      335.376        5.967      869.126
01/13/2015  12:26:00       68.818       59.395       69.789       54.998       82.567       59.521     3024.781     6817.285     3542.736        1.326        0.669       90.905       58.713        0.417      335.483        6.146      869.114
01/13/2015  12:27:00       87.999       83.937       89.241       75.833       73.013       43.186     5750.626     5330.967     1864.995        1.785        0.647      121.611       37.405        0.095      335.376        5.968      869.092
01/13/2015  12:28:00      106.917       74.376       60.395      100.822       55.185       39.738    10165.157     3045.437     1579.131        1.770        0.739      130.243       28.502        0.048      335.567        6.285      869.071
01/13/2015  12:29:00      164.662      167.278      113.105      115.271       79.889       80.517    13287.423     6382.318     6483.008        4.702        1.308      234.724       80.638        0.118      335.594        6.328      869.057
01/13/2015  12:30:00      203.680      115.204       67.585      137.342      101.216       96.875    18862.872    10244.580     9384.825        4.890        1.925      234.003       97.529        0.174      335.520        6.206      869.039
01/13/2015  12:31:00      141.684      190.003      167.007      145.627      146.393      117.042    21207.271    21430.947    13698.853        7.019        2.817      237.014      115.442        0.237      335.502        6.175      869.017
01/13/2015  12:32:00      188.015      115.593       79.723      151.006      138.580      105.932    22802.733    19204.347    11221.515        5.414        2.661      220.706       90.102        0.167      335.369        5.954      869.008
01/13/2015  12:33:00      183.332      111.681       76.642      119.681       84.099       74.030    14323.493     7072.567     5480.417        3.941        1.344      214.670       61.249        0.081      335.482        6.144      869.016
01/13/2015  12:34:00      250.259      120.469       64.877      105.425       67.822       79.235    11114.495     4599.768     6278.213        5.167        1.100      277.745       64.922        0.055      335.402        6.010      868.998
01/13/2015  12:35:00      175.223      130.095       47.384       88.933       64.176       42.256     7909.139     4118.531     1785.612        3.184        0.691      218.238       29.587        0.018      335.468        6.119      868.992
01/13/2015  12:36:00      206.482      138.332       92.120      101.678       85.207       81.446    10338.389     7260.182     6633.516        4.724        1.212      248.537       55.995        0.051      335.388        5.987      868.986
01/13/2015  12:37:00      128.348       78.724       82.147      101.539       62.099       51.984    10310.255     3856.331     2702.331        2.314        0.843      150.568       41.893        0.077      335.479        6.138      868.983
01/13/2015  12:38:00      154.430      100.364       35.944       80.504       68.680       59.979     6480.960     4716.922     3597.458        2.500        0.740      184.178       34.381        0.035      335.394        5.996      868.971
01/13/2015  12:39:00       91.595       76.386       56.001       50.014       52.807       45.045     2501.448     2788.613     2029.022        1.234        0.366      119.266       28.430        0.057      335.426        6.051      868.947
01/13/2015  12:40:00      132.216      119.733      104.918       96.321       94.286       75.529     9277.797     8889.803     5704.688        3.334        1.194      178.373       52.870        0.088      335.417        6.034      868.929
01/13/2015  12:41:00      119.234       68.477       51.336       85.349       87.112       72.976     7284.372     7588.543     5325.431        2.087        1.010      137.498       56.357        0.168      335.615        6.365      868.932
01/13/2015  12:42:00       79.374       54.466       57.260       69.115       58.516       43.856     4776.927     3424.084     1923.370        1.133        0.506       96.264       30.545        0.101      335.684        6.483      868.922
01/13/2015  12:43:00      139.209       90.919       18.434      100.710       65.487       54.444    10142.422     4288.543     2964.138        2.269        0.870      166.269       17.241        0.011      335.756        6.599      868.911
01/13/2015  12:44:00       70.754      136.173       -3.337       81.615       83.715       65.182     6660.967     7008.164     4248.638        2.074        0.896      153.457       48.547        0.100      335.704        6.514      868.889
01/13/2015  12:45:00      128.807       74.813       25.831       92.694       55.340       49.138     8592.162     3062.540     2414.572        1.846        0.703      148.957       24.763        0.028      335.718        6.536      868.868
01/13/2015  12:46:00      229.774      112.502       24.090      126.273       75.260       72.876    15944.991     5664.067     5310.896        4.647        1.346      255.837       51.586        0.041      335.627        6.383      868.834
01/13/2015  12:47:00      155.214       70.706       19.344      110.225       80.291       60.868    12149.531     6446.696     3704.921        2.588        1.115      170.560       52.980        0.096      335.577        6.302      868.812
01/13/2015  12:48:00      188.126      125.863       13.869       71.679       55.673       57.380     5137.867     3099.432     3292.415        3.148        0.576      226.346       36.111        0.025      335.482        6.143      868.788
01/13/2015  12:49:00      116.842      100.111       10.514       57.677       47.115       41.443     3326.681     2219.856     1717.551        1.552        0.363      153.864       29.229        0.036      335.349        5.922      868.768
01/13/2015  12:50:00      140.482       77.511       11.824       48.658       42.280       36.510     2367.566     1787.622     1332.957        1.568        0.274      160.447       21.127        0.017      335.386        5.984      868.769
01/13/2015  12:51:00      156.028      109.444       37.427       80.412       77.795       48.177     6466.166     6052.024     2320.980        2.628        0.742      190.585       34.589        0.033      335.505        6.183      868.765
01/13/2015  12:52:00      308.756      211.695       78.315      109.451       98.193       87.988    11979.515     9641.770     7741.935        8.782        1.468      374.359       61.574        0.027      335.528        6.218      868.763
01/13/2015  12:53:00      212.385      143.493       70.353      122.091      107.065       84.001    14906.187    11462.958     7056.118        5.203        1.671      256.316       60.027        0.055      335.406        6.015      868.771
01/13/2015  12:54:00      205.205      128.300       59.223       95.407       65.722       73.222     9102.430     4319.403     5361.396        4.043        0.939      242.012       46.359        0.037      335.536        6.232      868.781
01/13/2015  12:55:00      136.494       78.530       55.155       62.189       54.893       46.354     3867.441     3013.209     2148.739        1.843        0.451      157.472       25.861        0.027      335.480        6.141      868.787
01/13/2015  12:56:00       55.849       34.839       31.710       69.921       47.210       27.805     4888.963     2228.776      773.108        0.661        0.395       65.825       19.498        0.088      335.404        6.012      868.781
01/13/2015  12:57:00       73.307       50.424       22.437       62.616       30.613       33.309     3920.704      937.182     1109.497        0.719        0.298       88.975       31.160        0.123      335.442        6.078      868.759
01/13/2015  12:58:00       72.315       76.461       -2.799       72.069       60.980       32.688     5193.891     3718.601     1068.495        1.053        0.499      105.241       28.102        0.071      335.538        6.238      868.734
01/13/2015  12:59:00       83.550      149.066        0.412       80.851       86.035       58.424     6536.879     7402.056     3413.348        2.327        0.868      170.883       51.782        0.092      335.470        6.122      868.712
01/13/2015  13:00:00       62.967      130.331      -13.041       63.181       64.324       44.997     3991.847     4137.641     2024.730        1.564        0.508      144.744       37.782        0.068      335.576        6.301      868.721
01/13/2015  13:01:00       18.780      112.002       -9.981       41.487       60.040       36.773     1721.182     3604.772     1352.228        0.984        0.334      113.566       32.666        0.083      335.800        6.675      868.722
01/13/2015  13:02:00      156.702      114.306       15.240       87.576       67.133       60.409     7669.594     4506.792     3649.286        2.684        0.791      193.962       42.485        0.048      335.663        6.444      868.729
01/13/2015  13:03:00      107.434      109.906       16.802      104.743      109.331       69.850    10971.177    11953.178     4878.985        2.585        1.390      153.692       70.115        0.208      335.688        6.487      868.710
01/13/2015  13:04:00      116.586       97.346       46.463       91.602       64.242       64.348     8390.975     4127.077     4140.635        2.094        0.833      151.883       53.920        0.126      336.002        7.010      868.698
01/13/2015  13:05:00      181.158      150.577       19.607       99.808       79.281       74.975     9961.626     6285.419     5621.201        3.887        1.093      235.567       40.663        0.030      335.743        6.578      868.697
01/13/2015  13:06:00      245.696      175.924       43.449      102.540       79.962       75.185    10514.514     6393.921     5652.781        5.788        1.128      302.185       55.645        0.034      335.623        6.377      868.684
01/13/2015  13:07:00      133.866      111.263       16.003      104.705       55.015       53.981    10963.210     3026.674     2913.965        2.373        0.845      174.068       30.625        0.031      335.926        6.884      868.672
01/13/2015  13:08:00      101.201       77.809       49.964      113.201       53.808       56.362    12814.522     2895.353     3176.712        1.884        0.944      127.655       48.633        0.145      336.238        7.404      868.665
01/13/2015  13:09:00      151.724       67.953       51.120       72.377       58.756       51.170     5238.405     3452.257     2618.344        2.078        0.565      166.246       42.865        0.066      335.859        6.773      868.661
01/13/2015  13:10:00      124.537       55.682       31.168       85.432       73.218       54.806     7298.636     5360.895     3003.690        1.762        0.783      136.418       42.370        0.096      336.033        7.062      868.650
01/13/2015  13:11:00       92.592       12.015       44.267       57.423       67.553       54.826     3297.382     4563.385     3005.917        1.077        0.543       93.369       45.017        0.232      336.198        7.338      868.653
01/13/2015  13:12:00      106.044      -11.234       86.958      137.601      202.300      112.015    18934.139    40925.091    12547.326        4.566        3.620      106.637      149.393        1.963      336.278        7.471      868.615
01/13/2015  13:13:00      198.866     -164.190      -13.347      147.710      185.841       77.098    21818.333    34537.022     5944.152        6.448        3.115      257.888      115.711        0.201      336.037        7.068      868.591
01/13/2015  13:14:00       75.518      101.387       99.715       86.875      100.319       69.151     7547.219    10063.834     4781.805        2.416        1.120      126.422       60.409        0.228      336.302        7.511      868.622
01/13/2015  13:15:00       89.440      -59.845       19.586       80.667      166.160       56.357     6507.229    27609.210     3176.089        2.462        1.865      107.615       77.440        0.518      335.783        6.646      868.612
01/13/2015  13:16:00      120.462     -124.774       -1.964       37.898       61.472       32.169     1436.241     3778.845     1034.848        1.817        0.312      173.435       31.449        0.033      335.564        6.280      868.605
01/13/2015  13:17:00       60.751      -12.827       53.442       53.112       92.221       59.236     2820.906     8504.632     3508.903        1.077        0.742       62.091       69.591        1.256      335.851        6.759      868.581
01/13/2015  13:18:00       27.903       41.231       70.971       72.656       97.994       55.939     5278.922     9602.902     3129.217        1.276        0.901       49.785       60.351        1.470      336.146        7.251      868.545
01/13/2015  13:19:00       21.034        0.215       53.570       68.348      101.609       71.463     4671.462    10324.466     5106.895        1.170        1.005       21.035       67.035       10.156      336.056        7.101      868.516
01/13/2015  13:20:00      219.245        0.504       92.744      148.230      108.154       79.246    21972.275    11697.185     6279.951        4.830        1.997      219.245       79.584        0.132      335.879        6.804      868.494
01/13/2015  13:21:00      165.612      114.076       93.708       93.170       90.860       76.245     8680.582     8255.472     5813.293        3.598        1.137      201.098       58.827        0.086      335.845        6.746      868.478
01/13/2015  13:22:00       92.034      -25.757       53.007       76.702      135.531       78.242     5883.198    18368.696     6121.829        2.115        1.519       95.570       94.298        0.974      335.906        6.850      868.468
01/13/2015  13:23:00      102.059      -17.562       40.187       96.032       56.196       47.300     9222.139     3158.005     2237.308        1.348        0.731      103.559       34.833        0.113      335.889        6.823      868.468
01/13/2015  13:24:00       78.410      -74.316       25.277       59.507       47.676       37.538     3541.125     2273.021     1409.103        0.977        0.361      108.033       23.753        0.048      336.003        7.015      868.448
01/13/2015  13:25:00       84.873       36.393       66.488       73.147       67.950       48.597     5350.511     4617.210     2361.664        1.264        0.616       92.346       48.024        0.270      336.068        7.123      868.447
01/13/2015  13:26:00      115.012      -16.476       85.676      125.427      122.181       78.977    15731.866    14928.252     6237.358        2.886        1.845      116.187       98.576        0.720      336.027        7.051      868.426
01/13/2015  13:27:00      117.848       98.046       98.188       88.486       92.737       53.682     7829.705     8600.083     2881.761        2.622        0.966      153.301       53.449        0.122      335.971        6.958      868.428
01/13/2015  13:28:00       23.612        3.663       41.723       60.742       99.253       46.499     3689.606     9851.209     2162.127        0.900        0.785       23.894       51.662        4.675      336.179        7.306      868.437
01/13/2015  13:29:00      144.276      -78.334       32.768       84.253      154.875       74.658     7098.511    23986.201     5573.771        3.234        1.833      164.171      100.772        0.377      336.058        7.103      868.421
01/13/2015  13:30:00       49.693       54.325       91.088       62.627       85.161       64.112     3922.146     7252.445     4110.380        1.450        0.764       73.624       65.444        0.790      336.290        7.491      868.429
01/13/2015  13:31:00       28.815       32.135       60.141       76.684       86.059       57.950     5880.447     7406.126     3358.163        1.106        0.832       43.162       52.221        1.464      336.260        7.443      868.417
01/13/2015  13:32:00      115.250     -121.624        3.433       86.931      133.511       76.346     7556.923    17825.106     5828.730        2.964        1.561      167.556       84.976        0.257      336.101        7.174      868.408
01/13/2015  13:33:00      137.954     -212.581      -11.333      106.092      149.531       63.542    11255.473    22359.488     4037.571        5.100        1.883      253.420       81.238        0.103      335.977        6.967      868.403
01/13/2015  13:34:00       43.847       42.464       78.812       46.793       69.472       38.312     2189.542     4826.328     1467.801        0.921        0.424       61.039       45.664        0.560      336.307        7.519      868.415
01/13/2015  13:35:00       67.130       33.175       47.303       87.400       83.548       62.405     7638.771     6980.264     3894.324        1.318        0.926       74.880       59.175        0.625      336.392        7.662      868.410
01/13/2015  13:36:00      144.460       44.381      104.237      118.973      132.525       99.077    14154.538    17562.817     9816.252        3.761        2.077      151.123       86.918        0.331      336.171        7.292      868.390
01/13/2015  13:37:00      130.202      104.352      113.848      115.940       88.712       74.242    13442.199     7869.847     5511.840        3.381        1.341      166.859       65.549        0.154      336.095        7.163      868.391
01/13/2015  13:38:00      176.925      108.177       37.501       88.471       79.225       68.413     7827.106     6276.550     4680.270        3.159        0.939      207.376       35.019        0.029      336.061        7.108      868.386
01/13/2015  13:39:00       62.709      100.993       50.209       71.612       76.955       55.464     5128.251     5922.033     3076.241        1.539        0.706      118.878       28.506        0.057      336.381        7.644      868.425
01/13/2015  13:40:00       26.568        2.579       34.583       73.384       51.939       35.588     5385.155     2697.632     1266.496        0.563        0.467       26.693       35.674        1.786      336.539        7.909      868.436
01/13/2015  13:41:00      115.894     -150.349        2.649       90.447       92.197       53.394     8180.653     8500.326     2850.932        2.778        0.977      189.832       44.241        0.054      336.062        7.109      868.426
01/13/2015  13:42:00      116.792       57.557       85.327       94.512       86.607       74.647     8932.438     7500.743     5572.101        2.312        1.100      130.204       66.591        0.262      336.147        7.254      868.417
01/13/2015  13:43:00       72.745      -64.426       53.209      104.307      202.961       83.839    10880.016    41193.300     7028.951        3.568        2.955       97.173      112.470        1.340      336.212        7.360      868.409
01/13/2015  13:44:00      180.255     -192.154       -3.458       95.476      133.402       77.717     9115.627    17796.028     6039.990        5.118        1.648      263.467       75.706        0.083      336.107        7.184      868.406
01/13/2015  13:45:00      103.794      -85.283       25.453       72.767      111.340       55.288     5294.991    12396.650     3056.715        1.972        1.037      134.337       64.922        0.234      336.285        7.483      868.416
01/13/2015  13:46:00       68.883     -158.119       -6.412       75.649       57.868       43.181     5722.817     3348.673     1864.567        2.036        0.547      172.471       40.443        0.055      335.997        7.001      868.416
01/13/2015  13:47:00      147.974     -126.865       21.652      124.213      174.465       88.241    15428.774    30437.868     7786.497        4.605        2.683      194.913      113.539        0.339      336.020        7.039      868.400
01/13/2015  13:48:00      145.060     -185.172       22.463      104.407      135.443       88.182    10900.874    18344.687     7776.130        4.642        1.851      235.225       82.967        0.124      336.097        7.167      868.377
01/13/2015  13:49:00       61.875       32.490       82.051       80.288       95.559       73.107     6446.133     9131.467     5344.705        1.627        1.046       69.887       70.663        1.022      336.348        7.588      868.415
01/13/2015  13:50:00       94.086        7.955       76.685       99.471      152.996       97.493     9894.504    23407.773     9504.871        2.879        2.140       94.422      104.834        1.233      336.180        7.306      868.426
01/13/2015  13:51:00       94.030       41.206      111.950      108.823      117.560       84.845    11842.416    13820.248     7198.618        2.796        1.643      102.663       85.715        0.697      336.193        7.329      868.426
01/13/2015  13:52:00      137.223       33.852       54.051       85.917       74.999       60.034     7381.768     5624.817     3604.054        1.975        0.831      141.337       47.974        0.115      335.966        6.950      868.451
01/13/2015  13:53:00      149.249      122.103      103.825       91.359       98.244       75.828     8346.546     9651.968     5749.844        3.585        1.187      192.832       63.355        0.108      336.088        7.152      868.461
01/13/2015  13:54:00      144.428      170.719      175.130      104.656      104.633       77.646    10952.915    10947.991     6028.974        5.430        1.396      223.616       74.791        0.112      335.724        6.545      868.472
01/13/2015  13:55:00       90.965       74.949       69.780       47.251       44.598       48.663     2232.669     1988.979     2368.115        1.267        0.329      117.864       31.315        0.071      335.715        6.534      868.476
01/13/2015  13:56:00       33.168       16.802       25.582       26.892       45.021       41.662      723.160     2026.854     1735.682        0.326        0.224       37.181       37.294        1.006      335.905        6.850      868.459
01/13/2015  13:57:00       55.916       16.459       75.950       99.071       92.607       58.877     9815.090     8576.090     3466.529        1.551        1.093       58.288       56.208        0.930      336.296        7.503      868.447
01/13/2015  13:58:00      184.385       92.038       93.020      112.921      109.905       68.937    12751.203    12079.111     4752.349        4.035        1.479      206.080       56.538        0.075      336.104        7.178      868.433
01/13/2015  13:59:00      255.768      119.906       83.765      142.332      108.129       88.543    20258.523    11691.944     7839.904        6.329        1.990      282.480       71.826        0.065      336.020        7.040      868.417
01/13/2015  14:00:00      130.697       66.822       98.188      122.110       88.459       59.314    14910.969     7825.003     3518.196        2.872        1.313      146.788       68.022        0.215      336.119        7.204      868.451
01/13/2015  14:01:00      155.786      144.090      173.750      133.263      158.476      101.572    17758.938    25114.773    10316.840        6.420        2.660      212.206      107.470        0.256      335.951        6.923      868.446
01/13/2015  14:02:00      188.187      165.132      107.645       87.767       83.396       86.913     7703.003     6954.947     7553.913        4.824        1.111      250.366       52.701        0.044      335.793        6.660      868.464
01/13/2015  14:03:00       91.567       58.188       55.528       81.123       47.966       42.025     6580.934     2300.722     1766.063        1.275        0.532      108.492       42.200        0.151      335.916        6.868      868.444
01/13/2015  14:04:00       88.251       38.322       33.043       65.445       62.715       42.240     4283.102     3933.201     1784.251        1.017        0.500       96.212       32.056        0.111      335.926        6.885      868.434
01/13/2015  14:05:00      221.589      138.645       88.644      198.700      116.765      101.927    39481.831    13634.123    10389.053        6.983        3.175      261.389       91.735        0.123      336.085        7.148      868.413
01/13/2015  14:06:00      245.453      104.459       38.118      137.270       94.447       79.205    18843.113     8920.230     6273.369        5.332        1.702      266.756       61.098        0.052      336.004        7.012      868.444
01/13/2015  14:07:00      115.792       66.480       27.282       62.598       83.397       47.744     3918.529     6955.105     2279.500        1.586        0.658      133.519       29.237        0.048      336.035        7.066      868.461
01/13/2015  14:08:00      111.196       57.276        9.735       63.050       50.351       44.470     3975.284     2535.183     1977.597        1.211        0.424      125.080       20.975        0.028      336.130        7.225      868.472
01/13/2015  14:09:00      128.767      101.789       55.982       71.055       75.861       86.591     5048.821     5754.826     7498.048        2.419        0.915      164.140       65.848        0.161      336.189        7.321      868.464
01/13/2015  14:10:00      108.486      -36.459       62.170       81.480      119.838       73.326     6638.934    14361.085     5376.765        2.167        1.319      114.448       72.152        0.397      336.307        7.519      868.456
01/13/2015  14:11:00       58.828       78.325      104.630       98.196      140.447       91.930     9642.372    19725.370     8451.075        2.917        1.891       97.957      101.216        1.068      336.440        7.743      868.467
01/13/2015  14:12:00      109.090      130.940      104.389      116.134       97.542       95.056    13487.194     9514.420     9035.629        3.598        1.602      170.428       79.097        0.215      336.303        7.511      868.494
01/13/2015  14:13:00      115.187      158.526      177.283      129.537      122.165      107.895    16779.796    14924.184    11641.423        5.658        2.167      195.955      105.800        0.292      335.873        6.794      868.497
01/13/2015  14:14:00       79.679       86.577      115.439       75.702       70.369       55.847     5730.782     4951.843     3118.852        2.048        0.690      117.662       56.025        0.227      335.898        6.837      868.512
01/13/2015  14:15:00      132.644       54.554       60.732       91.317       55.623       59.531     8338.813     3093.894     3543.887        1.962        0.749      143.424       52.656        0.135      336.109        7.187      868.500
01/13/2015  14:16:00        8.594       17.335       68.809       42.843      102.115       62.289     1835.500    10427.387     3879.860        1.062        0.807       19.349       65.309       11.393      336.329        7.558      868.499
01/13/2015  14:17:00       -5.607      110.707      145.199       47.035       91.263       57.780     2212.308     8328.963     3338.505        2.362        0.694      110.849       58.678        0.280      336.372        7.629      868.503
01/13/2015  14:18:00       96.598       47.537       25.534       97.649       82.819       65.723     9535.402     6859.032     4319.540        1.647        1.036      107.661       49.820        0.214      336.058        7.103      868.503
01/13/2015  14:19:00       27.889       61.305       84.464       68.167       78.602       63.807     4646.708     6178.239     4071.306        1.328        0.745       67.350       55.674        0.683      336.397        7.670      868.517
01/13/2015  14:20:00       71.400       86.260       98.206       80.917      115.033       71.449     6547.523    13232.574     5104.952        2.353        1.244      111.976       66.747        0.355      336.223        7.381      868.520
01/13/2015  14:21:00       97.190       79.491       91.580       90.224       72.701       65.870     8140.324     5285.365     4338.818        2.096        0.888      125.558       53.344        0.181      336.031        7.060      868.521
01/13/2015  14:22:00       80.888      113.999       76.641      116.107       79.665      111.184    13480.802     6346.539    12361.818        2.880        1.609      139.781       95.751        0.469      336.020        7.038      868.503
01/13/2015  14:23:00      136.318       71.138       94.600      133.389      121.099      108.567    17792.655    14665.017    11786.775        3.841        2.212      153.763       80.287        0.273      336.039        7.073      868.489
01/13/2015  14:24:00      211.066     -148.545       34.830      142.463      148.297       91.693    20295.698    21991.937     8407.628        5.925        2.535      258.097       97.239        0.142      335.974        6.963      868.475
01/13/2015  14:25:00      100.234      -46.483       65.338       79.449       98.701       68.339     6312.219     9741.948     4670.219        1.860        1.036      110.488       48.720        0.194      336.073        7.128      868.503
01/13/2015  14:26:00      179.677       85.322       56.079      117.505       80.265       77.092    13807.461     6442.476     5943.139        3.445        1.310      198.906       47.990        0.058      336.016        7.033      868.519
01/13/2015  14:27:00      158.904      105.716       79.654      123.299       99.936       70.004    15202.597     9987.216     4900.613        3.643        1.505      190.857       49.611        0.068      336.128        7.220      868.525
01/13/2015  14:28:00      171.717      100.662       29.417       96.962       97.203       62.405     9401.678     9448.416     3894.358        3.161        1.137      199.047       48.717        0.060      336.041        7.074      868.518
01/13/2015  14:29:00      171.135      107.194       15.535       94.082       78.804       66.401     8851.419     6210.097     4409.158        3.024        0.974      201.935       41.381        0.042      336.140        7.240      868.509
01/13/2015  14:30:00      196.876       99.629       62.956      130.840      101.697       70.474    17119.191    10342.276     4966.538        4.253        1.621      220.649       54.314        0.061      336.166        7.283      868.490
01/13/2015  14:31:00      180.357       76.902       32.726       92.842       90.709       59.042     8619.576     8228.209     3485.921        2.992        1.017      196.067       48.312        0.061      336.035        7.063      868.496
01/13/2015  14:32:00      144.720      126.501      121.663      126.450       95.993       85.098    15989.534     9214.745     7241.629        4.209        1.622      192.214       72.170        0.141      336.075        7.131      868.478
01/13/2015  14:33:00       77.539       81.920       80.459       91.822       86.107       75.257     8431.307     7414.379     5663.594        2.035        1.075      112.797       68.007        0.364      336.143        7.246      868.478
01/13/2015  14:34:00      148.402      124.696      129.328      134.826       97.283       77.124    18177.949     9464.056     5948.102        4.394        1.680      193.835       74.000        0.146      336.267        7.452      868.489
01/13/2015  14:35:00       32.638       -4.550       68.189       58.694       94.748       60.096     3445.031     8977.158     3611.504        1.088        0.802       32.953       53.447        2.631      336.371        7.628      868.488
01/13/2015  14:36:00      136.925      -67.681       57.605      137.547      226.633      109.241    18919.052    51362.408    11933.627        5.442        4.111      152.739      150.215        0.967      336.102        7.177      868.466
01/13/2015  14:37:00      192.861     -268.380      -36.571       94.992       93.406       56.943     9023.436     8724.729     3242.560        6.577        1.050      330.489       52.088        0.025      336.055        7.096      868.457
01/13/2015  14:38:00       69.445      -38.919       50.864       85.201      128.765       63.804     7259.221    16580.383     4070.956        1.841        1.396       79.607       69.150        0.755      336.287        7.486      868.464
01/13/2015  14:39:00       68.606       15.153       67.352       99.879       78.898       58.278     9975.801     6224.841     3396.313        1.453        0.980       70.260       60.624        0.745      336.124        7.215      868.488
01/13/2015  14:40:00       74.862      -45.082       47.349       86.127       96.607       70.361     7417.803     9332.965     4950.739        1.579        1.085       87.389       71.654        0.672      336.159        7.273      868.487
01/13/2015  14:41:00       95.847      126.574      102.406       63.870       62.443       51.648     4079.339     3899.150     2667.545        2.317        0.532      158.769       29.010        0.033      335.963        6.944      868.493
01/13/2015  14:42:00      119.536       79.408       84.442       79.024       63.054       47.510     6244.824     3975.767     2257.205        2.010        0.624      143.508       39.219        0.075      335.837        6.734      868.488
01/13/2015  14:43:00       89.671       92.216       87.154       90.898       58.908       65.363     8262.535     3470.204     4272.343        2.007        0.800      128.627       36.171        0.079      335.993        6.997      868.469
01/13/2015  14:44:00       40.928       62.145      106.352       89.542      119.750       92.304     8017.720    14340.169     8520.019        2.386        1.544       74.411       85.153        1.310      336.219        7.371      868.427
01/13/2015  14:45:00      142.368      127.612      102.239      132.206       81.821       87.753    17478.440     6694.680     7700.502        3.943        1.594      191.190       70.859        0.137      336.083        7.142      868.436
01/13/2015  14:46:00       99.636      119.589      111.322      104.301       73.587       59.845    10878.732     5415.102     3581.471        2.825        0.994      155.656       57.300        0.136      336.014        7.030      868.436
01/13/2015  14:47:00      116.447       83.217       55.876       80.487       67.505       56.501     6478.080     4556.864     3192.338        1.891        0.711      143.125       44.897        0.098      336.163        7.280      868.439
01/13/2015  14:48:00      152.460       72.078       48.146       88.612       85.379       49.112     7852.136     7289.658     2412.026        2.415        0.878      168.639       40.223        0.057      336.216        7.367      868.434
01/13/2015  14:49:00      154.106       74.302       43.993      117.114      104.289       79.840    13715.596    10876.195     6374.460        3.108        1.548      171.083       54.533        0.102      336.194        7.330      868.433
01/13/2015  14:50:00      264.701      159.907       31.293       84.466       76.199       59.830     7134.511     5806.299     3579.583        5.657        0.826      309.252       37.619        0.015      335.955        6.930      868.431
01/13/2015  14:51:00      248.838      133.524       38.492      119.144       75.272       51.991    14195.251     5665.931     2703.089        5.189        1.128      282.398       44.760        0.025      335.910        6.856      868.436
01/13/2015  14:52:00      114.129       57.888       23.675       66.700       62.486       47.980     4448.915     3904.472     2302.044        1.379        0.533      127.970       26.488        0.043      335.867        6.787      868.427
01/13/2015  14:53:00      149.137       81.911       29.330       79.902       59.210       53.421     6384.373     3505.843     2853.817        2.128        0.637      170.151       25.752        0.023      335.956        6.931      868.400
01/13/2015  14:54:00      154.177       89.375       76.730       80.349       61.466       53.559     6455.987     3778.106     2868.619        2.537        0.655      178.209       41.953        0.055      336.036        7.066      868.389
01/13/2015  14:55:00      118.465       78.202       77.528       97.977       77.896       60.296     9599.515     6067.731     3635.576        2.273        0.965      141.949       43.475        0.094      335.999        7.005      868.373
01/13/2015  14:56:00      107.680      -33.913       72.241      107.954       82.144       59.092    11653.973     6747.680     3491.841        1.992        1.095      112.894       31.999        0.080      336.127        7.218      868.349
01/13/2015  14:57:00       61.597      -53.956       65.014       78.429      112.517       62.457     6151.082    12659.964     3900.859        1.682        1.136       81.887       57.564        0.494      336.262        7.442      868.329
01/13/2015  14:58:00      119.931       88.510       47.863      100.143       82.297       73.886    10028.716     6772.724     5459.205        2.338        1.113      149.056       66.240        0.197      335.961        6.941      868.324
01/13/2015  14:59:00      119.692       72.330       65.691       79.183       64.343       57.248     6269.922     4139.980     3277.297        1.878        0.684      139.850       42.859        0.094      335.996        6.999      868.318
01/13/2015  15:00:00       79.134       89.801       85.563       74.952       66.392       60.387     5617.848     4407.876     3646.614        1.766        0.684      119.693       47.770        0.159      336.026        7.049      868.298
01/13/2015  15:01:00       89.617      146.490      130.897      128.253       90.831       71.202    16448.916     8250.195     5069.718        3.819        1.488      171.728       69.292        0.163      336.169        7.287      868.293
01/13/2015  15:02:00      149.945      161.359      181.244      132.667      145.090      129.174    17600.568    21051.144    16685.927        6.834        2.767      220.273      116.420        0.279      335.994        6.996      868.274
01/13/2015  15:03:00      209.518       82.425       57.456      111.909       90.653       71.217    12523.525     8217.885     5071.873        3.990        1.291      225.148       60.644        0.073      335.985        6.980      868.288
01/13/2015  15:04:00      130.405       91.032       60.435      105.308       69.594       61.486    11089.839     4843.393     3780.555        2.433        0.986      159.035       62.061        0.152      336.115        7.197      868.280
01/13/2015  15:05:00      259.309      159.026       75.940      140.811      109.390       97.347    19827.807    11966.159     9476.522        6.978        2.064      304.188       75.317        0.061      336.013        7.026      868.256
01/13/2015  15:06:00      177.437      177.463      160.639      118.560      114.663      113.930    14056.489    13147.513    12980.138        6.448        2.009      250.953       83.179        0.110      335.913        6.860      868.237
01/13/2015  15:07:00       93.944       96.681      144.619       97.879      111.056       87.306     9580.385    12333.334     7622.390        3.431        1.477      134.807       89.202        0.438      336.118        7.203      868.248
01/13/2015  15:08:00       83.283      -47.094       -3.030       64.425       82.687       36.349     4150.590     6837.202     1321.282        1.073        0.615       95.676       20.425        0.046      336.166        7.284      868.250
01/13/2015  15:09:00       28.948        9.061       46.062       62.473       85.281       59.436     3902.900     7272.799     3532.620        0.887        0.735       30.333       48.083        2.513      336.308        7.522      868.244
01/13/2015  15:10:00       87.717       45.713       70.610       87.951       87.322       53.625     7735.414     7625.060     2875.664        1.650        0.912       98.914       36.150        0.134      336.173        7.295      868.235
01/13/2015  15:11:00      125.691      -33.330       76.978      113.486       98.626       61.466    12879.160     9727.035     3778.092        2.461        1.319      130.035       48.287        0.138      336.183        7.314      868.215
01/13/2015  15:12:00      205.152      154.602      104.629      138.837       89.209       87.700    19275.613     7958.183     7691.336        5.592        1.746      256.883       70.622        0.076      336.023        7.042      868.220
01/13/2015  15:13:00      173.223      141.793      112.578      114.636      119.330       97.747    13141.480    14239.552     9554.517        4.985        1.847      223.856       80.597        0.130      335.891        6.825      868.231
01/13/2015  15:14:00       65.051       98.048      121.640       78.297       73.479       59.478     6130.403     5399.162     3537.636        2.185        0.753      117.665       49.933        0.180      336.135        7.233      868.231
01/13/2015  15:15:00      188.048      116.524       91.521      117.334       88.421       81.484    13767.337     7818.199     6639.639        4.277        1.411      221.223       67.566        0.093      335.887        6.818      868.226
01/13/2015  15:16:00      129.418      110.413       74.820      105.803       67.350       84.304    11194.360     4536.022     7107.175        2.868        1.142      170.118       68.670        0.163      336.031        7.058      868.226
01/13/2015  15:17:00      160.066       86.806       58.311      134.992      106.509       80.351    18222.905    11344.101     6456.262        3.628        1.801      182.089       75.121        0.170      335.933        6.895      868.225
01/13/2015  15:18:00      223.503      130.815       46.052      111.062       76.702       73.336    12334.830     5883.229     5378.184        4.639        1.180      258.971       63.021        0.059      335.905        6.845      868.223
01/13/2015  15:19:00      216.375      120.923       40.937      134.803       89.728       74.970    18171.777     8051.073     5620.478        4.747        1.592      247.872       62.812        0.064      335.733        6.561      868.216
01/13/2015  15:20:00      120.447       84.587       72.046       87.341       69.884       62.361     7628.514     4883.780     3888.955        2.162        0.820      147.182       58.860        0.160      335.904        6.847      868.215
01/13/2015  15:21:00      123.929       49.960       14.518      112.992       71.615       52.820    12767.296     5128.721     2789.988        1.937        1.034      133.620       33.228        0.062      335.898        6.837      868.203
01/13/2015  15:22:00      179.505      130.961       23.244       53.025       36.816       45.577     2811.615     1355.387     2077.250        2.808        0.312      222.200       21.974        0.010      335.794        6.661      868.202
01/13/2015  15:23:00      204.678      107.453       45.702      111.903       70.014       59.102    12522.186     4901.960     3493.007        3.822        1.046      231.169       34.802        0.023      335.839        6.737      868.186
01/13/2015  15:24:00      167.196       96.882       32.764      111.035      101.956       52.709    12328.692    10395.001     2778.220        3.195        1.275      193.237       43.194        0.050      335.843        6.744      868.185
01/13/2015  15:25:00      178.382      130.560       34.619      133.386       93.671       64.235    17791.775     8774.347     4126.144        4.037        1.535      221.057       50.172        0.052      335.812        6.692      868.188
01/13/2015  15:26:00       98.191      117.607        4.022       97.505       80.287       57.042     9507.263     6446.005     3253.738        2.134        0.960      153.209       40.998        0.072      335.782        6.644      868.180
01/13/2015  15:27:00      220.945      100.532       47.885      122.619      124.252       79.176    15035.410    15438.683     6268.899        4.897        1.837      242.741       55.565        0.052      335.987        6.984      868.173
01/13/2015  15:28:00      139.692      151.653      150.803      109.022      122.930       99.271    11885.803    15111.906     9854.700        5.105        1.843      206.186       94.076        0.208      335.896        6.830      868.174
01/13/2015  15:29:00      162.937       63.306      101.163      154.342      100.370       87.806    23821.454    10074.085     7709.870        4.119        2.080      174.803       75.468        0.186      335.894        6.828      868.181
01/13/2015  15:30:00      140.045       99.333       19.965       93.153       86.762       62.837     8677.433     7527.728     3948.452        2.501        1.008      171.696       43.051        0.063      335.981        6.975      868.220
01/13/2015  15:31:00      240.351      136.830       58.089      116.529       91.376       85.148    13579.094     8349.556     7250.181        5.452        1.459      276.570       40.232        0.021      335.877        6.801      868.234
01/13/2015  15:32:00      219.498      122.203       25.243      122.446       96.430       84.826    14993.007     9298.686     7195.437        4.761        1.574      251.223       67.482        0.072      335.837        6.732      868.244
01/13/2015  15:33:00      178.324      121.168       83.502      100.995       92.153       70.384    10200.001     8492.224     4953.902        3.855        1.182      215.595       40.555        0.035      335.863        6.777      868.256
01/13/2015  15:34:00      177.170      109.917       40.780       98.908      102.377       78.657     9782.823    10481.076     6186.885        3.579        1.323      208.497       17.538        0.007      335.837        6.733      868.242
01/13/2015  15:35:00      251.347      120.808       61.404      148.106       91.203       73.432    21935.310     8317.903     5392.231        5.859        1.782      278.872       67.073        0.058      335.784        6.645      868.240
01/13/2015  15:36:00      246.669      147.601       51.018      113.247       91.010       65.675    12824.950     8282.873     4313.269        5.532        1.271      287.458       56.646        0.039      335.781        6.640      868.240
01/13/2015  15:37:00      115.326       66.010       48.408      106.748       79.021       74.788    11395.133     6244.317     5593.175        2.161        1.162      132.881       36.678        0.076      335.847        6.751      868.234
01/13/2015  15:38:00      126.263       82.999       35.748       83.485       58.596       61.421     6969.785     3433.470     3772.583        1.914        0.709      151.100       33.146        0.048      335.903        6.845      868.237
01/13/2015  15:39:00      100.484       68.182       57.411       76.998       72.999       46.166     5928.690     5328.864     2131.303        1.571        0.669      121.432       29.073        0.057      336.050        7.089      868.224
01/13/2015  15:40:00      164.606       94.778       45.647       88.838       72.460       51.114     7892.158     5250.404     2612.612        2.696        0.788      189.943       41.303        0.047      335.959        6.936      868.189
01/13/2015  15:41:00       43.521       83.029       86.268       92.034       57.265       53.858     8470.248     3279.310     2900.638        1.544        0.733       93.744       50.981        0.296      336.045        7.082      868.184
01/13/2015  15:42:00      233.736      150.367       53.064      154.357      101.693       74.844    23826.068    10341.425     5601.614        5.991        1.988      277.926       62.411        0.050      335.906        6.850      868.184
01/13/2015  15:43:00      188.745      150.682       35.655      134.583      102.096       80.476    18112.594    10423.570     6476.443        4.730        1.751      241.515       53.900        0.050      335.816        6.700      868.175
01/13/2015  15:44:00      217.931      160.027       10.803      111.116       74.851       67.252    12346.750     5602.613     4522.766        4.784        1.124      270.375       45.759        0.029      335.826        6.715      868.169
01/13/2015  15:45:00      283.625      144.299       38.198      121.638       74.402       69.607    14795.782     5535.659     4845.155        6.395        1.259      318.223       30.044        0.009      335.759        6.603      868.163
01/13/2015  15:46:00      235.035      150.518      108.384      181.512      112.248       99.073    32946.566    12599.619     9815.471        7.249        2.768      279.101       99.768        0.128      335.752        6.591      868.146
01/13/2015  15:47:00      183.770      131.263       31.812      139.080       88.726       80.299    19343.267     7872.374     6447.882        4.283        1.683      225.835       60.293        0.071      335.711        6.523      868.153
01/13/2015  15:48:00      324.829      209.376       40.777      110.348       94.981       67.090    12176.602     9021.377     4501.071        8.835        1.285      386.461       31.054        0.006      335.709        6.520      868.151
01/13/2015  15:49:00      160.260      102.912       36.907      110.397       78.099       88.012    12187.454     6099.480     7746.057        3.183        1.302      190.458       45.839        0.058      335.822        6.709      868.152
01/13/2015  15:50:00      181.241      117.170       28.891       96.558       72.809       54.482     9323.497     5301.134     2968.316        3.250        0.880      215.817       22.277        0.011      335.747        6.584      868.142
01/13/2015  15:51:00      249.779      154.166       59.069      140.459       88.489       68.009    19728.775     7830.287     4625.192        6.091        1.609      293.525       45.550        0.024      335.718        6.536      868.139
01/13/2015  15:52:00      216.593      160.760       17.902      111.917       86.452       87.983    12525.416     7474.026     7741.044        5.040        1.387      269.734       49.861        0.034      335.687        6.484      868.153
01/13/2015  15:53:00      222.176      136.865       22.238       88.063       64.489       69.250     7755.126     4158.809     4795.562        4.265        0.835      260.949       43.980        0.028      335.788        6.652      868.166
01/13/2015  15:54:00      203.217      104.689       36.519      131.995       80.845       74.497    17422.592     6535.882     5549.871        4.154        1.475      228.597       21.810        0.009      335.816        6.698      868.157
01/13/2015  15:55:00      234.479      130.945       27.946       95.348       94.279       69.558     9091.318     8888.516     4838.304        4.786        1.141      268.565       39.955        0.022      335.806        6.679      868.172
01/13/2015  15:56:00      272.755      175.963       61.246      102.439       88.792       73.003    10493.783     7883.981     5329.366        6.640        1.185      324.589       44.697        0.019      335.737        6.564      868.172
01/13/2015  15:57:00      203.152       99.265       35.920      105.101       90.804       58.757    11046.323     8245.356     3452.420        3.758        1.137      226.107       49.390        0.048      335.765        6.613      868.172
01/13/2015  15:58:00      246.457      123.976        6.011       70.055       80.604       55.144     4907.710     6497.003     3040.808        4.529        0.722      275.883       38.098        0.019      335.780        6.636      868.195
01/13/2015  15:59:00      320.844      185.313       50.366      110.285       93.745       84.177    12162.887     8788.093     7085.715        8.392        1.402      370.516       53.336        0.021      335.590        6.320      868.188
01/13/2015  16:00:00      213.766      116.212       61.811      139.924       99.400       88.142    19578.694     9880.386     7769.042        5.012        1.861      243.313       74.733        0.094      335.604        6.345      868.180
01/13/2015  16:01:00      168.075       82.702       62.279      138.519      109.083       76.245    19187.442    11899.053     5813.253        3.793        1.845      187.321       55.629        0.088      335.613        6.361      868.188
01/13/2015  16:02:00      238.869      144.757      146.757      141.669      132.827      105.284    20070.184    17642.971    11084.690        7.417        2.440      279.308       87.224        0.098      335.577        6.301      868.188
01/13/2015  16:03:00      278.835      133.678       25.377      125.617      106.723       90.014    15779.565    11389.872     8102.481        6.576        1.764      309.223       61.032        0.039      335.559        6.269      868.213
01/13/2015  16:04:00      126.821       55.612       11.385      105.161       76.840       59.451    11058.923     5904.312     3534.371        1.990        1.025      138.478       51.219        0.137      335.589        6.323      868.234
01/13/2015  16:05:00      193.787      138.834        8.846      111.974       85.417       58.232    12538.211     7296.121     3391.000        4.006        1.161      238.386       46.887        0.039      335.633        6.394      868.252
01/13/2015  16:06:00      225.485      136.227       33.906      143.886      109.757       90.711    20703.289    12046.558     8228.518        5.576        2.049      263.441       47.956        0.033      335.582        6.308      868.256
01/13/2015  16:07:00      230.810      167.512       53.288      142.833      111.743      109.044    20401.219    12486.475    11890.586        6.447        2.239      285.190       67.410        0.056      335.561        6.274      868.268
01/13/2015  16:08:00      267.726      157.738       38.023      115.907       87.417       72.059    13434.385     7641.773     5192.566        6.213        1.313      310.739       30.912        0.010      335.559        6.270      868.281
01/13/2015  16:09:00      313.071      176.364       47.863      153.582      105.048       93.720    23587.292    11035.057     8783.361        8.740        2.170      359.329       47.386        0.017      335.468        6.118      868.292
01/13/2015  16:10:00      256.084      143.402       43.380      112.740      104.961       71.928    12710.253    11016.783     5173.639        5.846        1.445      293.501       35.701        0.015      335.472        6.126      868.278
01/13/2015  16:11:00      118.698       50.542       30.967      104.882       74.055       59.420    11000.154     5484.136     3530.781        1.881        1.001      129.011       49.611        0.148      335.545        6.250      868.273
01/13/2015  16:12:00      172.734      134.616       43.824      153.063       94.172       76.177    23428.269     8868.359     5802.870        4.398        1.905      218.994       38.038        0.030      335.545        6.248      868.254
01/13/2015  16:13:00      324.639      188.689       35.817       98.425       83.692       79.121     9687.463     7004.399     6260.184        8.261        1.148      375.492       48.681        0.017      335.463        6.109      868.232
01/13/2015  16:14:00      199.405      107.529       43.034      142.527      101.781       80.106    20313.826    10359.353     6416.947        4.513        1.855      226.550       45.174        0.040      335.492        6.161      868.203
01/13/2015  16:15:00      159.907      115.137       28.208      123.628       91.013       57.341    15283.840     8283.354     3287.952        3.323        1.343      197.045       31.726        0.026      335.489        6.154      868.210
01/13/2015  16:16:00      193.033      126.472       33.787      116.044       73.807       57.963    13466.307     5447.540     3359.745        3.833        1.114      230.774       39.903        0.030      335.459        6.104      868.192
01/13/2015  16:17:00      226.149      123.093       23.498      133.363       86.543       72.526    17785.743     7489.669     5259.982        4.869        1.527      257.478       34.214        0.018      335.475        6.130      868.174
01/13/2015  16:18:00      200.542      130.707       22.670      132.518       97.242       62.879    17560.981     9456.051     3953.779        4.439        1.549      239.377       30.205        0.016      335.474        6.130      868.160
01/13/2015  16:19:00      202.827      144.422       21.649       75.754       84.566       60.603     5738.712     7151.490     3672.714        3.951        0.828      248.991       37.247        0.022      335.456        6.099      868.163
01/13/2015  16:20:00      174.601      129.201       -4.114       92.384       71.981       62.072     8534.726     5181.244     3852.908        3.238        0.878      217.206       32.630        0.023      335.455        6.099      868.162
01/13/2015  16:21:00      148.925       82.046       30.473       65.490       60.124       46.617     4289.005     3614.910     2173.166        1.996        0.504      170.030       33.522        0.039      335.495        6.165      868.150
01/13/2015  16:22:00      130.712      120.467       93.261      125.312       90.477       84.185    15703.132     8186.064     7087.187        3.563        1.549      177.758       71.341        0.161      335.504        6.180      868.144
01/13/2015  16:23:00      146.920      118.113       58.912       80.725       79.532       71.559     6516.479     6325.305     5120.677        2.848        0.898      188.510       42.735        0.051      335.493        6.160      868.127
01/13/2015  16:24:00      231.979      120.387       56.095      122.399      104.759       99.694    14981.429    10974.344     9938.981        5.367        1.795      261.356       70.828        0.073      335.456        6.099      868.105
01/13/2015  16:25:00      122.729       76.976       48.753       80.042       58.887       69.347     6406.722     3467.664     4808.973        1.902        0.734      144.871       51.600        0.127      335.452        6.094      868.110
01/13/2015  16:26:00      124.180      103.529       33.013       71.571       52.918       58.101     5122.360     2800.306     3375.741        1.926        0.565      161.676       24.301        0.023      335.452        6.094      868.101
01/13/2015  16:27:00      192.742      139.335       30.078      100.389       70.772       63.722    10077.929     5008.695     4060.464        3.830        0.957      237.831       28.375        0.014      335.430        6.058      868.105
01/13/2015  16:28:00      210.362      119.968       31.359       59.382       56.330       50.079     3526.248     3173.104     2507.943        3.442        0.460      242.166       19.531        0.007      335.435        6.064      868.097
01/13/2015  16:29:00      234.110      130.382       64.122       71.851       74.271       61.968     5162.528     5516.161     3839.991        4.522        0.726      267.968       40.026        0.022      335.430        6.053      868.100
01/13/2015  16:30:00      163.432      130.958       40.387       98.017       63.259       63.623     9607.294     4001.732     4047.917        3.157        0.883      209.428       34.577        0.027      335.430        6.056      868.086
01/13/2015  16:31:00      213.645      111.985       28.172      151.957      103.621       50.793    23090.990    10737.320     2579.879        4.769        1.820      241.215        8.530        0.001      335.395        6.000      868.084
01/13/2015  16:32:00      149.899      111.546       39.960      116.875       84.859       67.960    13659.655     7200.967     4618.598        3.099        1.274      186.848       31.821        0.029      335.376        5.967      868.064
01/13/2015  16:33:00      274.591      170.030       42.974      139.252       82.627       85.520    19391.240     6827.298     7313.701        6.984        1.677      322.971       28.499        0.008      335.330        5.888      868.047
01/13/2015  16:34:00      195.558      110.630       54.639      119.292       91.975       63.814    14230.483     8459.406     4072.278        4.011        1.338      224.681       50.475        0.050      335.320        5.871      868.059
01/13/2015  16:35:00      234.457      143.770       42.162       99.984       75.856       65.555     9996.877     5754.144     4297.427        4.873        1.002      275.027       38.600        0.020      335.275        5.796      868.064
01/13/2015  16:36:00      298.048      198.215       25.997      102.523       79.964       92.967    10510.880     6394.233     8642.813        7.717        1.277      357.941       35.677        0.010      335.275        5.797      868.053
01/13/2015  16:37:00      155.626      101.669       43.142      105.863       73.330       52.073    11206.881     5377.350     2711.628        2.785        0.965      185.892       37.802        0.041      335.259        5.772      868.065
01/13/2015  16:38:00      177.891      113.205       27.091       89.316       62.627       57.098     7977.333     3922.122     3260.207        3.017        0.758      210.857       38.874        0.034      335.266        5.783      868.086
01/13/2015  16:39:00      260.985      161.119       39.445       85.272       92.240       61.991     7271.326     8508.224     3842.885        5.762        0.981      306.712       24.552        0.006      335.236        5.732      868.094
01/13/2015  16:40:00      247.681      148.128       48.629      114.883       79.661       73.813    13198.040     6345.852     5448.290        5.532        1.250      288.596       28.479        0.010      335.220        5.706      868.102
01/13/2015  16:41:00      162.923      125.741       40.719       83.056       73.331       71.418     6898.218     5377.379     5100.530        3.069        0.869      205.802       43.266        0.044      335.210        5.688      868.103
01/13/2015  16:42:00      172.831      117.404       24.077      110.576       78.794       74.551    12227.011     6208.487     5557.891        3.411        1.200      208.936       47.199        0.051      335.181        5.641      868.109
01/13/2015  16:43:00      189.115      154.217       15.727       86.408       83.295       73.414     7466.365     6937.985     5389.638        3.979        0.990      244.024       55.144        0.051      335.167        5.620      868.117
01/13/2015  16:44:00      184.944      114.803       15.516      112.008       73.643       72.377    12545.874     5423.242     5238.458        3.541        1.160      217.678       46.837        0.046      335.161        5.609      868.130
01/13/2015  16:45:00      295.950      176.179       60.738       79.175      102.286       70.275     6268.626    10462.502     4938.626        7.199        1.083      344.421       28.412        0.007      335.167        5.620      868.125
01/13/2015  16:46:00      169.935      117.146       36.948      131.798       85.120       65.095    17370.640     7245.477     4237.375        3.641        1.443      206.401       60.761        0.087      335.152        5.595      868.142
01/13/2015  16:47:00      168.158      110.407       36.514      105.015       88.365       57.439    11028.050     7808.313     3299.270        3.196        1.107      201.164       26.074        0.017      335.124        5.549      868.157
01/13/2015  16:48:00      244.924      149.583       41.529      109.944       93.391       70.282    12087.603     8721.808     4939.538        5.491        1.287      286.990       42.279        0.022      335.117        5.537      868.159
01/13/2015  16:49:00      268.309      177.754       45.776      100.204       66.199       70.876    10040.894     4382.304     5023.359        6.256        0.972      321.848       32.623        0.010      335.135        5.567      868.166
01/13/2015  16:50:00      254.008      177.126       37.091      122.115       99.182       71.006    14912.190     9837.017     5041.891        6.353        1.490      309.667       35.453        0.013      335.128        5.556      868.177
01/13/2015  16:51:00      209.384      126.837       37.067      101.586       85.465       82.682    10319.786     7304.237     6836.240        4.288        1.223      244.804       36.077        0.022      335.118        5.538      868.188
01/13/2015  16:52:00      323.980      218.668       39.008      119.888      101.976       68.016    14373.049    10399.118     4626.188        9.184        1.470      390.870       35.795        0.008      335.132        5.562      868.194
01/13/2015  16:53:00      194.337      136.441       67.248       99.692       83.120       56.136     9938.410     6909.014     3151.205        4.045        1.000      237.451       43.140        0.033      335.113        5.530      868.205
01/13/2015  16:54:00      185.001       98.612       35.661       72.782       60.579       49.515     5297.160     3669.822     2451.718        2.832        0.571      209.641       14.978        0.005      335.074        5.466      868.230
01/13/2015  16:55:00      209.433      131.422       25.657       90.044       66.868       63.637     8107.904     4471.284     4049.616        3.921        0.831      247.253       33.766        0.019      335.049        5.424      868.250
01/13/2015  16:56:00      219.424      152.238       34.100      163.145      106.522       72.641    26616.416    11346.897     5276.698        5.786        2.162      267.064       43.216        0.026      335.028        5.390      868.259
01/13/2015  16:57:00      212.547      114.649       32.206      114.801       82.632       60.999    13179.285     6828.047     3720.913        4.154        1.186      241.497       21.749        0.008      335.020        5.376      868.261
01/13/2015  16:58:00      130.271       79.424       20.242      105.136       72.752       45.489    11053.617     5292.828     2069.215        2.105        0.921      152.574       32.517        0.045      334.985        5.317      868.282
01/13/2015  16:59:00      229.799      134.760       28.987       73.158       64.499       56.807     5352.157     4160.162     3227.032        4.227        0.637      266.398       39.971        0.023      334.986        5.317      868.297
01/13/2015  17:00:00      227.163      152.600       25.157       93.323       66.707       57.677     8709.122     4449.811     3326.635        4.600        0.824      273.660       28.758        0.011      334.986        5.319      868.307
01/13/2015  17:01:00      198.663      134.612       32.055       82.349       64.737       63.830     6781.353     4190.887     4074.326        3.683        0.752      239.974       29.083        0.015      334.972        5.295      868.320
01/13/2015  17:02:00      216.703      157.820       64.454      127.865      108.918       77.095    16349.514    11863.128     5943.641        5.508        1.708      268.081       50.429        0.035      334.975        5.299      868.300
01/13/2015  17:03:00      126.381       94.290       63.574      104.635       60.204       72.065    10948.514     3624.508     5193.430        2.433        0.988      157.679       54.589        0.120      334.970        5.292      868.305
01/13/2015  17:04:00      158.020      100.173       14.937       83.015       73.979       50.910     6891.446     5472.836     2591.856        2.509        0.748      187.096       37.064        0.039      334.933        5.230      868.324
01/13/2015  17:05:00      203.709      135.919       30.582       98.557       64.826       65.103     9713.420     4202.394     4238.450        3.953        0.908      244.890       21.495        0.008      334.929        5.222      868.331
01/13/2015  17:06:00      215.253      132.368       26.068       91.362       67.592       54.964     8347.073     4568.707     3021.080        4.023        0.797      252.696       15.253        0.004      334.891        5.160      868.347
01/13/2015  17:07:00      128.565       84.683       21.257       90.851       57.626       55.506     8253.901     3320.771     3080.895        1.940        0.733      153.948       17.725        0.013      334.862        5.113      868.369
01/13/2015  17:08:00      175.885      122.783       15.723       92.644       61.473       65.774     8582.953     3778.921     4326.175        3.147        0.834      214.502       32.100        0.022      334.864        5.114      868.371
01/13/2015  17:09:00      215.081      146.916       25.393       64.670       56.730       61.398     4182.242     3218.292     3769.696        3.983        0.559      260.469       23.114        0.008      334.857        5.102      868.390
01/13/2015  17:10:00      274.525      187.458       38.616      153.208       91.523       74.445    23472.698     8376.454     5542.056        7.469        1.870      332.422       40.156        0.015      334.871        5.126      868.385
01/13/2015  17:11:00      194.167      126.636       28.373       84.589       78.072       54.481     7155.253     6095.208     2968.184        3.538        0.811      231.814       33.852        0.021      334.835        5.067      868.386
01/13/2015  17:12:00      103.139       58.234       13.569       77.292       78.387       52.620     5974.033     6144.573     2768.902        1.455        0.744      118.443       30.707        0.067      334.807        5.022      868.394
01/13/2015  17:13:00      151.289       87.828       17.759       69.089       61.768       53.695     4773.327     3815.262     2883.136        2.119        0.574      174.934       28.748        0.027      334.812        5.030      868.409
01/13/2015  17:14:00      161.449       80.744       23.850       76.139       63.215       53.456     5797.209     3996.094     2857.580        2.290        0.633      180.514       29.905        0.027      334.789        4.990      868.428
01/13/2015  17:15:00      124.715       90.118       18.803       77.877       67.974       52.335     6064.845     4620.482     2738.947        1.872        0.671      153.867       36.640        0.057      334.770        4.960      868.450
01/13/2015  17:16:00      120.457      100.795        0.178       56.135       53.827       50.749     3151.122     2897.322     2575.483        1.665        0.431      157.066       40.128        0.065      334.732        4.897      868.470
01/13/2015  17:17:00      175.024      113.032       11.879      100.080       72.179       58.386    10016.033     5209.820     3408.980        3.109        0.932      208.350       28.598        0.019      334.755        4.935      868.489
01/13/2015  17:18:00      166.061      114.480       22.175       63.790       58.693       46.464     4069.152     3444.861     2158.878        2.542        0.484      201.698       31.465        0.024      334.778        4.972      868.496
01/13/2015  17:19:00      124.154       89.298       23.925       60.503       53.307       36.325     3660.579     2841.586     1319.522        1.589        0.391      152.932       17.842        0.014      334.735        4.904      868.512
01/13/2015  17:20:00      160.473      132.472        0.446       84.546       64.854       55.606     7148.052     4206.011     3092.025        2.887        0.722      208.088       30.840        0.022      334.738        4.904      868.522
01/13/2015  17:21:00       94.510       72.329       14.548       57.534       50.473       41.459     3310.190     2547.495     1718.827        1.097        0.379      119.011       29.364        0.061      334.686        4.821      868.525
01/13/2015  17:22:00      129.351       90.428       15.476       73.037       60.451       41.744     5334.385     3654.288     1742.602        1.794        0.537      157.826       37.185        0.056      334.693        4.833      868.542
01/13/2015  17:23:00      170.190       91.381       20.209       64.386       56.176       49.417     4145.608     3155.698     2442.003        2.373        0.487      193.171       31.510        0.027      334.715        4.868      868.555
01/13/2015  17:24:00      113.937       57.850       59.343       80.467       57.657       58.641     6475.008     3324.301     3438.709        1.654        0.662      127.782       47.818        0.140      334.694        4.834      868.565
01/13/2015  17:25:00      135.927       60.144       14.826       58.670       54.282       45.409     3442.122     2946.586     2062.002        1.538        0.423      148.638       30.421        0.042      334.686        4.822      868.573
01/13/2015  17:26:00      158.723      102.170       23.208       71.782       57.322       41.968     5152.700     3285.799     1761.354        2.318        0.510      188.763       29.898        0.025      334.690        4.826      868.578
01/13/2015  17:27:00      153.014       88.776        3.399       43.963       53.239       34.754     1932.732     2834.438     1207.808        1.864        0.299      176.902       13.203        0.006      334.697        4.838      868.578
01/13/2015  17:28:00      102.769       67.967       52.576       51.105       40.729       39.164     2611.671     1658.826     1533.784        1.187        0.290      123.211       16.793        0.019      334.658        4.775      868.586
01/13/2015  17:29:00      181.260       94.794       15.043       85.171       70.503       56.301     7254.138     4970.696     3169.753        2.873        0.770      204.551       28.185        0.019      334.722        4.877      868.592
01/13/2015  17:30:00       92.215       61.741       27.529       66.843       41.678       41.329     4467.986     1737.059     1708.100        1.049        0.396      110.975       37.610        0.115      334.674        4.802      868.601
01/13/2015  17:31:00      123.977       65.701        4.189       62.090       39.909       31.778     3855.208     1592.729     1009.865        1.308        0.323      140.310       25.269        0.032      334.653        4.765      868.622
01/13/2015  17:32:00      184.570      125.137       24.672       69.089       54.846       35.070     4773.230     3008.110     1229.904        2.967        0.451      222.992       27.278        0.015      334.635        4.733      868.629
01/13/2015  17:33:00      112.593       68.767       28.522       72.916       61.047       49.459     5316.723     3726.696     2446.150        1.485        0.574      131.932       28.156        0.046      334.626        4.722      868.636
01/13/2015  17:34:00      112.925       69.621       14.083       49.465       46.362       38.238     2446.742     2149.467     1462.170        1.193        0.303      132.662       19.308        0.021      334.588        4.658      868.642
01/13/2015  17:35:00      124.940       69.236       28.642       63.514       57.131       31.171     4033.969     3263.968      971.614        1.475        0.413      142.841       24.969        0.031      334.583        4.649      868.658
01/13/2015  17:36:00      114.214       52.978       30.337       51.086       44.166       39.667     2609.737     1950.618     1573.443        1.145        0.307      125.902       19.552        0.024      334.603        4.683      868.656
01/13/2015  17:37:00      224.520      124.859       59.893       86.769       78.410       56.396     7528.934     6148.178     3180.515        4.322        0.843      256.903       34.399        0.018      334.637        4.736      868.661
01/13/2015  17:38:00      217.509      119.985       25.008       61.295       51.935       55.338     3757.108     2697.251     3062.270        3.592        0.476      248.408       27.421        0.012      334.618        4.705      868.663
01/13/2015  17:39:00      158.034       24.967       12.289       66.404       49.793       37.850     4409.538     2479.316     1432.599        1.703        0.416      159.994       33.845        0.045      334.615        4.703      868.669
01/13/2015  17:40:00      119.876       58.258       24.185       76.372       51.678       45.857     5832.706     2670.577     2102.884        1.448        0.530      133.282       32.315        0.059      334.613        4.700      868.686
01/13/2015  17:41:00       74.950       53.881       15.586       63.129       55.554       37.723     3985.244     3086.200     1422.998        0.863        0.425       92.307       27.931        0.092      334.555        4.604      868.689
01/13/2015  17:42:00       94.330       85.585       26.158       53.156       40.804       34.208     2825.552     1664.983     1170.158        1.128        0.283      127.369       17.133        0.018      334.537        4.574      868.700
01/13/2015  17:43:00       72.584       51.214       12.150       37.370       35.823       26.606     1396.523     1283.317      707.880        0.571        0.169       88.833       16.947        0.036      334.538        4.576      868.709
01/13/2015  17:44:00       87.728       52.863       23.991       48.523       34.911       29.225     2354.486     1218.770      854.108        0.775        0.221      102.424       23.519        0.053      334.526        4.557      868.717
01/13/2015  17:45:00       83.068       35.745       38.394       82.847       53.383       36.451     6863.680     2849.772     1328.709        1.035        0.552       90.433       26.385        0.085      334.525        4.555      868.717
01/13/2015  17:46:00       82.712       62.180       26.082       65.212       32.447       46.211     4252.593     1052.792     2135.435        0.941        0.372      103.477       40.828        0.156      334.513        4.535      868.721
01/13/2015  17:47:00      119.625       95.061       19.050       51.151       35.863       38.007     2616.427     1286.183     1444.538        1.453        0.267      152.796       28.588        0.035      334.526        4.556      868.740
01/13/2015  17:48:00      120.598       72.733       41.956       36.269       24.334       27.712     1315.410      592.153      767.955        1.213        0.134      140.833       19.770        0.020      334.470        4.463      868.749
01/13/2015  17:49:00      201.179      108.226       55.556       77.773       52.440       47.956     6048.577     2749.956     2299.819        3.318        0.555      228.442       39.028        0.029      334.515        4.534      868.769
01/13/2015  17:50:00      169.858       98.857       38.518       59.000       60.099       54.232     3481.021     3611.916     2941.163        2.507        0.502      196.531       25.297        0.017      334.541        4.578      868.768
01/13/2015  17:51:00      119.442       71.540       20.102       51.971       54.099       37.590     2700.984     2926.673     1412.973        1.341        0.352      139.227       27.811        0.040      334.501        4.514      868.781
01/13/2015  17:52:00      159.177       95.646       16.235       75.810       70.059       60.143     5747.105     4908.219     3617.203        2.451        0.714      185.703       42.388        0.052      334.513        4.532      868.793
01/13/2015  17:53:00      182.678      117.942       34.145       73.261       59.531       53.017     5367.221     3543.923     2810.779        3.008        0.586      217.444       31.273        0.021      334.525        4.552      868.779
01/13/2015  17:54:00      127.287       91.953       18.300       81.118       54.930       45.617     6580.204     3017.323     2080.896        1.833        0.584      157.027       20.616        0.017      334.500        4.513      868.788
01/13/2015  17:55:00      125.442       84.312       47.217       66.543       51.215       62.662     4427.964     2622.981     3926.474        1.802        0.549      151.143       33.282        0.048      334.480        4.478      868.786
01/13/2015  17:56:00      242.271      160.519       39.207       84.028       58.545       69.039     7060.698     3427.521     4766.443        5.062        0.763      290.623       38.667        0.018      334.524        4.548      868.771
01/13/2015  17:57:00      186.588       96.603       21.273       79.408       72.658       46.676     6305.673     5279.163     2178.657        2.918        0.688      210.112       17.980        0.007      334.530        4.559      868.767
01/13/2015  17:58:00      176.291       99.488       18.253       65.281       46.276       40.322     4261.597     2141.489     1625.892        2.467        0.401      202.427       20.586        0.010      334.453        4.433      868.770
01/13/2015  17:59:00      117.591       66.350       20.624       54.809       42.838       38.295     3004.055     1835.121     1466.510        1.248        0.315      135.019       27.038        0.040      334.426        4.391      868.776
01/13/2015  18:00:00      122.630       82.603        7.837       59.473       51.750       39.517     3537.031     2678.104     1561.585        1.485        0.389      147.856       23.668        0.026      334.389        4.330      868.795
01/13/2015  18:01:00      151.763       94.111       26.805       60.903       51.678       48.451     3709.222     2670.617     2347.466        2.067        0.436      178.575       14.517        0.007      334.360        4.281      868.804
01/13/2015  18:02:00      148.648       80.355       21.130       65.830       53.167       45.146     4333.524     2826.731     2038.164        1.910        0.460      168.977       20.772        0.015      334.433        4.400      868.811
01/13/2015  18:03:00      104.670       60.536       35.993       63.732       36.886       37.237     4061.706     1360.586     1386.588        1.136        0.340      120.915       11.997        0.010      334.392        4.334      868.814
01/13/2015  18:04:00      102.107       79.055       23.164       54.085       33.626       34.860     2925.229     1130.714     1215.250        1.124        0.264      129.134       33.675        0.068      334.373        4.303      868.824
01/13/2015  18:05:00       89.571       52.623       23.340       79.162       42.942       33.486     6266.569     1844.057     1121.309        1.028        0.462      103.885       26.359        0.064      334.360        4.281      868.846
01/13/2015  18:06:00      145.934       92.248       37.024       88.306       65.631       41.594     7797.983     4307.411     1730.085        2.250        0.692      172.645       22.654        0.017      334.420        4.379      868.858
01/13/2015  18:07:00       79.110       57.467       27.341       54.139       46.563       36.384     2931.038     2168.101     1323.824        0.836        0.321       97.780       19.739        0.041      334.413        4.370      868.862
01/13/2015  18:08:00      107.013       48.199       42.032       52.142       52.393       34.081     2718.800     2745.044     1161.484        1.108        0.331      117.367       15.078        0.017      334.368        4.295      868.888
01/13/2015  18:09:00      141.452       79.572       33.374       52.041       37.835       38.955     2708.315     1431.499     1517.473        1.655        0.283      162.297       22.143        0.019      334.404        4.354      868.907
01/13/2015  18:10:00      141.241       88.496       23.017       74.079       62.097       37.829     5487.705     3856.058     1431.056        1.954        0.539      166.675       30.704        0.034      334.414        4.370      868.904
01/13/2015  18:11:00      174.782      115.534       37.349       55.297       38.134       40.916     3057.722     1454.231     1674.152        2.574        0.309      209.516       21.822        0.011      334.453        4.432      868.915
01/13/2015  18:12:00      182.619       82.714        3.868       68.507       62.189       36.300     4693.165     3867.522     1317.677        2.504        0.494      200.477       17.030        0.007      334.396        4.338      868.922
01/13/2015  18:13:00      128.620       56.411       19.067       51.463       39.599       34.714     2648.421     1568.051     1205.081        1.275        0.271      140.447       25.776        0.034      334.343        4.254      868.930
01/13/2015  18:14:00      103.279       32.604       14.136       61.389       42.560       42.443     3768.652     1811.342     1801.377        0.965        0.369      108.303       28.482        0.069      334.381        4.316      868.931
01/13/2015  18:15:00       58.676       51.961        7.040       37.411       37.651       30.137     1399.561     1417.629      908.211        0.496        0.186       78.376       28.303        0.130      334.304        4.188      868.945
01/13/2015  18:16:00      187.009       77.502       26.600       60.733       47.870       40.000     3688.489     2291.501     1599.968        2.463        0.379      202.433       21.046        0.011      334.355        4.270      868.948
01/13/2015  18:17:00      124.290      104.715       60.498      101.030       62.654       56.920    10206.969     3925.540     3239.936        2.372        0.869      162.522       46.345        0.081      334.418        4.375      868.937
01/13/2015  18:18:00      132.077       73.016       39.370       77.979       61.734       44.641     6080.801     3811.027     1992.789        1.810        0.594      150.916       14.402        0.009      334.309        4.194      868.953
01/13/2015  18:19:00      132.869       45.443       29.565       79.861       51.563       39.785     6377.750     2658.699     1582.808        1.560        0.531      140.426       33.136        0.056      334.346        4.258      868.942
01/13/2015  18:20:00       84.514       62.417       27.922       48.962       40.716       35.556     2397.282     1657.792     1264.242        0.857        0.266      105.064       21.358        0.041      334.292        4.168      868.951
01/13/2015  18:21:00       52.050       57.885       40.304       33.945       30.855       20.606     1152.285      952.029      424.621        0.511        0.126       77.846       19.829        0.065      334.240        4.082      868.963
01/13/2015  18:22:00       52.103       36.586       32.992       34.895       26.260       25.538     1217.645      689.579      652.183        0.385        0.128       63.665       14.852        0.054      334.311        4.202      868.976
01/13/2015  18:23:00      110.506       98.813       58.640       42.498       36.399       35.032     1806.045     1324.856     1227.228        1.489        0.218      148.241       13.497        0.008      334.373        4.303      868.986
01/13/2015  18:24:00      102.144       44.030       25.780       52.211       41.910       34.881     2725.968     1756.407     1216.673        0.937        0.285      111.230       21.892        0.039      334.351        4.267      868.988
01/13/2015  18:25:00       69.829       51.528       40.052       40.788       28.096       29.297     1663.630      789.400      858.289        0.622        0.166       86.782       18.971        0.048      334.266        4.126      868.988
01/13/2015  18:26:00      106.509       44.707       29.007       65.783       49.818       38.574     4327.373     2481.792     1487.980        1.124        0.415      115.511       29.001        0.063      334.321        4.216      868.991
01/13/2015  18:27:00       90.939       41.639       27.882       53.302       40.924       42.599     2841.136     1674.748     1814.677        0.855        0.317      100.018       20.150        0.041      334.296        4.175      868.993
01/13/2015  18:28:00      113.653       45.710       25.672       51.326       37.515       38.930     2634.378     1407.395     1515.540        1.061        0.278      122.501       32.031        0.068      334.270        4.133      868.992
01/13/2015  18:29:00      127.399       49.739       22.645       35.519       39.354       35.182     1261.566     1548.765     1237.761        1.163        0.202      136.764       20.642        0.023      334.261        4.118      869.004
01/13/2015  18:30:00       99.136       45.717       24.039       56.135       36.131       36.224     3151.118     1305.482     1312.176        0.913        0.288      109.169       26.856        0.061      334.284        4.155      869.023
01/13/2015  18:31:00      113.711       85.444       25.267       43.611       30.837       33.911     1901.932      950.938     1149.972        1.244        0.200      142.235       25.969        0.033      334.286        4.159      869.027
01/13/2015  18:32:00       87.108       53.505       21.368       35.198       32.220       23.570     1238.881     1038.138      555.522        0.687        0.142      102.228       17.660        0.030      334.249        4.099      869.020
01/13/2015  18:33:00       92.180       67.407       15.594       42.561       30.626       30.980     1811.422      937.921      959.765        0.850        0.185      114.197       26.292        0.053      334.241        4.085      869.033
01/13/2015  18:34:00       86.920       49.032       40.701       57.229       46.658       34.646     3275.124     2176.994     1200.347        0.913        0.333       99.796       29.561        0.088      334.279        4.146      869.040
01/13/2015  18:35:00      124.388       48.398       39.785       75.950       53.959       54.314     5768.335     2911.542     2950.064        1.551        0.581      133.472       44.746        0.112      334.450        4.431      869.050
01/13/2015  18:36:00       69.115       36.964       18.966       35.415       33.284       32.181     1254.243     1107.818     1035.608        0.495        0.170       78.379       20.061        0.066      334.303        4.186      869.067
01/13/2015  18:37:00       51.187       30.990       23.320       39.781       23.093       28.821     1582.539      533.290      830.627        0.353        0.147       59.837       30.695        0.263      334.282        4.153      869.076
01/13/2015  18:38:00       44.400       51.434       37.625       26.170       23.250       23.193      684.855      540.546      537.919        0.390        0.088       67.947       15.468        0.052      334.246        4.092      869.093
01/13/2015  18:39:00       81.763       51.812       30.209       38.540       23.291       27.379     1485.323      542.490      749.632        0.653        0.139       96.797       26.125        0.073      334.199        4.014      869.110
01/13/2015  18:40:00       65.642       42.672       33.969       38.246       36.657       30.328     1462.793     1343.772      919.778        0.550        0.186       78.293       21.735        0.077      334.191        4.000      869.116
01/13/2015  18:41:00       57.240       11.974       23.147       33.721       29.730       23.263     1137.124      883.868      541.167        0.326        0.128       58.479       21.913        0.140      334.251        4.102      869.115
01/13/2015  18:42:00       65.417       28.581        6.300       30.247       23.609       21.396      914.878      557.398      457.798        0.353        0.097       71.388       20.183        0.080      334.284        4.155      869.112
01/13/2015  18:43:00       41.601       47.899       34.192       23.747       20.877       23.102      563.915      435.840      533.688        0.336        0.077       63.443       12.134        0.037      334.212        4.035      869.134
01/13/2015  18:44:00       83.945       68.466       48.091       58.526       34.524       37.836     3425.246     1191.877     1431.557        1.005        0.302      108.325       24.652        0.052      334.290        4.166      869.151
01/13/2015  18:45:00       61.832       57.678       51.438       55.187       42.685       47.964     3045.615     1822.042     2300.570        0.848        0.358       84.557       40.435        0.229      334.272        4.136      869.148
01/13/2015  18:46:00       70.357       53.174        9.244       35.147       25.180       23.371     1235.336      634.027      546.210        0.514        0.121       88.191       14.699        0.028      334.107        3.860      869.147
01/13/2015  18:47:00       51.684       45.664        1.558       26.771       21.665       14.228      716.696      469.363      202.435        0.307        0.069       68.967        5.261        0.006      334.097        3.845      869.158
01/13/2015  18:48:00       35.960       17.810        9.330       17.335       21.738       14.589      300.505      472.545      212.837        0.134        0.049       40.129        8.410        0.044      334.103        3.856      869.162
01/13/2015  18:49:00       57.276       24.237        7.865       25.880       19.187       16.300      669.795      368.157      265.705        0.262        0.065       62.193        6.660        0.011      334.124        3.890      869.169
01/13/2015  18:50:00       93.385       51.428       20.598       30.350       27.586       19.173      921.113      760.973      367.621        0.692        0.102      106.610       15.175        0.020      334.125        3.890      869.170
01/13/2015  18:51:00       64.366       25.119       14.838       38.919       31.505       20.838     1514.677      992.539      434.220        0.397        0.147       69.094       16.958        0.060      334.049        3.766      869.157
01/13/2015  18:52:00       54.815        5.329       -4.582       32.269       16.261       16.514     1041.276      264.421      272.705        0.232        0.079       55.073       11.026        0.040      334.052        3.770      869.150
01/13/2015  18:53:00       86.893       72.262       41.891       34.228       34.421       26.764     1171.573     1184.818      716.290        0.880        0.154      113.014       17.906        0.025      334.243        4.087      869.138
01/13/2015  18:54:00       53.830       16.479       44.427       48.817       28.733       29.835     2383.103      825.569      890.099        0.462        0.205       56.295       25.746        0.209      334.149        3.932      869.137
01/13/2015  18:55:00       38.083       37.762       23.811       38.394       40.434       25.146     1474.061     1634.940      632.337        0.359        0.187       53.631       19.398        0.131      334.154        3.939      869.133
01/13/2015  18:56:00       62.366       38.565       14.838       32.247       27.840       15.732     1039.870      775.055      247.487        0.383        0.103       73.327        9.627        0.017      334.167        3.961      869.131
01/13/2015  18:57:00       76.358       49.983       36.454       31.711       25.227       27.134     1005.575      636.382      736.275        0.602        0.119       91.262       22.188        0.059      334.136        3.909      869.129
01/13/2015  18:58:00       52.147       40.846       15.206       31.449       23.773       19.160      989.070      565.144      367.101        0.327        0.096       66.240       12.558        0.036      334.173        3.972      869.135
01/13/2015  18:59:00       69.417       39.396       14.101       20.552       22.569       16.992      422.368      509.377      288.740        0.389        0.061       79.817       13.043        0.027      334.106        3.859      869.141
01/13/2015  19:00:00       59.597       51.826       28.875       19.531       17.844       19.251      381.470      318.404      370.590        0.407        0.054       78.979        9.265        0.014      334.056        3.777      869.154
01/13/2015  19:01:00       33.494       29.291        9.223       24.753       27.562       18.543      612.701      759.680      343.859        0.189        0.086       44.495        8.667        0.038      334.091        3.835      869.153
01/13/2015  19:02:00       53.066       13.227       21.966       23.550       20.675       16.217      554.589      427.461      262.993        0.236        0.062       54.690        8.983        0.027      334.104        3.857      869.158
01/13/2015  19:03:00       30.865       55.831       48.974       25.349       20.832       16.541      642.571      433.972      273.613        0.391        0.068       63.795        6.012        0.009      334.170        3.967      869.156
01/13/2015  19:04:00       28.073       49.646       50.361       23.677       22.435       14.967      560.596      503.328      224.000        0.354        0.064       57.034        9.609        0.028      334.228        4.061      869.161
01/13/2015  19:05:00       48.998       38.846       35.168       41.649       27.277       32.275     1734.643      744.050     1041.643        0.433        0.176       62.529       28.026        0.201      334.228        4.063      869.166
01/13/2015  19:06:00       71.314       46.378        5.294       30.049       21.170       19.540      902.941      448.165      381.822        0.450        0.087       85.068        8.036        0.009      334.154        3.938      869.183
01/13/2015  19:07:00       97.648       56.289       12.199       21.710       27.886       23.770      471.304      777.651      565.007        0.733        0.091      112.710       13.430        0.014      334.151        3.934      869.187
01/13/2015  19:08:00       62.606       33.861       10.214       16.281       19.311       15.889      265.059      372.921      252.466        0.303        0.045       71.176        8.455        0.014      334.078        3.811      869.185
01/13/2015  19:09:00       63.672       25.533        6.678       25.852       17.969       15.719      668.331      322.867      247.083        0.299        0.062       68.600        5.747        0.007      334.138        3.913      869.177
01/13/2015  19:10:00       39.867       34.164       -3.083       18.796       11.878        9.576      353.290      141.092       91.700        0.168        0.029       52.503        7.638        0.021      334.176        3.976      869.180
01/13/2015  19:11:00       22.897       22.259        2.104        9.679       10.186        8.886       93.685      103.756       78.962        0.065        0.014       31.934        6.161        0.037      334.148        3.929      869.188
01/13/2015  19:12:00       17.358       25.691       -3.744       14.412       25.453        8.394      207.705      647.852       70.462        0.095        0.046       31.006        9.749        0.099      334.124        3.890      869.187
01/13/2015  19:13:00       38.551       50.179        3.962       30.206       24.567       21.228      912.428      603.522      450.645        0.299        0.098       63.278       14.030        0.049      334.087        3.829      869.188
01/13/2015  19:14:00       71.961       32.550       12.644       29.798       24.329       19.738      887.926      591.904      389.575        0.413        0.093       78.981       14.615        0.034      334.097        3.845      869.186
01/13/2015  19:15:00       87.395       50.106        4.668       45.337       31.245       22.309     2055.463      976.258      497.684        0.685        0.176      100.740       15.088        0.022      334.142        3.919      869.177
01/13/2015  19:16:00       22.027       42.090        2.096       28.594       25.863       18.992      817.623      668.898      360.711        0.205        0.092       47.506       17.957        0.143      334.049        3.765      869.169
01/13/2015  19:17:00       78.206       49.846        3.775       30.230       22.605       14.734      913.873      510.991      217.080        0.513        0.082       92.741        8.818        0.009      334.201        4.018      869.172
01/13/2015  19:18:00       49.573       35.607        7.306       13.956       18.352       13.859      194.770      336.792      192.071        0.225        0.036       61.035        8.397        0.019      334.122        3.886      869.171
01/13/2015  19:19:00       19.067       36.956        0.612       19.057       28.920       16.309      363.175      836.344      265.989        0.160        0.073       41.585       17.554        0.178      334.027        3.730      869.167
01/13/2015  19:20:00       13.341       47.849       -5.358       15.139       18.682       12.191      229.191      349.018      148.610        0.161        0.036       49.674       11.010        0.049      334.014        3.709      869.163
01/13/2015  19:21:00        4.909       79.456      -13.674       11.267       18.834        7.040      126.937      354.736       49.558        0.353        0.027       79.608        7.103        0.008      334.110        3.866      869.146
01/13/2015  19:22:00       30.566       97.509      -12.809       23.931       33.652       12.156      572.683     1132.462      147.778        0.623        0.093      102.188       12.900        0.016      334.109        3.864      869.137
01/13/2015  19:23:00       30.112       49.247        3.481       25.842       30.247       21.085      667.834      914.888      444.569        0.269        0.101       57.724       20.316        0.124      333.979        3.649      869.128
01/13/2015  19:24:00       39.339       56.232        6.571       32.229       26.994       20.373     1038.686      728.681      415.063        0.347        0.109       68.626       17.726        0.067      334.002        3.689      869.128
01/13/2015  19:25:00       40.355       55.881       -3.260       23.304       26.448       21.677      543.056      699.499      469.914        0.324        0.086       68.929       18.260        0.070      333.946        3.595      869.125
01/13/2015  19:26:00       45.101       70.043       -8.619       30.304       44.678       23.756      918.339     1996.101      564.340        0.525        0.174       83.308       25.556        0.094      333.960        3.617      869.114
01/13/2015  19:27:00       19.092       73.022       -8.532       27.893       23.970       13.275      778.018      574.565      176.213        0.365        0.076       75.477        9.993        0.018      333.974        3.641      869.109
01/13/2015  19:28:00       37.797       43.397       -0.240       29.423       25.627       20.641      865.703      656.754      426.066        0.263        0.097       57.549       15.331        0.071      333.929        3.568      869.099
01/13/2015  19:29:00       11.618       51.095       -1.772       25.940       25.737       16.359      672.901      662.417      267.625        0.218        0.080       52.399       13.417        0.066      333.859        3.450      869.095
01/13/2015  19:30:00       23.515       64.189       -9.851       33.815       22.677       18.036     1143.428      514.258      325.305        0.338        0.099       68.360       14.819        0.047      333.885        3.493      869.086
01/13/2015  19:31:00       22.058       54.789       -3.406       22.856       35.795       21.643      522.391     1281.296      468.403        0.289        0.114       59.063       22.263        0.142      333.796        3.347      869.081
01/13/2015  19:32:00       37.141       73.565       -4.703       33.771       35.925       25.169     1140.477     1290.602      633.463        0.494        0.153       82.409       21.757        0.070      333.891        3.504      869.082
01/13/2015  19:33:00       55.073       43.737        3.460       37.217       31.524       28.709     1385.102      993.764      824.212        0.408        0.160       70.327       20.825        0.088      333.890        3.502      869.088
01/13/2015  19:34:00       27.403       61.293       -4.181       25.512       35.591       23.916      650.862     1266.718      571.966        0.351        0.124       67.140       21.106        0.099      333.809        3.367      869.095
01/13/2015  19:35:00       48.514       54.346        1.761       36.236       41.202       22.113     1313.077     1697.569      488.996        0.440        0.175       72.849       18.439        0.064      333.827        3.397      869.094
01/13/2015  19:36:00       42.825       59.176       -3.213       37.682       30.948       29.680     1419.919      957.767      880.896        0.430        0.163       73.046       23.696        0.105      333.789        3.335      869.098
01/13/2015  19:37:00       62.498       38.528        9.355       44.077       26.798       31.445     1942.824      718.116      988.774        0.456        0.182       73.420       19.420        0.070      333.808        3.367      869.095
01/13/2015  19:38:00       48.169       58.014       -2.600       30.768       37.859       32.657      946.690     1433.273     1066.477        0.457        0.172       75.405       26.006        0.119      333.797        3.348      869.098
01/13/2015  19:39:00       45.175       47.255        0.753       37.783       32.376       27.213     1427.552     1048.224      740.539        0.374        0.161       65.374       19.895        0.093      333.767        3.298      869.102
01/13/2015  19:40:00       87.745       74.186       -1.696       37.125       30.591       28.380     1378.268      935.815      805.416        0.816        0.156      114.903       22.227        0.037      333.785        3.327      869.102
01/13/2015  19:41:00       90.000       75.102        6.474       34.873       27.721       27.932     1216.115      768.473      780.223        0.827        0.138      117.219       20.861        0.032      333.792        3.340      869.101
01/13/2015  19:42:00       51.169       58.986       -4.496       49.422       34.175       24.888     2442.556     1167.956      619.394        0.517        0.211       78.087       23.278        0.089      333.735        3.245      869.108
01/13/2015  19:43:00      100.517       83.028        5.682       48.994       36.970       35.927     2400.368     1366.756     1290.718        1.104        0.253      130.374       27.210        0.044      333.837        3.415      869.114
01/13/2015  19:44:00       70.253       64.814        1.002       44.905       36.545       32.482     2016.489     1335.517     1055.065        0.677        0.220       95.584       20.857        0.048      333.823        3.391      869.117
01/13/2015  19:45:00       26.768       48.883        5.114       27.584       34.889       25.211      760.899     1217.219      635.607        0.287        0.131       55.732       26.094        0.219      333.765        3.294      869.114
01/13/2015  19:46:00       19.111       58.608       -8.288       20.466       35.878       18.898      418.844     1287.255      357.140        0.297        0.103       61.645       16.534        0.072      333.800        3.352      869.102
01/13/2015  19:47:00       21.149       70.248       -9.033       20.337       27.297       17.901      413.598      745.106      320.445        0.347        0.074       73.362       17.934        0.060      333.797        3.348      869.097
01/13/2015  19:48:00       33.831       77.315      -11.039       30.121       33.137       21.782      907.287     1098.054      474.461        0.486        0.124       84.393       18.749        0.049      333.796        3.345      869.098
01/13/2015  19:49:00       24.718       58.152        0.119       34.053       38.933       25.424     1159.606     1515.765      646.390        0.366        0.166       63.187       24.520        0.151      333.783        3.325      869.102
01/13/2015  19:50:00       32.966       73.254       -1.615       36.113       43.672       30.787     1304.172     1907.215      947.851        0.531        0.208       80.330       32.373        0.162      333.817        3.379      869.104
01/13/2015  19:51:00       10.713      115.616      -18.026       19.395       22.119       14.685      376.168      489.242      215.653        0.744        0.054      116.111        8.971        0.006      333.874        3.474      869.100
01/13/2015  19:52:00       19.455       50.354        4.230       23.102       30.322       20.601      533.718      919.400      424.398        0.240        0.094       53.981       14.507        0.072      333.759        3.286      869.104
01/13/2015  19:53:00       35.610       42.478        7.067       25.947       32.529       25.466      673.271     1058.148      648.513        0.275        0.119       55.430       19.506        0.124      333.794        3.343      869.114
01/13/2015  19:54:00       40.175       62.690        0.724       22.469       39.347       24.131      504.870     1548.217      582.294        0.409        0.132       74.459       22.480        0.091      333.816        3.380      869.121
01/13/2015  19:55:00        7.302       46.686       -8.015       27.629       32.138       18.274      763.335     1032.821      333.936        0.221        0.107       47.254       18.772        0.158      333.862        3.456      869.116
01/13/2015  19:56:00       -3.538       98.044      -10.696       22.516       23.244       13.512      506.991      540.285      182.566        0.548        0.061       98.108       12.279        0.016      333.946        3.595      869.114
01/13/2015  19:57:00      -11.990       33.601        0.539       16.900       19.044       16.183      285.624      362.688      261.905        0.109        0.046       35.676       11.327        0.101      333.719        3.218      869.107
01/13/2015  19:58:00      -54.649        2.922       -4.708       27.793       17.794       17.477      772.452      316.639      305.445        0.221        0.070       54.727       17.821        0.106      333.303        2.530      869.089
01/13/2015  19:59:00      -68.218       11.086      -17.876       15.823       14.446       11.215      250.368      208.697      125.780        0.284        0.029       69.113        6.864        0.010      333.286        2.500      869.081
01/13/2015  20:00:00      -81.704        0.868      -19.863       13.925       13.568       16.038      193.906      184.091      257.202        0.385        0.032       81.709        9.842        0.015      333.222        2.394      869.072
01/13/2015  20:01:00      -66.538       -5.314      -18.927       13.727       17.455       12.010      188.419      304.672      144.228        0.273        0.032       66.750        7.890        0.014      333.262        2.462      869.072
01/13/2015  20:02:00      -56.322       30.278      -20.583       21.746       22.328       16.040      472.887      498.542      257.296        0.287        0.061       63.945        7.495        0.014      333.371        2.641      869.066
01/13/2015  20:03:00      -54.068       18.276      -14.811       18.628       22.967       13.369      347.016      527.503      178.727        0.226        0.053       57.074        6.142        0.012      333.450        2.772      869.062
01/13/2015  20:04:00      -38.293       24.996       -7.423       21.769       18.896       14.986      473.888      357.058      224.583        0.160        0.053       45.729       12.288        0.072      333.408        2.702      869.062
01/13/2015  20:05:00      -72.474       71.996      -17.961       17.932       24.619       12.513      321.542      606.092      156.566        0.592        0.054      102.156        6.793        0.004      333.557        2.950      869.074
01/13/2015  20:06:00      -81.546       79.403      -24.915       31.598       26.240       17.378      998.422      688.545      302.002        0.778        0.099      113.818       14.572        0.016      333.598        3.017      869.077
01/13/2015  20:07:00      -79.872       51.439      -15.654       28.263       35.863       24.180      798.812     1286.154      584.692        0.597        0.133       95.002       22.858        0.058      333.565        2.962      869.082
01/13/2015  20:08:00      -19.281       65.675       -4.988       22.012       24.522       16.514      484.537      601.338      272.697        0.303        0.068       68.447       16.388        0.057      333.447        2.766      869.084
01/13/2015  20:09:00      -62.163       84.475      -13.747       33.948       29.006       20.226     1152.454      841.360      409.077        0.680        0.120      104.882       12.873        0.015      333.550        2.936      869.087
01/13/2015  20:10:00      -86.177       83.242      -19.052       25.351       21.278       14.942      642.663      452.768      223.249        0.802        0.066      119.816       12.871        0.012      333.543        2.924      869.095
01/13/2015  20:11:00      -94.222      103.460      -26.434       16.891       26.699       14.528      285.308      712.825      211.077        1.074        0.060      139.935        7.062        0.003      333.551        2.938      869.095
01/13/2015  20:12:00      -32.139       84.929      -10.840       28.069       38.508       20.210      787.875     1482.876      408.424        0.552        0.134       90.807       20.785        0.052      333.721        3.220      869.099
01/13/2015  20:13:00      -40.426       89.274      -11.642       36.642       28.573       11.649     1342.667      816.425      135.691        0.602        0.115       98.001        5.747        0.003      333.553        2.942      869.109
01/13/2015  20:14:00      -47.797      105.296      -13.326       25.654       22.619       17.840      658.104      511.640      318.253        0.752        0.074      115.637       14.217        0.015      333.612        3.042      869.128
01/13/2015  20:15:00      -26.816      125.672      -17.547       15.700       29.631       15.535      246.477      877.971      241.351        0.909        0.068      128.502       14.633        0.013      333.709        3.201      869.145
01/13/2015  20:16:00      -36.600      124.099      -16.664       19.527       21.217       14.116      381.320      450.151      199.248        0.902        0.052      129.384        7.355        0.003      333.610        3.038      869.150
01/13/2015  20:17:00      -35.226      111.141      -14.748       38.169       21.199       13.113     1456.858      449.401      171.951        0.794        0.104      116.589        9.918        0.007      333.543        2.926      869.156
01/13/2015  20:18:00      -12.287       98.154      -15.919       16.529       18.510       13.713      273.203      342.612      188.037        0.542        0.040       98.920        9.697        0.010      333.426        2.735      869.163
01/13/2015  20:19:00      -22.043      115.901      -16.139       24.178       32.158       14.489      584.564     1034.163      209.918        0.800        0.091      117.978       14.470        0.015      333.460        2.789      869.179
01/13/2015  20:20:00       -3.238      105.299      -14.529       18.492       24.091       15.924      341.961      580.381      253.560        0.624        0.059      105.348       13.309        0.016      333.378        2.654      869.202
01/13/2015  20:21:00      -21.124      149.319      -18.217       27.028       31.163       17.778      730.531      971.140      316.071        1.255        0.101      150.806       13.868        0.008      333.536        2.915      869.218
01/13/2015  20:22:00      -56.556       95.989      -17.608       36.412       29.064       20.503     1325.818      844.743      420.364        0.766        0.130      111.411       16.904        0.023      333.622        3.057      869.220
01/13/2015  20:23:00      -56.107       76.343       -8.110       35.200       38.999       23.347     1239.043     1520.958      545.077        0.617        0.165       94.743       26.644        0.079      333.513        2.877      869.226
01/13/2015  20:24:00      -51.576       86.890      -13.944       32.114       32.493       22.112     1031.333     1055.768      488.953        0.649        0.129      101.044       17.589        0.030      333.549        2.936      869.225
01/13/2015  20:25:00      -74.035       65.898      -10.007       34.408       32.922       26.204     1183.877     1083.835      686.631        0.644        0.148       99.115       30.178        0.093      333.526        2.898      869.227
01/13/2015  20:26:00      -80.343       95.256      -22.202       31.130       35.649       17.891      969.074     1270.874      320.080        0.929        0.128      124.615       10.758        0.007      333.565        2.964      869.230
01/13/2015  20:27:00      -87.810       83.878      -14.259       24.655       34.753       17.189      607.845     1207.782      295.473        0.853        0.106      121.434       18.134        0.022      333.567        2.967      869.234
01/13/2015  20:28:00      -88.632       59.779      -15.513       24.902       20.303       14.850      620.115      412.217      220.525        0.646        0.063      106.907        8.406        0.006      333.584        2.993      869.248
01/13/2015  20:29:00      -87.928       33.067      -11.739       22.162       31.820       15.329      491.138     1012.540      234.980        0.535        0.087       93.940       13.530        0.021      333.562        2.957      869.251
01/13/2015  20:30:00      -85.260       40.389      -16.703       27.889       38.033       19.668      777.796     1446.541      386.823        0.589        0.131       94.343        9.284        0.010      333.615        3.045      869.267
01/13/2015  20:31:00      -90.341       38.142      -18.054       26.347       34.937       19.607      694.160     1220.622      384.436        0.612        0.115       98.063       18.572        0.036      333.561        2.956      869.285
01/13/2015  20:32:00      -75.125        9.391      -14.592       30.690       27.532       20.832      941.866      758.004      433.970        0.404        0.107       75.710       17.165        0.051      333.552        2.942      869.301
01/13/2015  20:33:00      -55.684       11.210      -17.451       28.327       28.910       17.105      802.417      835.792      292.582        0.273        0.097       56.801       12.211        0.046      333.425        2.731      869.307
01/13/2015  20:34:00      -64.826        9.550       -8.585       26.339       28.446       13.158      693.755      809.154      173.134        0.302        0.084       65.525        8.815        0.018      333.404        2.696      869.315
01/13/2015  20:35:00      -76.488        9.726      -16.685       31.399       31.388       15.034      985.917      985.189      226.020        0.421        0.110       77.104       10.420        0.018      333.282        2.493      869.315
01/13/2015  20:36:00      -63.261        6.542       -8.397       27.352       29.313       18.796      748.126      859.281      353.284        0.304        0.098       63.599       11.170        0.031      333.192        2.345      869.320
01/13/2015  20:37:00     -110.084       33.517      -25.531       27.177       28.254       14.026      738.601      798.267      196.723        0.781        0.087      115.074       10.775        0.009      333.141        2.260      869.326
01/13/2015  20:38:00      -81.660       23.268      -16.164       18.665       19.791       14.480      348.392      391.688      209.662        0.421        0.047       84.910        8.950        0.011      333.250        2.441      869.329
01/13/2015  20:39:00      -84.138       30.833      -17.690       18.787       23.306       18.400      352.953      543.164      338.561        0.479        0.062       89.610       10.946        0.015      333.270        2.473      869.330
01/13/2015  20:40:00      -70.791       38.016      -14.954       19.366       30.014       15.164      375.058      900.842      229.956        0.409        0.075       80.353       15.660        0.038      333.303        2.528      869.336
01/13/2015  20:41:00      -82.978       54.365      -14.313       17.446       26.741       16.029      304.352      715.084      256.942        0.566        0.064       99.201       17.186        0.030      333.314        2.548      869.351
01/13/2015  20:42:00      -86.004       43.471      -16.050       19.439       21.742       17.070      377.893      472.708      291.369        0.534        0.057       96.366       11.428        0.014      333.373        2.645      869.374
01/13/2015  20:43:00      -87.310       42.243      -16.404       23.862       36.030       19.407      569.411     1298.126      376.650        0.596        0.112       96.993       20.174        0.043      333.338        2.588      869.388
01/13/2015  20:44:00      -92.778       77.539      -22.906       18.738       28.356       16.695      351.115      804.085      278.731        0.829        0.072      120.914       12.677        0.011      333.401        2.691      869.401
01/13/2015  20:45:00      -59.042       13.047      -17.896       16.531       30.890       13.897      273.282      954.218      193.126        0.270        0.071       60.467       12.660        0.044      333.121        2.229      869.404
01/13/2015  20:46:00      -56.728       -4.270       -8.090       13.211       12.550       12.712      174.531      157.503      161.601        0.190        0.025       56.889        3.651        0.004      333.102        2.197      869.402
01/13/2015  20:47:00      -43.467        4.234      -10.186       11.589        9.937       11.023      134.295       98.738      121.497        0.118        0.018       43.673        3.525        0.007      333.151        2.278      869.399
01/13/2015  20:48:00      -56.090       17.572       -9.867       15.972       33.790       13.379      255.098     1141.785      179.004        0.256        0.079       58.778       12.011        0.042      333.141        2.260      869.399
01/13/2015  20:49:00      -82.591       82.361      -22.464       23.616       45.001       19.271      557.700     2025.118      371.361        0.853        0.148      116.639       21.703        0.035      333.281        2.492      869.409
01/13/2015  20:50:00     -107.117       98.393      -24.917       27.160       28.450       18.550      737.649      809.387      344.115        1.183        0.095      145.448       14.997        0.011      333.329        2.572      869.407
01/13/2015  20:51:00     -121.063      112.661      -30.023       20.387       26.436       14.157      415.648      698.867      200.410        1.478        0.066      165.375       10.720        0.004      333.342        2.594      869.395
01/13/2015  20:52:00      -90.296      102.186      -27.303       29.702       38.789       17.753      882.208     1504.606      315.164        1.102        0.135      136.365       16.349        0.014      333.297        2.521      869.393
01/13/2015  20:53:00      -73.910      108.856      -26.677       27.263       21.415       17.477      743.285      458.589      305.442        0.977        0.075      131.576       11.563        0.008      333.314        2.546      869.388
01/13/2015  20:54:00      -87.948      101.208      -23.997       26.627       34.643       19.131      709.004     1200.139      365.993        1.041        0.114      134.082       14.588        0.012      333.319        2.556      869.398
01/13/2015  20:55:00      -62.444       89.178      -18.511       35.463       27.920       18.763     1257.654      779.525      352.063        0.729        0.119      108.867       17.860        0.027      333.372        2.643      869.422
01/13/2015  20:56:00      -22.296      105.773      -17.018       23.584       36.509       17.356      556.196     1332.892      301.222        0.708        0.110      108.097       18.876        0.030      333.381        2.658      869.426
01/13/2015  20:57:00      -34.663      124.139      -20.856       25.559       32.104       18.790      653.248     1030.662      353.064        0.954        0.102      128.887       13.704        0.011      333.387        2.667      869.422
01/13/2015  20:58:00      -37.271      110.074       -9.983       37.478       33.321       23.361     1404.616     1110.316      545.752        0.833        0.153      116.213       15.357        0.017      333.318        2.553      869.417
01/13/2015  20:59:00      -52.795       73.792       -9.688       28.049       40.123       19.184      786.767     1609.853      368.020        0.555        0.138       90.734       16.756        0.034      333.329        2.573      869.411
01/13/2015  21:00:00      -31.665       92.731      -15.944       23.538       29.034       15.397      554.042      842.987      237.063        0.574        0.082       97.989        9.170        0.009      333.371        2.643      869.413
01/13/2015  21:01:00      -25.335      120.994      -17.180       18.336       35.844       15.535      336.197     1284.765      241.327        0.872        0.093      123.618       15.751        0.016      333.325        2.565      869.401
01/13/2015  21:02:00      -33.628      149.418      -22.450       28.152       31.322       14.737      792.559      981.065      217.193        1.298        0.100      153.155        7.681        0.003      333.365        2.631      869.391
01/13/2015  21:03:00      -50.717      139.850      -15.304       30.256       39.621       21.287      915.413     1569.808      453.128        1.265        0.147      148.763       19.225        0.017      333.447        2.767      869.390
01/13/2015  21:04:00      -27.165      148.936      -17.551       26.643       37.674       17.390      709.855     1419.309      302.418        1.283        0.122      151.393       17.178        0.013      333.316        2.550      869.394
01/13/2015  21:05:00      -42.749      134.876      -20.013       26.656       39.236       16.836      710.557     1539.456      283.440        1.148        0.127      141.488       15.301        0.012      333.384        2.662      869.407
01/13/2015  21:06:00      -54.255      110.471      -21.393       37.652       35.562       19.842     1417.665     1264.680      393.692        0.934        0.154      123.075       14.579        0.014      333.418        2.720      869.417
01/13/2015  21:07:00      -61.890      106.469      -17.076       40.106       38.508       22.460     1608.503     1482.872      504.445        0.953        0.180      123.151       20.839        0.029      333.334        2.580      869.434
01/13/2015  21:08:00      -35.989       96.011      -10.790       43.453       40.774       21.790     1888.188     1662.555      474.783        0.733        0.201      102.535       18.070        0.031      333.324        2.564      869.443
01/13/2015  21:09:00      -60.750       75.724      -11.268       37.720       22.173       16.588     1422.775      491.624      275.148        0.587        0.109       97.081       14.715        0.023      333.354        2.613      869.440
01/13/2015  21:10:00      -44.855       89.059       -8.569       25.724       27.516       17.861      661.730      757.125      319.024        0.588        0.087       99.718       12.047        0.015      333.377        2.652      869.442
01/13/2015  21:11:00      -23.183       85.233       -8.723       33.786       37.467       17.515     1141.497     1403.742      306.785        0.536        0.143       88.329       17.590        0.040      333.347        2.602      869.432
01/13/2015  21:12:00       -6.697      109.593      -17.560       17.733       24.262       17.282      314.456      588.633      298.676        0.678        0.060      109.797       13.889        0.016      333.330        2.574      869.436
01/13/2015  21:13:00      -31.694      115.211      -16.666       23.324       32.385       12.491      544.008     1048.782      156.024        0.815        0.087      119.491        7.880        0.004      333.373        2.645      869.445
01/13/2015  21:14:00       -3.284      119.200      -18.881       11.125       18.273        9.309      123.775      333.904       86.652        0.756        0.027      119.246        7.153        0.004      333.286        2.500      869.453
01/13/2015  21:15:00      -28.321      109.587      -17.410       21.762       38.113       18.002      473.576     1452.598      324.062        0.768        0.113      113.188       20.424        0.033      333.404        2.697      869.461
01/13/2015  21:16:00      -35.921      113.790      -12.205       23.866       34.166       20.465      569.572     1167.303      418.823        0.827        0.108      119.325       19.605        0.027      333.342        2.594      869.464
01/13/2015  21:17:00      -42.905      122.749      -14.844       31.759       38.126       17.815     1008.650     1453.608      317.382        0.995        0.139      130.032       15.493        0.014      333.410        2.706      869.462
01/13/2015  21:18:00      -42.651       79.842      -17.056       31.299       26.734       14.736      979.648      714.684      217.150        0.520        0.096       90.520       13.414        0.022      333.289        2.505      869.460
01/13/2015  21:19:00      -49.875       79.751       -8.804       37.956       31.137       19.833     1440.679      969.530      393.346        0.586        0.140       94.063       11.200        0.014      333.332        2.577      869.457
01/13/2015  21:20:00      -67.196       66.521      -15.578       26.032       22.433       11.572      677.658      503.242      133.901        0.525        0.066       94.554       11.638        0.015      333.323        2.561      869.462
01/13/2015  21:21:00      -58.736       62.622      -16.992       22.572       25.975       12.284      509.489      674.694      150.898        0.450        0.067       85.857       10.933        0.016      333.315        2.549      869.464
01/13/2015  21:22:00      -50.768       39.072      -13.043       28.232       19.554       15.390      797.044      382.352      236.864        0.284        0.071       64.063       13.263        0.043      333.164        2.300      869.479
01/13/2015  21:23:00      -53.105       78.816      -14.825       23.025       36.353       14.855      530.163     1321.514      220.669        0.566        0.104       95.037       14.953        0.025      333.325        2.565      869.479
01/13/2015  21:24:00      -35.057       62.928       -8.828       29.268       22.596       17.272      856.608      510.567      298.311        0.347        0.083       72.034       11.656        0.026      333.276        2.485      869.470
01/13/2015  21:25:00       -4.490       82.835       -2.513       24.376       38.012       24.624      594.191     1444.881      606.352        0.477        0.132       82.957       20.943        0.064      333.371        2.643      869.458
01/13/2015  21:26:00      -12.761      100.772       -8.756       22.872       23.438       18.664      523.142      549.331      348.355        0.591        0.071      101.577       12.995        0.016      333.388        2.670      869.442
01/13/2015  21:27:00      -15.398      105.624      -12.528       30.646       31.094       17.052      939.206      966.842      290.773        0.687        0.110      106.741       12.766        0.014      333.289        2.506      869.436
01/13/2015  21:28:00      -45.076       95.123      -10.800       24.427       36.742       17.011      596.666     1350.004      289.380        0.672        0.112      105.262       17.920        0.029      333.338        2.587      869.430
01/13/2015  21:29:00      -37.786       88.835      -12.146       26.212       37.249       14.981      687.064     1387.472      224.431        0.588        0.115       96.537       12.022        0.016      333.432        2.743      869.430
01/13/2015  21:30:00      -34.400      122.476      -13.210       27.406       38.543       20.931      751.101     1485.536      438.116        0.952        0.134      127.215       18.945        0.022      333.437        2.753      869.424
01/13/2015  21:31:00      -45.826      124.130      -13.818       34.059       43.648       21.399     1160.043     1905.113      457.900        1.061        0.176      132.319       16.656        0.016      333.346        2.601      869.412
01/13/2015  21:32:00      -40.197      103.486       -9.893       33.915       33.868       19.455     1150.214     1147.035      378.492        0.755        0.134      111.019       16.341        0.022      333.387        2.667      869.400
01/13/2015  21:33:00      -24.576      117.778      -17.182       29.412       36.190       17.970      865.044     1309.741      322.924        0.863        0.125      120.315       15.245        0.016      333.301        2.526      869.381
01/13/2015  21:34:00      -31.608       43.192       -0.981       29.324       26.652       13.648      859.906      710.335      186.269        0.231        0.088       53.522       10.318        0.037      333.042        2.099      869.369
01/13/2015  21:35:00      -55.038       60.819      -18.054       22.965       25.456       14.347      527.411      647.992      205.834        0.422        0.069       82.025       11.054        0.018      333.150        2.275      869.362
01/13/2015  21:36:00      -56.696       60.299       -8.398       26.193       30.668       15.692      686.083      940.499      246.250        0.440        0.094       82.767       14.242        0.030      333.151        2.277      869.357
01/13/2015  21:37:00        2.645       24.072        8.490       15.152       22.629       15.107      229.587      512.083      228.223        0.081        0.048       24.217       12.688        0.275      333.063        2.134      869.355
01/13/2015  21:38:00      -27.292       61.718       -9.852       24.549       38.889       13.015      602.661     1512.384      169.397        0.347        0.114       67.483       14.785        0.048      333.115        2.220      869.351
01/13/2015  21:39:00      -65.803       33.260       -5.757       25.880       24.334       17.236      669.762      592.137      297.096        0.351        0.078       73.731       13.487        0.033      333.048        2.108      869.347
01/13/2015  21:40:00      -37.830       41.688       -7.285       24.995       35.471       18.687      624.725     1258.191      349.212        0.273        0.112       56.294       21.750        0.149      333.187        2.338      869.356
01/13/2015  21:41:00      -48.250       39.878       -7.514       21.991       32.883       13.711      483.589     1081.280      187.979        0.286        0.088       62.597       14.364        0.053      333.097        2.190      869.363
01/13/2015  21:42:00      -47.125       41.015       -9.783       37.431       34.562       14.504     1401.048     1194.520      210.364        0.340        0.140       62.474       11.904        0.036      333.049        2.110      869.374
01/13/2015  21:43:00      -27.969       45.744       -0.901       26.782       20.959       14.893      717.262      439.280      221.790        0.213        0.069       53.616        8.611        0.026      333.000        2.029      869.382
01/13/2015  21:44:00      -48.794       -7.064       -1.156       15.507       21.760       10.521      240.461      473.501      110.692        0.163        0.041       49.302        5.191        0.011      332.806        1.710      869.383
01/13/2015  21:45:00      -69.290      -12.723       -9.377       22.316       21.158       13.886      498.025      447.661      192.823        0.309        0.057       70.448       12.894        0.033      332.875        1.823      869.389
01/13/2015  21:46:00      -54.232        1.450      -11.902       23.848       15.983       11.296      568.706      255.458      127.610        0.202        0.048       54.252       10.170        0.035      332.718        1.564      869.386
01/13/2015  21:47:00      -59.094      -14.703      -12.858       16.347       22.607       12.438      267.222      511.055      154.709        0.240        0.047       60.896       10.720        0.031      332.591        1.354      869.383
01/13/2015  21:48:00      -75.887      -18.691      -14.824       17.832       32.313       15.242      317.978     1044.142      232.307        0.396        0.080       78.155       14.178        0.033      332.548        1.283      869.377
01/13/2015  21:49:00      -51.843      -14.351      -12.793       27.729       25.989       15.399      768.884      675.408      237.132        0.237        0.084       53.793        2.915        0.003      332.620        1.401      869.375
01/13/2015  21:50:00      -54.540        0.490      -16.462       19.367       19.451        8.943      375.099      378.348       79.978        0.204        0.042       54.542        9.078        0.028      332.737        1.594      869.377
01/13/2015  21:51:00      -39.674      -13.162       -3.802       19.056       16.768       11.962      363.139      281.157      143.082        0.127        0.039       41.800       10.247        0.060      332.725        1.574      869.388
01/13/2015  21:52:00      -60.665       14.190       -8.724       26.542       25.343       19.198      704.460      642.288      368.568        0.284        0.086       62.303       21.358        0.118      333.012        2.050      869.398
01/13/2015  21:53:00      -63.261      -12.839      -12.577       15.267       20.512       10.926      233.092      420.737      119.385        0.255        0.039       64.551        8.404        0.017      332.690        1.518      869.401
01/13/2015  21:54:00      -71.627        2.887      -15.189       17.385       20.858       16.951      302.248      435.065      287.320        0.320        0.051       71.685       10.382        0.021      332.784        1.671      869.408
01/13/2015  21:55:00      -73.419       24.244      -17.221       25.441       50.047       16.057      647.249     2504.708      257.828        0.484        0.170       77.318       22.851        0.087      332.819        1.730      869.404
01/13/2015  21:56:00      -51.530       24.484       -1.964       16.540       24.646       11.933      273.555      607.435      142.387        0.214        0.051       57.051        8.155        0.020      332.946        1.940      869.393
01/13/2015  21:57:00      -63.125       -2.487       -7.828       13.671       13.891       13.180      186.892      192.954      173.706        0.230        0.028       63.174        8.795        0.019      332.784        1.672      869.369
01/13/2015  21:58:00      -42.006        0.456      -11.799       14.821       15.079        8.495      219.668      227.380       72.161        0.121        0.026       42.009        6.761        0.026      332.716        1.559      869.358
01/13/2015  21:59:00      -51.272        5.820       -7.112       12.826       15.647       12.621      164.518      244.831      159.293        0.164        0.028       51.602        5.978        0.013      332.737        1.593      869.346
01/13/2015  22:00:00      -41.135      -16.812       -5.951       12.382        9.748        7.573      153.304       95.021       57.346        0.116        0.015       44.438        6.340        0.020      332.658        1.464      869.340
01/13/2015  22:01:00      -25.090       -5.312       -8.868       16.782       13.031       13.665      281.621      169.807      186.722        0.069        0.032       25.646       10.096        0.155      332.722        1.570      869.336
01/13/2015  22:02:00      -17.017       38.546      -12.102       21.739       27.545       10.678      472.583      758.737      114.028        0.163        0.067       42.135        9.203        0.048      332.904        1.871      869.324
01/13/2015  22:03:00      -12.748       26.744       -2.615       14.676       24.511       10.615      215.380      600.767      112.688        0.091        0.046       29.627        9.474        0.102      332.978        1.993      869.312
01/13/2015  22:04:00      -37.213       47.520      -12.313       22.806       31.492       13.220      520.133      991.722      174.758        0.274        0.084       60.357       10.634        0.031      333.067        2.141      869.300
01/13/2015  22:05:00       -4.084       45.632        1.554       17.341       26.266       11.599      300.722      689.908      134.547        0.161        0.056       45.814       13.995        0.093      333.152        2.280      869.290
01/13/2015  22:06:00      -20.138        7.179       -3.964       17.926       21.121       11.369      321.346      446.110      129.251        0.068        0.045       21.379        6.501        0.092      332.768        1.646      869.277
01/13/2015  22:07:00      -34.796        1.520       -7.395       12.345       16.473       11.316      152.396      271.359      128.057        0.091        0.028       34.829        9.141        0.069      332.585        1.343      869.259
01/13/2015  22:08:00      -17.171       59.093      -11.299       28.007       33.399       16.850      784.370     1115.506      283.921        0.305        0.109       61.537       12.456        0.041      333.147        2.272      869.239
01/13/2015  22:09:00      -18.421       49.884       -7.618       33.341       35.240       15.680     1111.644     1241.850      245.867        0.274        0.130       53.177       10.877        0.042      332.974        1.986      869.228
01/13/2015  22:10:00      -49.640       -7.315       -3.699       21.846       13.452       13.349      477.251      180.969      178.184        0.168        0.042       50.176        6.187        0.015      332.493        1.192      869.211
01/13/2015  22:11:00      -54.358      -22.874      -11.786       15.330       16.334       16.850      234.998      266.802      283.920        0.220        0.039       58.975        4.164        0.005      332.444        1.111      869.193
01/13/2015  22:12:00      -51.721       -4.901      -17.775       16.375       27.562       15.095      268.128      759.686      227.858        0.214        0.063       51.953       10.781        0.043      332.488        1.184      869.182
01/13/2015  22:13:00      -49.508       -9.906      -10.046       13.466       14.953       12.041      181.329      223.605      144.992        0.160        0.027       50.489        7.541        0.022      332.488        1.182      869.160
01/13/2015  22:14:00      -51.158      -16.763       -9.388       11.061       12.019       11.122      122.336      144.449      123.703        0.169        0.020       53.834        7.372        0.019      332.373        0.993      869.140
01/13/2015  22:15:00      -55.015      -22.663       -8.835       19.853       14.429       10.943      394.127      208.187      119.757        0.217        0.036       59.501        6.760        0.013      332.352        0.958      869.124
01/13/2015  22:16:00      -52.428      -23.247      -11.506       17.812       16.302       10.397      317.252      265.771      108.095        0.206        0.035       57.351        4.836        0.007      332.280        0.840      869.110
01/13/2015  22:17:00      -52.448      -13.018      -14.147       16.305       18.451       10.460      265.850      340.440      109.403        0.192        0.036       54.039        6.000        0.012      332.356        0.966      869.105
01/13/2015  22:18:00      -54.406      -14.585      -10.935       10.309       11.946       11.757      106.269      142.704      138.237        0.184        0.019       56.327        4.249        0.006      332.262        0.811      869.102
01/13/2015  22:19:00      -68.079       -2.644      -15.301       27.214       18.351       19.495      740.624      336.747      380.046        0.317        0.073       68.130       14.399        0.045      332.163        0.647      869.097
01/13/2015  22:20:00      -48.772       -0.017      -15.054       24.991       19.052       14.556      624.546      362.993      211.890        0.190        0.060       48.772        9.312        0.036      332.208        0.721      869.100
01/13/2015  22:21:00      -79.045        3.649      -17.214       18.000       14.662       15.119      323.998      214.978      228.595        0.366        0.038       79.129        8.205        0.011      332.149        0.625      869.089
01/13/2015  22:22:00      -45.277      -14.946      -14.484       16.171       20.175       12.453      261.487      407.028      155.076        0.165        0.041       47.680        9.912        0.043      332.097        0.539      869.084
01/13/2015  22:23:00      -44.995       -4.127      -23.111       16.659       18.571       16.030      277.531      344.896      256.977        0.173        0.044       45.184        8.656        0.037      332.161        0.643      869.076
01/13/2015  22:24:00      -66.318      -18.965      -17.496       14.430       14.699       10.042      208.239      216.074      100.838        0.279        0.026       68.976        5.136        0.006      332.223        0.745      869.076
01/13/2015  22:25:00      -57.791      -21.128      -11.193       18.020       10.716        9.164      324.717      114.830       83.984        0.222        0.026       61.532        5.279        0.007      332.174        0.665      869.080
01/13/2015  22:26:00      -64.242       -4.205      -20.890       12.470       10.398        9.688      155.509      108.110       93.851        0.247        0.018       64.380        4.240        0.004      332.260        0.807      869.073
01/13/2015  22:27:00      -61.556       -1.174      -11.690       14.007        9.907        9.440      196.190       98.144       89.112        0.216        0.019       61.567        7.208        0.014      332.234        0.764      869.066
01/13/2015  22:28:00      -21.505        5.878       -6.600       24.948       19.277       15.236      622.408      371.610      232.151        0.088        0.061       22.294       10.354        0.216      332.634        1.425      869.057
01/13/2015  22:29:00      -35.163        9.299       -8.106       16.515       12.062       11.437      272.750      145.485      130.816        0.097        0.027       36.372        9.218        0.064      332.715        1.557      869.057
01/13/2015  22:30:00      -11.575       31.218       -2.085       24.096       29.736       11.032      580.599      884.250      121.714        0.135        0.079       33.295       13.580        0.166      332.800        1.698      869.049
01/13/2015  22:31:00       -6.427       75.028       -8.425       21.118       22.000       12.722      445.959      483.979      161.847        0.342        0.055       75.303        3.242        0.002      333.124        2.232      869.038
01/13/2015  22:32:00      -18.085       32.770       -5.872       19.396       23.851       18.660      376.220      568.869      348.184        0.136        0.065       37.429       16.697        0.199      332.948        1.943      869.021
01/13/2015  22:33:00      -40.583      -13.719       -2.608       18.775       14.759       13.073      352.491      217.833      170.906        0.129        0.037       42.839       11.453        0.071      332.410        1.056      869.014
01/13/2015  22:34:00      -33.254      -17.960       -6.554       23.473       10.668       10.852      550.996      113.796      117.774        0.113        0.039       37.794        4.210        0.012      332.415        1.063      869.009
01/13/2015  22:35:00      -36.263      -17.558      -11.820       18.262       12.082        7.848      333.510      145.980       61.592        0.115        0.027       40.289        3.496        0.008      332.252        0.794      869.007
01/13/2015  22:36:00       29.621       18.984      -11.495       37.469       25.934       11.975     1403.940      672.562      143.394        0.179        0.111       35.182       10.954        0.097      332.883        1.834      869.001
01/13/2015  22:37:00       -3.317       32.794       -0.777       15.573       27.076       10.271      242.516      733.102      105.496        0.108        0.054       32.962        6.117        0.034      332.746        1.609      868.993
01/13/2015  22:38:00      -11.978       15.656       -1.786       15.188       18.987        6.813      230.662      360.511       46.414        0.051        0.032       19.712        8.062        0.167      332.848        1.778      868.982
01/13/2015  22:39:00      -47.593      -24.603       -4.967       10.562       15.391       10.473      111.561      236.891      109.680        0.168        0.023       53.576        5.843        0.012      332.309        0.887      868.978
01/13/2015  22:40:00      -65.642      -21.719      -12.582        8.804       11.628        7.282       77.512      135.203       53.030        0.260        0.013       69.142        3.531        0.003      332.048        0.460      868.978
01/13/2015  22:41:00      -94.309      -22.836      -16.440       22.512       10.550        9.936      506.793      111.308       98.715        0.520        0.036       97.034        7.635        0.006      332.085        0.518      868.967
01/13/2015  22:42:00      -92.187      -14.184      -12.568       21.792       16.255       14.604      474.883      264.213      213.264        0.490        0.048       93.272        8.370        0.008      331.935        0.270      868.960
01/13/2015  22:43:00      -99.014      -43.053      -15.570       20.892       22.780       13.303      436.494      518.923      176.963        0.652        0.057      107.969        2.560        0.001      331.958        0.309      868.950
01/13/2015  22:44:00      -84.866      -50.422      -16.996       24.938       21.355       19.499      621.922      456.019      380.228        0.575        0.073       98.715        6.642        0.005      331.975        0.336      868.943
01/13/2015  22:45:00     -107.689      -32.483      -19.186       34.099       22.145       14.818     1162.739      490.383      219.587        0.745        0.094      112.481        8.132        0.005      331.927        0.257      868.944
01/13/2015  22:46:00      -72.816      -46.823      -16.082       36.592       19.137       16.076     1338.957      366.209      258.453        0.486        0.098       86.571       16.168        0.035      331.846        0.125      868.951
01/13/2015  22:47:00      -79.057      -23.948      -10.818       25.339       21.002       18.854      642.055      441.084      355.484        0.419        0.072       82.605       13.770        0.028      331.879        0.180      868.947
01/13/2015  22:48:00      -89.035      -24.119      -16.223       18.029       16.500       11.753      325.044      272.261      138.133        0.475        0.037       92.244        8.096        0.008      331.809        0.064      868.935
01/13/2015  22:49:00      -83.508      -10.909      -11.844       22.447       16.087       11.548      503.877      258.776      133.358        0.406        0.045       84.217        8.800        0.011      331.861        0.149      868.923
01/13/2015  22:50:00      -46.479       -9.588      -16.189       11.907       12.997        9.099      141.775      168.934       82.784        0.145        0.020       47.458        6.750        0.020      331.973        0.335      868.913
01/13/2015  22:51:00      -25.409        2.341       -3.858       27.519       30.158       17.897      757.296      909.497      320.317        0.133        0.099       25.517       17.212        0.455      332.115        0.568      868.901
01/13/2015  22:52:00        2.713       42.083       -2.420       22.389       30.520       13.509      501.253      931.461      182.497        0.170        0.081       42.170       14.672        0.121      332.591        1.353      868.885
01/13/2015  22:53:00       18.693       49.472       -5.382       12.292       13.778        9.471      151.102      189.846       89.702        0.163        0.022       52.885        5.409        0.010      332.712        1.554      868.869
01/13/2015  22:54:00        9.943       57.788       -7.211       11.134       21.199        9.051      123.955      449.377       81.920        0.207        0.033       58.637        8.685        0.022      332.690        1.517      868.869
01/13/2015  22:55:00       -2.730       80.661      -10.717        8.787       12.006        6.737       77.205      144.150       45.385        0.345        0.013       80.708        5.143        0.004      332.773        1.655      868.867
01/13/2015  22:56:00        3.443      100.242      -11.401       15.649       17.105        9.857      244.898      292.574       97.165        0.541        0.032      100.301        8.317        0.007      332.813        1.721      868.864
01/13/2015  22:57:00       18.400       62.835       -5.497       17.678       28.894       15.001      312.508      834.864      225.044        0.284        0.069       65.474       15.708        0.058      332.684        1.507      868.857
01/13/2015  22:58:00        8.054       45.734       -7.379       13.335       18.715        8.746      177.820      350.234       76.486        0.141        0.030       46.438        5.118        0.012      332.709        1.548      868.851
01/13/2015  22:59:00       -6.675       53.292       -4.284       19.460       12.218        9.155      378.708      149.288       83.808        0.176        0.031       53.709       10.176        0.036      332.738        1.596      868.833
01/13/2015  23:00:00       -4.854       36.036        0.933       10.466        7.639        5.890      109.538       58.347       34.688        0.076        0.010       36.361        3.721        0.010      332.675        1.492      868.830
01/13/2015  23:01:00        7.032       14.992        3.930       10.236        9.209        5.488      104.779       84.807       30.114        0.025        0.011       16.559        4.267        0.066      332.607        1.379      868.822
01/13/2015  23:02:00        9.435       28.668       -2.135        7.687       13.189        5.625       59.097      173.949       31.644        0.059        0.013       30.181        5.749        0.036      332.693        1.521      868.808
01/13/2015  23:03:00        3.354       58.719       -6.836       11.568       13.804        6.178      133.815      190.554       38.173        0.193        0.018       58.814        6.255        0.011      332.717        1.560      868.795
01/13/2015  23:04:00       10.383       56.609       -8.008       12.414       14.916        7.111      154.112      222.484       50.569        0.190        0.021       57.554        7.983        0.019      332.656        1.463      868.780
01/13/2015  23:05:00      -17.915       66.360       -8.996       16.868       10.128        6.028      284.543      102.571       36.338        0.261        0.021       68.735        5.565        0.007      332.651        1.453      868.769
01/13/2015  23:06:00      -31.855       10.646       -5.083       20.293       25.151       10.725      411.795      632.580      115.017        0.116        0.058       33.586       12.825        0.146      332.302        0.876      868.761
01/13/2015  23:07:00      -31.173        4.555       -4.901       22.889       23.451       13.802      523.918      549.962      190.484        0.114        0.063       31.504       12.086        0.147      332.064        0.485      868.767
01/13/2015  23:08:00      -25.503       16.253       -3.129       24.328       30.183       15.493      591.863      910.984      240.022        0.133        0.087       30.242       11.181        0.137      332.231        0.758      868.771
01/13/2015  23:09:00      -16.726       73.481      -12.627       19.961       18.718       11.260      398.422      350.373      126.784        0.336        0.044       75.361        9.339        0.015      332.629        1.416      868.776
01/13/2015  23:10:00      -29.388        9.544       -7.799       21.961       32.914       11.960      482.301     1083.317      143.032        0.136        0.085       30.899        9.042        0.086      332.273        0.830      868.770
01/13/2015  23:11:00      -48.220      -28.532       -9.544       18.182       12.063       10.250      330.579      145.525      105.064        0.191        0.029       56.029        8.589        0.024      331.710       -0.097      868.775
01/13/2015  23:12:00      -55.510      -18.590       -6.231       15.234       13.937       13.030      232.063      194.230      169.786        0.203        0.030       58.540        7.691        0.017      331.779        0.015      868.768
01/13/2015  23:13:00      -56.594      -14.843      -13.629       11.204        7.395        5.637      125.524       54.690       31.771        0.191        0.011       58.508        2.948        0.003      331.677       -0.153      868.768
01/13/2015  23:14:00      -60.816      -26.763       -8.050        7.519        8.437        7.242       56.535       71.176       52.450        0.233        0.009       66.445        3.924        0.003      331.782        0.018      868.767
01/13/2015  23:15:00      -67.797      -24.315       -9.934       17.584        8.118        6.699      309.192       65.901       44.873        0.285        0.021       72.026        5.371        0.006      331.736       -0.056      868.759
01/13/2015  23:16:00      -74.634      -22.783      -12.453        8.175        7.080        6.652       66.823       50.125       44.244        0.320        0.008       78.034        4.399        0.003      331.799        0.047      868.757
01/13/2015  23:17:00      -85.850      -13.738      -13.504        9.164       11.760        9.061       83.985      138.301       82.108        0.402        0.015       86.943        3.561        0.002      331.808        0.063      868.763
01/13/2015  23:18:00      -71.083      -14.357      -12.862       13.679       14.632        9.638      187.103      214.081       92.897        0.296        0.025       72.519        3.512        0.002      331.825        0.089      868.760
01/13/2015  23:19:00      -71.255        0.099      -14.237       12.817        7.237        7.646      164.268       52.379       58.465        0.278        0.014       71.255        4.155        0.003      331.788        0.029      868.756
01/13/2015  23:20:00      -61.936      -11.769      -10.317       15.003        9.653        8.347      225.082       93.181       69.675        0.223        0.019       63.044        6.682        0.011      331.740       -0.049      868.753
01/13/2015  23:21:00      -58.899      -21.438      -11.987       12.722        6.429        7.741      161.862       41.327       59.920        0.217        0.013       62.680        8.196        0.017      331.711       -0.096      868.741
01/13/2015  23:22:00      -43.553      -23.856      -10.232       13.337        8.445        8.937      177.879       71.321       79.863        0.145        0.016       49.658        6.218        0.016      331.921        0.249      868.726
01/13/2015  23:23:00      -48.252      -18.977      -12.634       13.812        9.756        8.855      190.770       95.188       78.407        0.161        0.018       51.850        5.209        0.010      331.807        0.061      868.707
01/13/2015  23:24:00      -82.837       -8.061      -12.926       13.571       10.216        7.514      184.184      104.364       56.459        0.372        0.017       83.228        3.939        0.002      331.646       -0.204      868.696
01/13/2015  23:25:00      -69.638       -7.665      -13.155       12.430       12.214        8.373      154.510      149.184       70.113        0.273        0.019       70.058        4.712        0.005      331.743       -0.044      868.687
01/13/2015  23:26:00      -62.955      -27.664      -10.636        9.910       12.017        8.481       98.215      144.409       71.921        0.258        0.016       68.766        6.243        0.008      331.607       -0.268      868.676
01/13/2015  23:27:00      -62.399      -24.674      -14.654       11.266       11.135       11.632      126.927      123.996      135.308        0.255        0.019       67.100        5.785        0.007      331.612       -0.261      868.668
01/13/2015  23:28:00      -69.322      -29.488      -12.177       13.621       17.884       11.596      185.541      319.832      134.468        0.323        0.032       75.333        7.220        0.009      331.563       -0.341      868.652
01/13/2015  23:29:00      -65.444      -29.601      -12.497       14.348       12.589       10.531      205.864      158.484      110.903        0.290        0.024       71.827        3.897        0.003      331.524       -0.407      868.638
01/13/2015  23:30:00      -72.712      -21.653      -15.109       11.517       11.938       11.402      132.646      142.517      130.014        0.319        0.020       75.867        5.565        0.005      331.529       -0.398      868.635
01/13/2015  23:31:00      -78.077      -19.566      -14.901       11.858        9.352        8.558      140.601       87.454       73.239        0.350        0.015       80.492        4.535        0.003      331.509       -0.429      868.624
01/13/2015  23:32:00      -88.921      -23.643      -16.855       13.877       14.248       10.872      192.583      203.019      118.205        0.463        0.026       92.011        8.043        0.008      331.500       -0.446      868.609
01/13/2015  23:33:00      -85.858      -27.176      -15.281       29.182       23.882       13.054      851.562      570.372      170.416        0.497        0.080       90.057       13.807        0.024      331.440       -0.544      868.591
01/13/2015  23:34:00      -93.682      -18.008      -13.505       28.940       13.697       10.488      837.508      187.616      109.995        0.521        0.057       95.397        9.083        0.009      331.356       -0.682      868.575
01/13/2015  23:35:00      -97.329      -23.119       -8.520       21.646       16.708       13.074      468.560      279.163      170.919        0.550        0.046      100.038        8.270        0.007      331.330       -0.723      868.567
01/13/2015  23:36:00     -101.404      -23.822      -11.934       16.146       16.623       13.371      260.702      276.324      178.776        0.585        0.036      104.165        9.919        0.009      331.354       -0.684      868.549
01/13/2015  23:37:00      -67.027      -17.451      -16.416       18.458       15.853       10.194      340.700      251.310      103.913        0.288        0.035       69.261        5.631        0.007      331.337       -0.712      868.527
01/13/2015  23:38:00      -60.345       -9.594      -13.797       11.602       14.496       10.396      134.596      210.125      108.076        0.219        0.023       61.103        9.319        0.023      331.378       -0.646      868.507
01/13/2015  23:39:00      -39.493       50.360      -16.702       17.969       48.638        9.792      322.898     2365.625       95.884        0.358        0.139       63.999       10.417        0.026      331.731       -0.064      868.498
01/13/2015  23:40:00      -34.072      103.085      -11.235       24.831       23.274       15.831      616.560      541.684      250.623        0.666        0.070      108.570       15.217        0.020      332.175        0.668      868.503
01/13/2015  23:41:00      -31.387      119.561      -19.678       19.248       16.179       11.994      370.485      261.769      143.852        0.822        0.039      123.612        6.867        0.003      332.294        0.863      868.494
01/13/2015  23:42:00      -31.087       93.841      -13.373       23.065       26.406       14.230      531.980      697.274      202.480        0.569        0.072       98.856       11.999        0.015      332.249        0.788      868.483
01/13/2015  23:43:00      -37.637       34.539       -6.715       24.085       48.834       19.079      580.094     2384.729      364.005        0.299        0.166       51.083       26.322        0.266      331.845        0.122      868.490
01/13/2015  23:44:00      -71.677       -3.057      -17.533       18.591       13.896       10.722      345.643      193.087      114.967        0.305        0.033       71.742        9.138        0.016      331.311       -0.755      868.508
01/13/2015  23:45:00      -68.402      -18.407      -10.365       10.479       14.099        9.338      109.803      198.769       87.193        0.276        0.020       70.835        4.927        0.005      331.339       -0.709      868.505
01/13/2015  23:46:00      -55.292       -6.521      -12.684       16.262       10.709        9.568      264.460      114.684       91.550        0.187        0.024       55.675        6.692        0.014      331.275       -0.814      868.497
01/13/2015  23:47:00      -76.539       -3.262      -18.564       20.516       15.254       14.741      420.916      232.694      217.304        0.354        0.044       76.608        9.666        0.016      331.344       -0.701      868.497
01/13/2015  23:48:00      -49.406        0.666      -13.802       13.678       14.753       10.726      187.081      217.662      115.045        0.158        0.026       49.411        6.150        0.015      331.412       -0.590      868.493
01/13/2015  23:49:00      -41.845       -5.982      -11.245        9.556        9.542        8.032       91.313       91.045       64.512        0.108        0.012       42.271        5.910        0.020      331.589       -0.298      868.491
01/13/2015  23:50:00      -58.626        1.710      -14.740       20.309       10.414       11.796      412.437      108.444      139.139        0.216        0.033       58.651        7.187        0.015      331.479       -0.480      868.491
01/13/2015  23:51:00      -46.702      -19.557      -11.842       15.718       12.414        9.078      247.052      154.119       82.406        0.159        0.024       50.632        5.090        0.010      331.556       -0.353      868.498
01/13/2015  23:52:00      -55.838       -9.346       -6.117       15.486       16.837       13.466      239.817      283.471      181.328        0.197        0.035       56.614       12.505        0.049      331.551       -0.361      868.504
01/13/2015  23:53:00      -48.212      -10.907      -15.649       14.295       10.386       10.207      204.361      107.863      104.178        0.155        0.021       49.430        7.140        0.021      331.619       -0.249      868.492
01/13/2015  23:54:00      -13.508       -8.696        2.730       16.366       11.150       10.305      267.847      124.326      106.184        0.038        0.025       16.065        6.195        0.149      331.691       -0.130      868.492
01/13/2015  23:55:00       -8.384        6.757       -3.766       23.514       22.088       12.433      552.894      487.891      154.589        0.066        0.060       10.768        8.460        0.617      331.799        0.046      868.481
01/13/2015  23:56:00      -12.834       11.039       -5.092       16.601       15.792        7.674      275.581      249.387       58.897        0.045        0.029       16.929        5.501        0.106      331.872        0.166      868.488
01/13/2015  23:57:00      -11.400        1.207        1.948       11.136        6.927        4.905      124.014       47.984       24.062        0.017        0.010       11.464        2.951        0.066      331.768       -0.003      868.493
01/13/2015  23:58:00       10.107        4.912        1.343        7.793        5.465        5.146       60.738       29.870       26.480        0.012        0.006       11.237        4.295        0.146      331.895        0.207      868.494
01/13/2015  23:59:00        9.198        1.096        1.894        6.632        4.514        6.520       43.987       20.373       42.515        0.010        0.005        9.264        2.420        0.068      331.964        0.319      868.482
